<?xml version="1.0" encoding="UTF-8" standalone="no" ?>
<gpx xmlns="http://www.topografix.com/GPX/1/1" xmlns:xsi="http://www.w3.org/2001/XMLSchema-instance" xsi:schemaLocation="http://www.topografix.com/GPX/1/1 http://www.topografix.com/GPX/1/1/gpx.xsd" version="1.1" creator="VisuGPX - https://www.visugpx.com">
  <metadata>
    <name>cap frehel </name>
    <desc><![CDATA[boucle de 17 km autour du cap frehel et du fort lalatte au départ de plévenon]]></desc>
  </metadata>
  <trk>
    <name><![CDATA[cap frehel _1]]></name>
    <trkseg>
      <trkpt lat="48.65543" lon="-2.33311">
        <ele>47.6</ele>
        <time>2012-02-26T12:05:48Z</time>
      </trkpt>
      <trkpt lat="48.65543" lon="-2.33311">
        <ele>111</ele>
        <time>2012-02-26T12:06:11Z</time>
      </trkpt>
      <trkpt lat="48.65552" lon="-2.33314">
        <ele>107</ele>
        <time>2012-02-26T12:06:22Z</time>
      </trkpt>
      <trkpt lat="48.65558" lon="-2.33324">
        <ele>106</ele>
        <time>2012-02-26T12:06:29Z</time>
      </trkpt>
      <trkpt lat="48.65565" lon="-2.33334">
        <ele>106</ele>
        <time>2012-02-26T12:06:36Z</time>
      </trkpt>
      <trkpt lat="48.65572" lon="-2.33339">
        <ele>106</ele>
        <time>2012-02-26T12:06:41Z</time>
      </trkpt>
      <trkpt lat="48.65578" lon="-2.33343">
        <ele>106</ele>
        <time>2012-02-26T12:06:46Z</time>
      </trkpt>
      <trkpt lat="48.65585" lon="-2.33347">
        <ele>106</ele>
        <time>2012-02-26T12:06:51Z</time>
      </trkpt>
      <trkpt lat="48.65592" lon="-2.33351">
        <ele>106</ele>
        <time>2012-02-26T12:06:56Z</time>
      </trkpt>
      <trkpt lat="48.65599" lon="-2.33355">
        <ele>106</ele>
        <time>2012-02-26T12:07:00Z</time>
      </trkpt>
      <trkpt lat="48.65605" lon="-2.33357">
        <ele>106</ele>
        <time>2012-02-26T12:07:03Z</time>
      </trkpt>
      <trkpt lat="48.65613" lon="-2.33359">
        <ele>106</ele>
        <time>2012-02-26T12:07:07Z</time>
      </trkpt>
      <trkpt lat="48.6562" lon="-2.3336">
        <ele>106</ele>
        <time>2012-02-26T12:07:11Z</time>
      </trkpt>
      <trkpt lat="48.65627" lon="-2.33363">
        <ele>106</ele>
        <time>2012-02-26T12:07:16Z</time>
      </trkpt>
      <trkpt lat="48.65633" lon="-2.33365">
        <ele>106</ele>
        <time>2012-02-26T12:07:22Z</time>
      </trkpt>
      <trkpt lat="48.65654" lon="-2.33361">
        <ele>105</ele>
        <time>2012-02-26T12:07:38Z</time>
      </trkpt>
      <trkpt lat="48.65664" lon="-2.33376">
        <ele>105</ele>
        <time>2012-02-26T12:07:43Z</time>
      </trkpt>
      <trkpt lat="48.65697" lon="-2.33485">
        <ele>112</ele>
        <time>2012-02-26T12:07:52Z</time>
      </trkpt>
      <trkpt lat="48.65684" lon="-2.33479">
        <ele>112</ele>
        <time>2012-02-26T12:07:59Z</time>
      </trkpt>
      <trkpt lat="48.65683" lon="-2.33466">
        <ele>113</ele>
        <time>2012-02-26T12:08:03Z</time>
      </trkpt>
      <trkpt lat="48.65685" lon="-2.33456">
        <ele>112</ele>
        <time>2012-02-26T12:08:07Z</time>
      </trkpt>
      <trkpt lat="48.6569" lon="-2.33448">
        <ele>112</ele>
        <time>2012-02-26T12:08:12Z</time>
      </trkpt>
      <trkpt lat="48.65695" lon="-2.33442">
        <ele>112</ele>
        <time>2012-02-26T12:08:16Z</time>
      </trkpt>
      <trkpt lat="48.657" lon="-2.33437">
        <ele>111</ele>
        <time>2012-02-26T12:08:20Z</time>
      </trkpt>
      <trkpt lat="48.65707" lon="-2.33433">
        <ele>111</ele>
        <time>2012-02-26T12:08:25Z</time>
      </trkpt>
      <trkpt lat="48.65714" lon="-2.33431">
        <ele>110</ele>
        <time>2012-02-26T12:08:30Z</time>
      </trkpt>
      <trkpt lat="48.65726" lon="-2.33436">
        <ele>109</ele>
        <time>2012-02-26T12:08:40Z</time>
      </trkpt>
      <trkpt lat="48.65733" lon="-2.33439">
        <ele>108</ele>
        <time>2012-02-26T12:08:46Z</time>
      </trkpt>
      <trkpt lat="48.6574" lon="-2.33442">
        <ele>108</ele>
        <time>2012-02-26T12:08:52Z</time>
      </trkpt>
      <trkpt lat="48.65747" lon="-2.33447">
        <ele>107</ele>
        <time>2012-02-26T12:08:58Z</time>
      </trkpt>
      <trkpt lat="48.65761" lon="-2.33454">
        <ele>106</ele>
        <time>2012-02-26T12:09:10Z</time>
      </trkpt>
      <trkpt lat="48.65779" lon="-2.33464">
        <ele>105</ele>
        <time>2012-02-26T12:09:25Z</time>
      </trkpt>
      <trkpt lat="48.65786" lon="-2.33468">
        <ele>105</ele>
        <time>2012-02-26T12:09:30Z</time>
      </trkpt>
      <trkpt lat="48.65793" lon="-2.33472">
        <ele>105</ele>
        <time>2012-02-26T12:09:35Z</time>
      </trkpt>
      <trkpt lat="48.658" lon="-2.33476">
        <ele>105</ele>
        <time>2012-02-26T12:09:40Z</time>
      </trkpt>
      <trkpt lat="48.65806" lon="-2.33479">
        <ele>104</ele>
        <time>2012-02-26T12:09:45Z</time>
      </trkpt>
      <trkpt lat="48.65812" lon="-2.33482">
        <ele>104</ele>
        <time>2012-02-26T12:09:51Z</time>
      </trkpt>
      <trkpt lat="48.65819" lon="-2.33486">
        <ele>104</ele>
        <time>2012-02-26T12:09:55Z</time>
      </trkpt>
      <trkpt lat="48.65826" lon="-2.33487">
        <ele>104</ele>
        <time>2012-02-26T12:10:02Z</time>
      </trkpt>
      <trkpt lat="48.65832" lon="-2.3349">
        <ele>103</ele>
        <time>2012-02-26T12:10:13Z</time>
      </trkpt>
      <trkpt lat="48.65839" lon="-2.33491">
        <ele>102</ele>
        <time>2012-02-26T12:10:19Z</time>
      </trkpt>
      <trkpt lat="48.65846" lon="-2.33494">
        <ele>101</ele>
        <time>2012-02-26T12:10:24Z</time>
      </trkpt>
      <trkpt lat="48.65865" lon="-2.33499">
        <ele>101</ele>
        <time>2012-02-26T12:10:39Z</time>
      </trkpt>
      <trkpt lat="48.65872" lon="-2.33495">
        <ele>100</ele>
        <time>2012-02-26T12:10:46Z</time>
      </trkpt>
      <trkpt lat="48.65876" lon="-2.33488">
        <ele>100</ele>
        <time>2012-02-26T12:10:54Z</time>
      </trkpt>
      <trkpt lat="48.6588" lon="-2.3348">
        <ele>100</ele>
        <time>2012-02-26T12:10:58Z</time>
      </trkpt>
      <trkpt lat="48.65888" lon="-2.33463">
        <ele>100</ele>
        <time>2012-02-26T12:11:11Z</time>
      </trkpt>
      <trkpt lat="48.65892" lon="-2.33455">
        <ele>100</ele>
        <time>2012-02-26T12:11:18Z</time>
      </trkpt>
      <trkpt lat="48.65897" lon="-2.33447">
        <ele>100</ele>
        <time>2012-02-26T12:11:24Z</time>
      </trkpt>
      <trkpt lat="48.65903" lon="-2.33441">
        <ele>99</ele>
        <time>2012-02-26T12:11:30Z</time>
      </trkpt>
      <trkpt lat="48.65909" lon="-2.33435">
        <ele>99</ele>
        <time>2012-02-26T12:11:36Z</time>
      </trkpt>
      <trkpt lat="48.65915" lon="-2.3343">
        <ele>99</ele>
        <time>2012-02-26T12:11:42Z</time>
      </trkpt>
      <trkpt lat="48.65922" lon="-2.33425">
        <ele>99</ele>
        <time>2012-02-26T12:11:48Z</time>
      </trkpt>
      <trkpt lat="48.65928" lon="-2.33421">
        <ele>99</ele>
        <time>2012-02-26T12:11:54Z</time>
      </trkpt>
      <trkpt lat="48.65935" lon="-2.33416">
        <ele>99</ele>
        <time>2012-02-26T12:12:00Z</time>
      </trkpt>
      <trkpt lat="48.65941" lon="-2.33414">
        <ele>99</ele>
        <time>2012-02-26T12:12:05Z</time>
      </trkpt>
      <trkpt lat="48.65969" lon="-2.33404">
        <ele>99</ele>
        <time>2012-02-26T12:12:25Z</time>
      </trkpt>
      <trkpt lat="48.65976" lon="-2.33408">
        <ele>99</ele>
        <time>2012-02-26T12:12:30Z</time>
      </trkpt>
      <trkpt lat="48.65998" lon="-2.33415">
        <ele>100</ele>
        <time>2012-02-26T12:12:43Z</time>
      </trkpt>
      <trkpt lat="48.66011" lon="-2.33415">
        <ele>100</ele>
        <time>2012-02-26T12:12:53Z</time>
      </trkpt>
      <trkpt lat="48.66016" lon="-2.33423">
        <ele>100</ele>
        <time>2012-02-26T12:12:59Z</time>
      </trkpt>
      <trkpt lat="48.66019" lon="-2.33436">
        <ele>100</ele>
        <time>2012-02-26T12:13:03Z</time>
      </trkpt>
      <trkpt lat="48.6602" lon="-2.33446">
        <ele>100</ele>
        <time>2012-02-26T12:13:07Z</time>
      </trkpt>
      <trkpt lat="48.66023" lon="-2.33467">
        <ele>100</ele>
        <time>2012-02-26T12:13:12Z</time>
      </trkpt>
      <trkpt lat="48.66026" lon="-2.33478">
        <ele>100</ele>
        <time>2012-02-26T12:13:16Z</time>
      </trkpt>
      <trkpt lat="48.66029" lon="-2.33488">
        <ele>100</ele>
        <time>2012-02-26T12:13:20Z</time>
      </trkpt>
      <trkpt lat="48.66032" lon="-2.33497">
        <ele>100</ele>
        <time>2012-02-26T12:13:24Z</time>
      </trkpt>
      <trkpt lat="48.66035" lon="-2.33506">
        <ele>100</ele>
        <time>2012-02-26T12:13:28Z</time>
      </trkpt>
      <trkpt lat="48.66043" lon="-2.33524">
        <ele>100</ele>
        <time>2012-02-26T12:13:38Z</time>
      </trkpt>
      <trkpt lat="48.66047" lon="-2.33533">
        <ele>100</ele>
        <time>2012-02-26T12:13:43Z</time>
      </trkpt>
      <trkpt lat="48.66053" lon="-2.3355">
        <ele>100</ele>
        <time>2012-02-26T12:13:53Z</time>
      </trkpt>
      <trkpt lat="48.66056" lon="-2.33559">
        <ele>100</ele>
        <time>2012-02-26T12:13:58Z</time>
      </trkpt>
      <trkpt lat="48.66063" lon="-2.33576">
        <ele>100</ele>
        <time>2012-02-26T12:14:08Z</time>
      </trkpt>
      <trkpt lat="48.66066" lon="-2.33585">
        <ele>100</ele>
        <time>2012-02-26T12:14:13Z</time>
      </trkpt>
      <trkpt lat="48.6607" lon="-2.33595">
        <ele>100</ele>
        <time>2012-02-26T12:14:19Z</time>
      </trkpt>
      <trkpt lat="48.66073" lon="-2.33605">
        <ele>100</ele>
        <time>2012-02-26T12:14:23Z</time>
      </trkpt>
      <trkpt lat="48.66078" lon="-2.33615">
        <ele>100</ele>
        <time>2012-02-26T12:14:28Z</time>
      </trkpt>
      <trkpt lat="48.66083" lon="-2.33623">
        <ele>100</ele>
        <time>2012-02-26T12:14:33Z</time>
      </trkpt>
      <trkpt lat="48.66088" lon="-2.33631">
        <ele>100</ele>
        <time>2012-02-26T12:14:38Z</time>
      </trkpt>
      <trkpt lat="48.66093" lon="-2.33638">
        <ele>100</ele>
        <time>2012-02-26T12:14:43Z</time>
      </trkpt>
      <trkpt lat="48.66098" lon="-2.33645">
        <ele>100</ele>
        <time>2012-02-26T12:14:48Z</time>
      </trkpt>
      <trkpt lat="48.66103" lon="-2.33652">
        <ele>100</ele>
        <time>2012-02-26T12:14:53Z</time>
      </trkpt>
      <trkpt lat="48.66107" lon="-2.33662">
        <ele>100</ele>
        <time>2012-02-26T12:14:59Z</time>
      </trkpt>
      <trkpt lat="48.66111" lon="-2.33671">
        <ele>100</ele>
        <time>2012-02-26T12:15:05Z</time>
      </trkpt>
      <trkpt lat="48.66115" lon="-2.33681">
        <ele>100</ele>
        <time>2012-02-26T12:15:11Z</time>
      </trkpt>
      <trkpt lat="48.66118" lon="-2.3369">
        <ele>100</ele>
        <time>2012-02-26T12:15:17Z</time>
      </trkpt>
      <trkpt lat="48.66119" lon="-2.337">
        <ele>100</ele>
        <time>2012-02-26T12:15:23Z</time>
      </trkpt>
      <trkpt lat="48.66122" lon="-2.33709">
        <ele>100</ele>
        <time>2012-02-26T12:15:27Z</time>
      </trkpt>
      <trkpt lat="48.66126" lon="-2.33718">
        <ele>100</ele>
        <time>2012-02-26T12:15:32Z</time>
      </trkpt>
      <trkpt lat="48.6613" lon="-2.33726">
        <ele>100</ele>
        <time>2012-02-26T12:15:37Z</time>
      </trkpt>
      <trkpt lat="48.66134" lon="-2.33734">
        <ele>100</ele>
        <time>2012-02-26T12:15:44Z</time>
      </trkpt>
      <trkpt lat="48.66139" lon="-2.33743">
        <ele>100</ele>
        <time>2012-02-26T12:15:47Z</time>
      </trkpt>
      <trkpt lat="48.66142" lon="-2.33751">
        <ele>100</ele>
        <time>2012-02-26T12:15:52Z</time>
      </trkpt>
      <trkpt lat="48.66146" lon="-2.33761">
        <ele>100</ele>
        <time>2012-02-26T12:15:58Z</time>
      </trkpt>
      <trkpt lat="48.6615" lon="-2.33768">
        <ele>100</ele>
        <time>2012-02-26T12:16:03Z</time>
      </trkpt>
      <trkpt lat="48.66154" lon="-2.33776">
        <ele>99</ele>
        <time>2012-02-26T12:16:08Z</time>
      </trkpt>
      <trkpt lat="48.66158" lon="-2.33786">
        <ele>99</ele>
        <time>2012-02-26T12:16:14Z</time>
      </trkpt>
      <trkpt lat="48.66162" lon="-2.33795">
        <ele>99</ele>
        <time>2012-02-26T12:16:20Z</time>
      </trkpt>
      <trkpt lat="48.66165" lon="-2.33804">
        <ele>99</ele>
        <time>2012-02-26T12:16:26Z</time>
      </trkpt>
      <trkpt lat="48.66176" lon="-2.3384">
        <ele>99</ele>
        <time>2012-02-26T12:16:45Z</time>
      </trkpt>
      <trkpt lat="48.6618" lon="-2.33848">
        <ele>99</ele>
        <time>2012-02-26T12:16:50Z</time>
      </trkpt>
      <trkpt lat="48.66184" lon="-2.33858">
        <ele>98</ele>
        <time>2012-02-26T12:16:54Z</time>
      </trkpt>
      <trkpt lat="48.66188" lon="-2.33867">
        <ele>99</ele>
        <time>2012-02-26T12:16:59Z</time>
      </trkpt>
      <trkpt lat="48.66192" lon="-2.33875">
        <ele>98</ele>
        <time>2012-02-26T12:17:04Z</time>
      </trkpt>
      <trkpt lat="48.66197" lon="-2.33883">
        <ele>98</ele>
        <time>2012-02-26T12:17:08Z</time>
      </trkpt>
      <trkpt lat="48.66205" lon="-2.339">
        <ele>98</ele>
        <time>2012-02-26T12:17:18Z</time>
      </trkpt>
      <trkpt lat="48.66208" lon="-2.33909">
        <ele>98</ele>
        <time>2012-02-26T12:17:27Z</time>
      </trkpt>
      <trkpt lat="48.66213" lon="-2.33918">
        <ele>98</ele>
        <time>2012-02-26T12:17:32Z</time>
      </trkpt>
      <trkpt lat="48.66222" lon="-2.33934">
        <ele>98</ele>
        <time>2012-02-26T12:17:40Z</time>
      </trkpt>
      <trkpt lat="48.66226" lon="-2.33943">
        <ele>98</ele>
        <time>2012-02-26T12:17:45Z</time>
      </trkpt>
      <trkpt lat="48.66233" lon="-2.33961">
        <ele>98</ele>
        <time>2012-02-26T12:17:55Z</time>
      </trkpt>
      <trkpt lat="48.6624" lon="-2.3398">
        <ele>98</ele>
        <time>2012-02-26T12:18:05Z</time>
      </trkpt>
      <trkpt lat="48.66243" lon="-2.3399">
        <ele>98</ele>
        <time>2012-02-26T12:18:11Z</time>
      </trkpt>
      <trkpt lat="48.66253" lon="-2.34006">
        <ele>97</ele>
        <time>2012-02-26T12:18:21Z</time>
      </trkpt>
      <trkpt lat="48.66257" lon="-2.34014">
        <ele>97</ele>
        <time>2012-02-26T12:18:27Z</time>
      </trkpt>
      <trkpt lat="48.66259" lon="-2.34023">
        <ele>97</ele>
        <time>2012-02-26T12:18:31Z</time>
      </trkpt>
      <trkpt lat="48.66262" lon="-2.34032">
        <ele>97</ele>
        <time>2012-02-26T12:18:36Z</time>
      </trkpt>
      <trkpt lat="48.66265" lon="-2.34042">
        <ele>96</ele>
        <time>2012-02-26T12:18:41Z</time>
      </trkpt>
      <trkpt lat="48.66268" lon="-2.34051">
        <ele>96</ele>
        <time>2012-02-26T12:18:47Z</time>
      </trkpt>
      <trkpt lat="48.66274" lon="-2.34068">
        <ele>96</ele>
        <time>2012-02-26T12:18:56Z</time>
      </trkpt>
      <trkpt lat="48.66279" lon="-2.34076">
        <ele>95</ele>
        <time>2012-02-26T12:19:02Z</time>
      </trkpt>
      <trkpt lat="48.66285" lon="-2.34076">
        <ele>95</ele>
        <time>2012-02-26T12:19:11Z</time>
      </trkpt>
      <trkpt lat="48.66292" lon="-2.34078">
        <ele>95</ele>
        <time>2012-02-26T12:19:17Z</time>
      </trkpt>
      <trkpt lat="48.66299" lon="-2.34081">
        <ele>94</ele>
        <time>2012-02-26T12:19:23Z</time>
      </trkpt>
      <trkpt lat="48.66306" lon="-2.34085">
        <ele>94</ele>
        <time>2012-02-26T12:19:28Z</time>
      </trkpt>
      <trkpt lat="48.66313" lon="-2.34086">
        <ele>94</ele>
        <time>2012-02-26T12:19:33Z</time>
      </trkpt>
      <trkpt lat="48.66319" lon="-2.34088">
        <ele>94</ele>
        <time>2012-02-26T12:19:39Z</time>
      </trkpt>
      <trkpt lat="48.66326" lon="-2.3409">
        <ele>94</ele>
        <time>2012-02-26T12:19:43Z</time>
      </trkpt>
      <trkpt lat="48.66345" lon="-2.34098">
        <ele>94</ele>
        <time>2012-02-26T12:19:59Z</time>
      </trkpt>
      <trkpt lat="48.66352" lon="-2.34103">
        <ele>93</ele>
        <time>2012-02-26T12:20:05Z</time>
      </trkpt>
      <trkpt lat="48.66358" lon="-2.34106">
        <ele>93</ele>
        <time>2012-02-26T12:20:11Z</time>
      </trkpt>
      <trkpt lat="48.66364" lon="-2.34109">
        <ele>93</ele>
        <time>2012-02-26T12:20:15Z</time>
      </trkpt>
      <trkpt lat="48.6637" lon="-2.34114">
        <ele>93</ele>
        <time>2012-02-26T12:20:21Z</time>
      </trkpt>
      <trkpt lat="48.66387" lon="-2.34131">
        <ele>93</ele>
        <time>2012-02-26T12:20:37Z</time>
      </trkpt>
      <trkpt lat="48.66394" lon="-2.34133">
        <ele>93</ele>
        <time>2012-02-26T12:20:43Z</time>
      </trkpt>
      <trkpt lat="48.66398" lon="-2.34141">
        <ele>93</ele>
        <time>2012-02-26T12:20:48Z</time>
      </trkpt>
      <trkpt lat="48.66403" lon="-2.34147">
        <ele>93</ele>
        <time>2012-02-26T12:20:53Z</time>
      </trkpt>
      <trkpt lat="48.66407" lon="-2.34155">
        <ele>93</ele>
        <time>2012-02-26T12:20:58Z</time>
      </trkpt>
      <trkpt lat="48.66411" lon="-2.34163">
        <ele>93</ele>
        <time>2012-02-26T12:21:03Z</time>
      </trkpt>
      <trkpt lat="48.66412" lon="-2.34173">
        <ele>93</ele>
        <time>2012-02-26T12:21:08Z</time>
      </trkpt>
      <trkpt lat="48.66412" lon="-2.34184">
        <ele>94</ele>
        <time>2012-02-26T12:21:14Z</time>
      </trkpt>
      <trkpt lat="48.66412" lon="-2.34194">
        <ele>94</ele>
        <time>2012-02-26T12:21:20Z</time>
      </trkpt>
      <trkpt lat="48.66412" lon="-2.34203">
        <ele>94</ele>
        <time>2012-02-26T12:21:26Z</time>
      </trkpt>
      <trkpt lat="48.66413" lon="-2.34213">
        <ele>94</ele>
        <time>2012-02-26T12:21:33Z</time>
      </trkpt>
      <trkpt lat="48.66413" lon="-2.34223">
        <ele>94</ele>
        <time>2012-02-26T12:21:44Z</time>
      </trkpt>
      <trkpt lat="48.66415" lon="-2.34234">
        <ele>94</ele>
        <time>2012-02-26T12:21:53Z</time>
      </trkpt>
      <trkpt lat="48.66416" lon="-2.34243">
        <ele>94</ele>
        <time>2012-02-26T12:22:00Z</time>
      </trkpt>
      <trkpt lat="48.66419" lon="-2.34253">
        <ele>94</ele>
        <time>2012-02-26T12:22:08Z</time>
      </trkpt>
      <trkpt lat="48.66419" lon="-2.34263">
        <ele>93</ele>
        <time>2012-02-26T12:22:15Z</time>
      </trkpt>
      <trkpt lat="48.66416" lon="-2.34273">
        <ele>93</ele>
        <time>2012-02-26T12:22:21Z</time>
      </trkpt>
      <trkpt lat="48.66414" lon="-2.34282">
        <ele>93</ele>
        <time>2012-02-26T12:22:27Z</time>
      </trkpt>
      <trkpt lat="48.66432" lon="-2.34288">
        <ele>93</ele>
        <time>2012-02-26T12:23:46Z</time>
      </trkpt>
      <trkpt lat="48.66444" lon="-2.34281">
        <ele>93</ele>
        <time>2012-02-26T12:23:56Z</time>
      </trkpt>
      <trkpt lat="48.66466" lon="-2.34278">
        <ele>93</ele>
        <time>2012-02-26T12:24:14Z</time>
      </trkpt>
      <trkpt lat="48.66473" lon="-2.34279">
        <ele>93</ele>
        <time>2012-02-26T12:24:20Z</time>
      </trkpt>
      <trkpt lat="48.66479" lon="-2.34279">
        <ele>93</ele>
        <time>2012-02-26T12:24:25Z</time>
      </trkpt>
      <trkpt lat="48.66485" lon="-2.34285">
        <ele>93</ele>
        <time>2012-02-26T12:24:31Z</time>
      </trkpt>
      <trkpt lat="48.6649" lon="-2.34291">
        <ele>93</ele>
        <time>2012-02-26T12:24:36Z</time>
      </trkpt>
      <trkpt lat="48.66504" lon="-2.343">
        <ele>93</ele>
        <time>2012-02-26T12:26:20Z</time>
      </trkpt>
      <trkpt lat="48.66509" lon="-2.34292">
        <ele>93</ele>
        <time>2012-02-26T12:26:28Z</time>
      </trkpt>
      <trkpt lat="48.66514" lon="-2.34285">
        <ele>92</ele>
        <time>2012-02-26T12:26:32Z</time>
      </trkpt>
      <trkpt lat="48.6652" lon="-2.34279">
        <ele>92</ele>
        <time>2012-02-26T12:26:36Z</time>
      </trkpt>
      <trkpt lat="48.66539" lon="-2.34271">
        <ele>92</ele>
        <time>2012-02-26T12:26:51Z</time>
      </trkpt>
      <trkpt lat="48.66547" lon="-2.34272">
        <ele>92</ele>
        <time>2012-02-26T12:26:55Z</time>
      </trkpt>
      <trkpt lat="48.66553" lon="-2.34274">
        <ele>92</ele>
        <time>2012-02-26T12:26:59Z</time>
      </trkpt>
      <trkpt lat="48.6656" lon="-2.34275">
        <ele>92</ele>
        <time>2012-02-26T12:27:03Z</time>
      </trkpt>
      <trkpt lat="48.66567" lon="-2.34278">
        <ele>92</ele>
        <time>2012-02-26T12:27:08Z</time>
      </trkpt>
      <trkpt lat="48.66574" lon="-2.34277">
        <ele>92</ele>
        <time>2012-02-26T12:27:13Z</time>
      </trkpt>
      <trkpt lat="48.66581" lon="-2.34274">
        <ele>92</ele>
        <time>2012-02-26T12:27:18Z</time>
      </trkpt>
      <trkpt lat="48.66573" lon="-2.34276">
        <ele>91</ele>
        <time>2012-02-26T12:27:32Z</time>
      </trkpt>
      <trkpt lat="48.6658" lon="-2.34274">
        <ele>90</ele>
        <time>2012-02-26T12:27:48Z</time>
      </trkpt>
      <trkpt lat="48.66585" lon="-2.34267">
        <ele>90</ele>
        <time>2012-02-26T12:27:53Z</time>
      </trkpt>
      <trkpt lat="48.6659" lon="-2.34259">
        <ele>89</ele>
        <time>2012-02-26T12:27:59Z</time>
      </trkpt>
      <trkpt lat="48.66595" lon="-2.34252">
        <ele>89</ele>
        <time>2012-02-26T12:28:05Z</time>
      </trkpt>
      <trkpt lat="48.66602" lon="-2.34247">
        <ele>89</ele>
        <time>2012-02-26T12:28:11Z</time>
      </trkpt>
      <trkpt lat="48.66607" lon="-2.34242">
        <ele>89</ele>
        <time>2012-02-26T12:28:16Z</time>
      </trkpt>
      <trkpt lat="48.66626" lon="-2.3423">
        <ele>88</ele>
        <time>2012-02-26T12:28:32Z</time>
      </trkpt>
      <trkpt lat="48.66646" lon="-2.34219">
        <ele>88</ele>
        <time>2012-02-26T12:28:50Z</time>
      </trkpt>
      <trkpt lat="48.66666" lon="-2.34217">
        <ele>88</ele>
        <time>2012-02-26T12:29:09Z</time>
      </trkpt>
      <trkpt lat="48.66673" lon="-2.34217">
        <ele>88</ele>
        <time>2012-02-26T12:29:19Z</time>
      </trkpt>
      <trkpt lat="48.66688" lon="-2.34217">
        <ele>88</ele>
        <time>2012-02-26T12:29:28Z</time>
      </trkpt>
      <trkpt lat="48.66694" lon="-2.34214">
        <ele>87</ele>
        <time>2012-02-26T12:29:33Z</time>
      </trkpt>
      <trkpt lat="48.667" lon="-2.34212">
        <ele>88</ele>
        <time>2012-02-26T12:30:00Z</time>
      </trkpt>
      <trkpt lat="48.66705" lon="-2.34204">
        <ele>88</ele>
        <time>2012-02-26T12:30:08Z</time>
      </trkpt>
      <trkpt lat="48.66709" lon="-2.34197">
        <ele>89</ele>
        <time>2012-02-26T12:30:16Z</time>
      </trkpt>
      <trkpt lat="48.66713" lon="-2.34189">
        <ele>89</ele>
        <time>2012-02-26T12:30:23Z</time>
      </trkpt>
      <trkpt lat="48.66714" lon="-2.34178">
        <ele>89</ele>
        <time>2012-02-26T12:30:30Z</time>
      </trkpt>
      <trkpt lat="48.66715" lon="-2.34167">
        <ele>90</ele>
        <time>2012-02-26T12:30:36Z</time>
      </trkpt>
      <trkpt lat="48.66716" lon="-2.34157">
        <ele>90</ele>
        <time>2012-02-26T12:30:42Z</time>
      </trkpt>
      <trkpt lat="48.66716" lon="-2.34146">
        <ele>90</ele>
        <time>2012-02-26T12:30:46Z</time>
      </trkpt>
      <trkpt lat="48.66715" lon="-2.34136">
        <ele>90</ele>
        <time>2012-02-26T12:30:52Z</time>
      </trkpt>
      <trkpt lat="48.66712" lon="-2.34125">
        <ele>90</ele>
        <time>2012-02-26T12:31:00Z</time>
      </trkpt>
      <trkpt lat="48.66708" lon="-2.34116">
        <ele>90</ele>
        <time>2012-02-26T12:31:04Z</time>
      </trkpt>
      <trkpt lat="48.66701" lon="-2.34097">
        <ele>90</ele>
        <time>2012-02-26T12:31:16Z</time>
      </trkpt>
      <trkpt lat="48.66701" lon="-2.34087">
        <ele>90</ele>
        <time>2012-02-26T12:31:22Z</time>
      </trkpt>
      <trkpt lat="48.66711" lon="-2.34074">
        <ele>90</ele>
        <time>2012-02-26T12:31:33Z</time>
      </trkpt>
      <trkpt lat="48.66717" lon="-2.34069">
        <ele>90</ele>
        <time>2012-02-26T12:31:38Z</time>
      </trkpt>
      <trkpt lat="48.66723" lon="-2.34065">
        <ele>90</ele>
        <time>2012-02-26T12:31:43Z</time>
      </trkpt>
      <trkpt lat="48.6673" lon="-2.34061">
        <ele>90</ele>
        <time>2012-02-26T12:31:48Z</time>
      </trkpt>
      <trkpt lat="48.66737" lon="-2.34058">
        <ele>91</ele>
        <time>2012-02-26T12:31:54Z</time>
      </trkpt>
      <trkpt lat="48.66744" lon="-2.34054">
        <ele>91</ele>
        <time>2012-02-26T12:31:58Z</time>
      </trkpt>
      <trkpt lat="48.66758" lon="-2.3405">
        <ele>91</ele>
        <time>2012-02-26T12:32:08Z</time>
      </trkpt>
      <trkpt lat="48.66764" lon="-2.34047">
        <ele>91</ele>
        <time>2012-02-26T12:32:15Z</time>
      </trkpt>
      <trkpt lat="48.66771" lon="-2.34044">
        <ele>91</ele>
        <time>2012-02-26T12:32:19Z</time>
      </trkpt>
      <trkpt lat="48.66792" lon="-2.34041">
        <ele>91</ele>
        <time>2012-02-26T12:32:37Z</time>
      </trkpt>
      <trkpt lat="48.66798" lon="-2.34039">
        <ele>91</ele>
        <time>2012-02-26T12:32:43Z</time>
      </trkpt>
      <trkpt lat="48.66805" lon="-2.34036">
        <ele>91</ele>
        <time>2012-02-26T12:32:49Z</time>
      </trkpt>
      <trkpt lat="48.66811" lon="-2.34033">
        <ele>91</ele>
        <time>2012-02-26T12:32:55Z</time>
      </trkpt>
      <trkpt lat="48.66816" lon="-2.34029">
        <ele>91</ele>
        <time>2012-02-26T12:33:08Z</time>
      </trkpt>
      <trkpt lat="48.66817" lon="-2.34018">
        <ele>90</ele>
        <time>2012-02-26T12:33:16Z</time>
      </trkpt>
      <trkpt lat="48.66818" lon="-2.33998">
        <ele>90</ele>
        <time>2012-02-26T12:33:31Z</time>
      </trkpt>
      <trkpt lat="48.66816" lon="-2.33989">
        <ele>90</ele>
        <time>2012-02-26T12:33:37Z</time>
      </trkpt>
      <trkpt lat="48.66815" lon="-2.33979">
        <ele>90</ele>
        <time>2012-02-26T12:33:43Z</time>
      </trkpt>
      <trkpt lat="48.66814" lon="-2.33968">
        <ele>90</ele>
        <time>2012-02-26T12:33:49Z</time>
      </trkpt>
      <trkpt lat="48.6682" lon="-2.33938">
        <ele>90</ele>
        <time>2012-02-26T12:34:07Z</time>
      </trkpt>
      <trkpt lat="48.66823" lon="-2.33929">
        <ele>90</ele>
        <time>2012-02-26T12:34:14Z</time>
      </trkpt>
      <trkpt lat="48.66825" lon="-2.33919">
        <ele>90</ele>
        <time>2012-02-26T12:34:21Z</time>
      </trkpt>
      <trkpt lat="48.66824" lon="-2.33908">
        <ele>90</ele>
        <time>2012-02-26T12:34:27Z</time>
      </trkpt>
      <trkpt lat="48.66823" lon="-2.33898">
        <ele>90</ele>
        <time>2012-02-26T12:34:33Z</time>
      </trkpt>
      <trkpt lat="48.66818" lon="-2.33893">
        <ele>89</ele>
        <time>2012-02-26T12:34:41Z</time>
      </trkpt>
      <trkpt lat="48.6681" lon="-2.33895">
        <ele>89</ele>
        <time>2012-02-26T12:34:47Z</time>
      </trkpt>
      <trkpt lat="48.66804" lon="-2.33898">
        <ele>89</ele>
        <time>2012-02-26T12:34:52Z</time>
      </trkpt>
      <trkpt lat="48.66797" lon="-2.33901">
        <ele>89</ele>
        <time>2012-02-26T12:34:58Z</time>
      </trkpt>
      <trkpt lat="48.66776" lon="-2.339">
        <ele>89</ele>
        <time>2012-02-26T12:35:15Z</time>
      </trkpt>
      <trkpt lat="48.6677" lon="-2.33898">
        <ele>89</ele>
        <time>2012-02-26T12:35:20Z</time>
      </trkpt>
      <trkpt lat="48.66763" lon="-2.33897">
        <ele>89</ele>
        <time>2012-02-26T12:35:26Z</time>
      </trkpt>
      <trkpt lat="48.66757" lon="-2.33894">
        <ele>89</ele>
        <time>2012-02-26T12:35:30Z</time>
      </trkpt>
      <trkpt lat="48.6675" lon="-2.33893">
        <ele>89</ele>
        <time>2012-02-26T12:35:35Z</time>
      </trkpt>
      <trkpt lat="48.66744" lon="-2.33892">
        <ele>89</ele>
        <time>2012-02-26T12:35:40Z</time>
      </trkpt>
      <trkpt lat="48.66738" lon="-2.3389">
        <ele>89</ele>
        <time>2012-02-26T12:35:46Z</time>
      </trkpt>
      <trkpt lat="48.66732" lon="-2.33888">
        <ele>89</ele>
        <time>2012-02-26T12:35:51Z</time>
      </trkpt>
      <trkpt lat="48.66725" lon="-2.33884">
        <ele>89</ele>
        <time>2012-02-26T12:35:56Z</time>
      </trkpt>
      <trkpt lat="48.6672" lon="-2.33877">
        <ele>89</ele>
        <time>2012-02-26T12:36:04Z</time>
      </trkpt>
      <trkpt lat="48.66716" lon="-2.33869">
        <ele>89</ele>
        <time>2012-02-26T12:36:09Z</time>
      </trkpt>
      <trkpt lat="48.66713" lon="-2.33859">
        <ele>89</ele>
        <time>2012-02-26T12:36:15Z</time>
      </trkpt>
      <trkpt lat="48.66706" lon="-2.3384">
        <ele>89</ele>
        <time>2012-02-26T12:36:27Z</time>
      </trkpt>
      <trkpt lat="48.66706" lon="-2.3383">
        <ele>89</ele>
        <time>2012-02-26T12:36:31Z</time>
      </trkpt>
      <trkpt lat="48.66707" lon="-2.33819">
        <ele>89</ele>
        <time>2012-02-26T12:36:36Z</time>
      </trkpt>
      <trkpt lat="48.66709" lon="-2.3381">
        <ele>88</ele>
        <time>2012-02-26T12:36:41Z</time>
      </trkpt>
      <trkpt lat="48.66711" lon="-2.33799">
        <ele>88</ele>
        <time>2012-02-26T12:36:47Z</time>
      </trkpt>
      <trkpt lat="48.66713" lon="-2.33789">
        <ele>88</ele>
        <time>2012-02-26T12:36:53Z</time>
      </trkpt>
      <trkpt lat="48.66717" lon="-2.33779">
        <ele>88</ele>
        <time>2012-02-26T12:36:59Z</time>
      </trkpt>
      <trkpt lat="48.66719" lon="-2.33769">
        <ele>88</ele>
        <time>2012-02-26T12:37:05Z</time>
      </trkpt>
      <trkpt lat="48.66722" lon="-2.33758">
        <ele>88</ele>
        <time>2012-02-26T12:37:11Z</time>
      </trkpt>
      <trkpt lat="48.66725" lon="-2.3375">
        <ele>88</ele>
        <time>2012-02-26T12:37:16Z</time>
      </trkpt>
      <trkpt lat="48.66731" lon="-2.33743">
        <ele>88</ele>
        <time>2012-02-26T12:37:21Z</time>
      </trkpt>
      <trkpt lat="48.66738" lon="-2.33739">
        <ele>88</ele>
        <time>2012-02-26T12:37:26Z</time>
      </trkpt>
      <trkpt lat="48.66745" lon="-2.33735">
        <ele>88</ele>
        <time>2012-02-26T12:37:31Z</time>
      </trkpt>
      <trkpt lat="48.66753" lon="-2.33732">
        <ele>88</ele>
        <time>2012-02-26T12:37:36Z</time>
      </trkpt>
      <trkpt lat="48.6676" lon="-2.3373">
        <ele>88</ele>
        <time>2012-02-26T12:37:41Z</time>
      </trkpt>
      <trkpt lat="48.66767" lon="-2.3373">
        <ele>88</ele>
        <time>2012-02-26T12:37:46Z</time>
      </trkpt>
      <trkpt lat="48.66781" lon="-2.33734">
        <ele>87</ele>
        <time>2012-02-26T12:37:55Z</time>
      </trkpt>
      <trkpt lat="48.66792" lon="-2.3373">
        <ele>87</ele>
        <time>2012-02-26T12:38:21Z</time>
      </trkpt>
      <trkpt lat="48.66795" lon="-2.33721">
        <ele>87</ele>
        <time>2012-02-26T12:38:28Z</time>
      </trkpt>
      <trkpt lat="48.66806" lon="-2.33696">
        <ele>87</ele>
        <time>2012-02-26T12:38:47Z</time>
      </trkpt>
      <trkpt lat="48.66811" lon="-2.33688">
        <ele>87</ele>
        <time>2012-02-26T12:38:54Z</time>
      </trkpt>
      <trkpt lat="48.66814" lon="-2.33679">
        <ele>88</ele>
        <time>2012-02-26T12:39:01Z</time>
      </trkpt>
      <trkpt lat="48.66819" lon="-2.33671">
        <ele>88</ele>
        <time>2012-02-26T12:39:08Z</time>
      </trkpt>
      <trkpt lat="48.6683" lon="-2.33647">
        <ele>88</ele>
        <time>2012-02-26T12:39:26Z</time>
      </trkpt>
      <trkpt lat="48.66841" lon="-2.3362">
        <ele>88</ele>
        <time>2012-02-26T12:39:47Z</time>
      </trkpt>
      <trkpt lat="48.66848" lon="-2.33615">
        <ele>88</ele>
        <time>2012-02-26T12:39:53Z</time>
      </trkpt>
      <trkpt lat="48.66854" lon="-2.3361">
        <ele>89</ele>
        <time>2012-02-26T12:39:59Z</time>
      </trkpt>
      <trkpt lat="48.66859" lon="-2.33603">
        <ele>89</ele>
        <time>2012-02-26T12:40:05Z</time>
      </trkpt>
      <trkpt lat="48.66862" lon="-2.33595">
        <ele>89</ele>
        <time>2012-02-26T12:40:11Z</time>
      </trkpt>
      <trkpt lat="48.66866" lon="-2.33585">
        <ele>89</ele>
        <time>2012-02-26T12:40:18Z</time>
      </trkpt>
      <trkpt lat="48.6687" lon="-2.33578">
        <ele>89</ele>
        <time>2012-02-26T12:40:24Z</time>
      </trkpt>
      <trkpt lat="48.66873" lon="-2.33569">
        <ele>89</ele>
        <time>2012-02-26T12:40:30Z</time>
      </trkpt>
      <trkpt lat="48.66882" lon="-2.33554">
        <ele>90</ele>
        <time>2012-02-26T12:40:42Z</time>
      </trkpt>
      <trkpt lat="48.66889" lon="-2.33551">
        <ele>90</ele>
        <time>2012-02-26T12:40:49Z</time>
      </trkpt>
      <trkpt lat="48.66896" lon="-2.33553">
        <ele>90</ele>
        <time>2012-02-26T12:40:56Z</time>
      </trkpt>
      <trkpt lat="48.66902" lon="-2.33556">
        <ele>90</ele>
        <time>2012-02-26T12:41:00Z</time>
      </trkpt>
      <trkpt lat="48.66923" lon="-2.33551">
        <ele>90</ele>
        <time>2012-02-26T12:41:16Z</time>
      </trkpt>
      <trkpt lat="48.66928" lon="-2.33544">
        <ele>90</ele>
        <time>2012-02-26T12:41:22Z</time>
      </trkpt>
      <trkpt lat="48.66944" lon="-2.33524">
        <ele>89</ele>
        <time>2012-02-26T12:41:43Z</time>
      </trkpt>
      <trkpt lat="48.6695" lon="-2.3352">
        <ele>89</ele>
        <time>2012-02-26T12:41:48Z</time>
      </trkpt>
      <trkpt lat="48.66955" lon="-2.33515">
        <ele>89</ele>
        <time>2012-02-26T12:41:53Z</time>
      </trkpt>
      <trkpt lat="48.6696" lon="-2.33507">
        <ele>88</ele>
        <time>2012-02-26T12:42:07Z</time>
      </trkpt>
      <trkpt lat="48.66965" lon="-2.33501">
        <ele>88</ele>
        <time>2012-02-26T12:42:11Z</time>
      </trkpt>
      <trkpt lat="48.66979" lon="-2.33492">
        <ele>88</ele>
        <time>2012-02-26T12:42:21Z</time>
      </trkpt>
      <trkpt lat="48.66984" lon="-2.33488">
        <ele>88</ele>
        <time>2012-02-26T12:42:26Z</time>
      </trkpt>
      <trkpt lat="48.66988" lon="-2.33468">
        <ele>88</ele>
        <time>2012-02-26T12:42:36Z</time>
      </trkpt>
      <trkpt lat="48.66987" lon="-2.33458">
        <ele>88</ele>
        <time>2012-02-26T12:42:42Z</time>
      </trkpt>
      <trkpt lat="48.66987" lon="-2.33447">
        <ele>88</ele>
        <time>2012-02-26T12:42:48Z</time>
      </trkpt>
      <trkpt lat="48.66987" lon="-2.33436">
        <ele>88</ele>
        <time>2012-02-26T12:42:54Z</time>
      </trkpt>
      <trkpt lat="48.66988" lon="-2.33426">
        <ele>89</ele>
        <time>2012-02-26T12:42:59Z</time>
      </trkpt>
      <trkpt lat="48.66988" lon="-2.33416">
        <ele>89</ele>
        <time>2012-02-26T12:43:04Z</time>
      </trkpt>
      <trkpt lat="48.66991" lon="-2.33407">
        <ele>89</ele>
        <time>2012-02-26T12:43:22Z</time>
      </trkpt>
      <trkpt lat="48.66998" lon="-2.33406">
        <ele>90</ele>
        <time>2012-02-26T12:43:28Z</time>
      </trkpt>
      <trkpt lat="48.67013" lon="-2.33423">
        <ele>90</ele>
        <time>2012-02-26T12:43:47Z</time>
      </trkpt>
      <trkpt lat="48.67019" lon="-2.33424">
        <ele>89</ele>
        <time>2012-02-26T12:45:00Z</time>
      </trkpt>
      <trkpt lat="48.67032" lon="-2.3343">
        <ele>89</ele>
        <time>2012-02-26T12:45:19Z</time>
      </trkpt>
      <trkpt lat="48.67045" lon="-2.33434">
        <ele>89</ele>
        <time>2012-02-26T12:45:30Z</time>
      </trkpt>
      <trkpt lat="48.67035" lon="-2.33438">
        <ele>88</ele>
        <time>2012-02-26T12:48:21Z</time>
      </trkpt>
      <trkpt lat="48.67016" lon="-2.33428">
        <ele>89</ele>
        <time>2012-02-26T12:48:49Z</time>
      </trkpt>
      <trkpt lat="48.67012" lon="-2.33421">
        <ele>89</ele>
        <time>2012-02-26T12:48:57Z</time>
      </trkpt>
      <trkpt lat="48.67006" lon="-2.33414">
        <ele>89</ele>
        <time>2012-02-26T12:49:04Z</time>
      </trkpt>
      <trkpt lat="48.67" lon="-2.33409">
        <ele>89</ele>
        <time>2012-02-26T12:49:11Z</time>
      </trkpt>
      <trkpt lat="48.66995" lon="-2.33402">
        <ele>89</ele>
        <time>2012-02-26T12:49:17Z</time>
      </trkpt>
      <trkpt lat="48.6699" lon="-2.33382">
        <ele>89</ele>
        <time>2012-02-26T12:49:27Z</time>
      </trkpt>
      <trkpt lat="48.66987" lon="-2.33362">
        <ele>90</ele>
        <time>2012-02-26T12:49:37Z</time>
      </trkpt>
      <trkpt lat="48.66987" lon="-2.33353">
        <ele>91</ele>
        <time>2012-02-26T12:49:45Z</time>
      </trkpt>
      <trkpt lat="48.6699" lon="-2.33343">
        <ele>91</ele>
        <time>2012-02-26T12:49:50Z</time>
      </trkpt>
      <trkpt lat="48.66992" lon="-2.33334">
        <ele>91</ele>
        <time>2012-02-26T12:49:54Z</time>
      </trkpt>
      <trkpt lat="48.66991" lon="-2.33323">
        <ele>92</ele>
        <time>2012-02-26T12:50:01Z</time>
      </trkpt>
      <trkpt lat="48.6699" lon="-2.33313">
        <ele>92</ele>
        <time>2012-02-26T12:50:20Z</time>
      </trkpt>
      <trkpt lat="48.66987" lon="-2.33304">
        <ele>93</ele>
        <time>2012-02-26T12:52:24Z</time>
      </trkpt>
      <trkpt lat="48.66983" lon="-2.33295">
        <ele>93</ele>
        <time>2012-02-26T12:52:43Z</time>
      </trkpt>
      <trkpt lat="48.66979" lon="-2.33287">
        <ele>93</ele>
        <time>2012-02-26T12:52:48Z</time>
      </trkpt>
      <trkpt lat="48.66977" lon="-2.33277">
        <ele>93</ele>
        <time>2012-02-26T12:52:54Z</time>
      </trkpt>
      <trkpt lat="48.66977" lon="-2.33265">
        <ele>93</ele>
        <time>2012-02-26T12:52:59Z</time>
      </trkpt>
      <trkpt lat="48.66977" lon="-2.33255">
        <ele>93</ele>
        <time>2012-02-26T12:53:04Z</time>
      </trkpt>
      <trkpt lat="48.66978" lon="-2.33244">
        <ele>93</ele>
        <time>2012-02-26T12:53:09Z</time>
      </trkpt>
      <trkpt lat="48.6698" lon="-2.33235">
        <ele>94</ele>
        <time>2012-02-26T12:53:15Z</time>
      </trkpt>
      <trkpt lat="48.66981" lon="-2.33225">
        <ele>94</ele>
        <time>2012-02-26T12:53:20Z</time>
      </trkpt>
      <trkpt lat="48.66982" lon="-2.33216">
        <ele>94</ele>
        <time>2012-02-26T12:53:25Z</time>
      </trkpt>
      <trkpt lat="48.66982" lon="-2.33206">
        <ele>94</ele>
        <time>2012-02-26T12:53:30Z</time>
      </trkpt>
      <trkpt lat="48.66984" lon="-2.33195">
        <ele>94</ele>
        <time>2012-02-26T12:53:35Z</time>
      </trkpt>
      <trkpt lat="48.66986" lon="-2.33186">
        <ele>95</ele>
        <time>2012-02-26T12:53:40Z</time>
      </trkpt>
      <trkpt lat="48.66988" lon="-2.33176">
        <ele>95</ele>
        <time>2012-02-26T12:53:45Z</time>
      </trkpt>
      <trkpt lat="48.66994" lon="-2.33157">
        <ele>95</ele>
        <time>2012-02-26T12:53:55Z</time>
      </trkpt>
      <trkpt lat="48.67" lon="-2.3315">
        <ele>95</ele>
        <time>2012-02-26T12:54:01Z</time>
      </trkpt>
      <trkpt lat="48.67006" lon="-2.33143">
        <ele>95</ele>
        <time>2012-02-26T12:54:07Z</time>
      </trkpt>
      <trkpt lat="48.67012" lon="-2.33139">
        <ele>95</ele>
        <time>2012-02-26T12:54:16Z</time>
      </trkpt>
      <trkpt lat="48.67027" lon="-2.33118">
        <ele>94</ele>
        <time>2012-02-26T12:54:33Z</time>
      </trkpt>
      <trkpt lat="48.6703" lon="-2.33109">
        <ele>94</ele>
        <time>2012-02-26T12:54:38Z</time>
      </trkpt>
      <trkpt lat="48.67034" lon="-2.331">
        <ele>94</ele>
        <time>2012-02-26T12:54:43Z</time>
      </trkpt>
      <trkpt lat="48.67038" lon="-2.33092">
        <ele>94</ele>
        <time>2012-02-26T12:54:48Z</time>
      </trkpt>
      <trkpt lat="48.67041" lon="-2.33083">
        <ele>94</ele>
        <time>2012-02-26T12:54:52Z</time>
      </trkpt>
      <trkpt lat="48.67051" lon="-2.33071">
        <ele>95</ele>
        <time>2012-02-26T12:55:05Z</time>
      </trkpt>
      <trkpt lat="48.67049" lon="-2.33082">
        <ele>96</ele>
        <time>2012-02-26T12:55:17Z</time>
      </trkpt>
      <trkpt lat="48.67056" lon="-2.33084">
        <ele>96</ele>
        <time>2012-02-26T12:55:25Z</time>
      </trkpt>
      <trkpt lat="48.67063" lon="-2.33081">
        <ele>96</ele>
        <time>2012-02-26T12:55:31Z</time>
      </trkpt>
      <trkpt lat="48.6707" lon="-2.33078">
        <ele>97</ele>
        <time>2012-02-26T12:55:36Z</time>
      </trkpt>
      <trkpt lat="48.67076" lon="-2.33076">
        <ele>97</ele>
        <time>2012-02-26T12:55:41Z</time>
      </trkpt>
      <trkpt lat="48.67084" lon="-2.33076">
        <ele>97</ele>
        <time>2012-02-26T12:55:46Z</time>
      </trkpt>
      <trkpt lat="48.67091" lon="-2.33077">
        <ele>97</ele>
        <time>2012-02-26T12:55:51Z</time>
      </trkpt>
      <trkpt lat="48.67098" lon="-2.33076">
        <ele>98</ele>
        <time>2012-02-26T12:55:56Z</time>
      </trkpt>
      <trkpt lat="48.67104" lon="-2.33073">
        <ele>98</ele>
        <time>2012-02-26T12:56:00Z</time>
      </trkpt>
      <trkpt lat="48.67111" lon="-2.33069">
        <ele>98</ele>
        <time>2012-02-26T12:56:04Z</time>
      </trkpt>
      <trkpt lat="48.67116" lon="-2.33065">
        <ele>98</ele>
        <time>2012-02-26T12:56:10Z</time>
      </trkpt>
      <trkpt lat="48.67122" lon="-2.33059">
        <ele>98</ele>
        <time>2012-02-26T12:56:13Z</time>
      </trkpt>
      <trkpt lat="48.67125" lon="-2.33031">
        <ele>98</ele>
        <time>2012-02-26T12:56:32Z</time>
      </trkpt>
      <trkpt lat="48.67132" lon="-2.33014">
        <ele>98</ele>
        <time>2012-02-26T12:56:45Z</time>
      </trkpt>
      <trkpt lat="48.67135" lon="-2.33003">
        <ele>97</ele>
        <time>2012-02-26T12:56:50Z</time>
      </trkpt>
      <trkpt lat="48.67137" lon="-2.32994">
        <ele>97</ele>
        <time>2012-02-26T12:56:53Z</time>
      </trkpt>
      <trkpt lat="48.6714" lon="-2.32983">
        <ele>97</ele>
        <time>2012-02-26T12:56:59Z</time>
      </trkpt>
      <trkpt lat="48.67143" lon="-2.32973">
        <ele>97</ele>
        <time>2012-02-26T12:57:03Z</time>
      </trkpt>
      <trkpt lat="48.67146" lon="-2.32964">
        <ele>97</ele>
        <time>2012-02-26T12:57:10Z</time>
      </trkpt>
      <trkpt lat="48.67149" lon="-2.32955">
        <ele>97</ele>
        <time>2012-02-26T12:57:15Z</time>
      </trkpt>
      <trkpt lat="48.67153" lon="-2.32947">
        <ele>97</ele>
        <time>2012-02-26T12:57:20Z</time>
      </trkpt>
      <trkpt lat="48.67156" lon="-2.32938">
        <ele>97</ele>
        <time>2012-02-26T12:57:25Z</time>
      </trkpt>
      <trkpt lat="48.67159" lon="-2.3293">
        <ele>97</ele>
        <time>2012-02-26T12:57:30Z</time>
      </trkpt>
      <trkpt lat="48.67163" lon="-2.32922">
        <ele>97</ele>
        <time>2012-02-26T12:57:35Z</time>
      </trkpt>
      <trkpt lat="48.67167" lon="-2.32914">
        <ele>97</ele>
        <time>2012-02-26T12:57:40Z</time>
      </trkpt>
      <trkpt lat="48.67172" lon="-2.32907">
        <ele>97</ele>
        <time>2012-02-26T12:57:45Z</time>
      </trkpt>
      <trkpt lat="48.67177" lon="-2.329">
        <ele>98</ele>
        <time>2012-02-26T12:57:50Z</time>
      </trkpt>
      <trkpt lat="48.67183" lon="-2.32893">
        <ele>98</ele>
        <time>2012-02-26T12:57:55Z</time>
      </trkpt>
      <trkpt lat="48.67187" lon="-2.32886">
        <ele>98</ele>
        <time>2012-02-26T12:58:00Z</time>
      </trkpt>
      <trkpt lat="48.67191" lon="-2.32878">
        <ele>98</ele>
        <time>2012-02-26T12:58:05Z</time>
      </trkpt>
      <trkpt lat="48.67196" lon="-2.32871">
        <ele>98</ele>
        <time>2012-02-26T12:58:10Z</time>
      </trkpt>
      <trkpt lat="48.67201" lon="-2.32864">
        <ele>98</ele>
        <time>2012-02-26T12:58:15Z</time>
      </trkpt>
      <trkpt lat="48.67205" lon="-2.32858">
        <ele>98</ele>
        <time>2012-02-26T12:58:20Z</time>
      </trkpt>
      <trkpt lat="48.6721" lon="-2.3285">
        <ele>98</ele>
        <time>2012-02-26T12:58:25Z</time>
      </trkpt>
      <trkpt lat="48.67214" lon="-2.32842">
        <ele>98</ele>
        <time>2012-02-26T12:58:30Z</time>
      </trkpt>
      <trkpt lat="48.67219" lon="-2.32834">
        <ele>98</ele>
        <time>2012-02-26T12:58:34Z</time>
      </trkpt>
      <trkpt lat="48.67224" lon="-2.32828">
        <ele>98</ele>
        <time>2012-02-26T12:58:39Z</time>
      </trkpt>
      <trkpt lat="48.67229" lon="-2.3282">
        <ele>99</ele>
        <time>2012-02-26T12:58:45Z</time>
      </trkpt>
      <trkpt lat="48.67232" lon="-2.32811">
        <ele>99</ele>
        <time>2012-02-26T12:58:50Z</time>
      </trkpt>
      <trkpt lat="48.67235" lon="-2.32801">
        <ele>99</ele>
        <time>2012-02-26T12:58:55Z</time>
      </trkpt>
      <trkpt lat="48.67238" lon="-2.32793">
        <ele>99</ele>
        <time>2012-02-26T12:59:00Z</time>
      </trkpt>
      <trkpt lat="48.67242" lon="-2.32785">
        <ele>100</ele>
        <time>2012-02-26T12:59:05Z</time>
      </trkpt>
      <trkpt lat="48.67246" lon="-2.32777">
        <ele>100</ele>
        <time>2012-02-26T12:59:10Z</time>
      </trkpt>
      <trkpt lat="48.6725" lon="-2.3277">
        <ele>100</ele>
        <time>2012-02-26T12:59:15Z</time>
      </trkpt>
      <trkpt lat="48.67255" lon="-2.32761">
        <ele>100</ele>
        <time>2012-02-26T12:59:21Z</time>
      </trkpt>
      <trkpt lat="48.6726" lon="-2.32753">
        <ele>100</ele>
        <time>2012-02-26T12:59:27Z</time>
      </trkpt>
      <trkpt lat="48.67264" lon="-2.32745">
        <ele>100</ele>
        <time>2012-02-26T12:59:32Z</time>
      </trkpt>
      <trkpt lat="48.67269" lon="-2.32737">
        <ele>100</ele>
        <time>2012-02-26T12:59:38Z</time>
      </trkpt>
      <trkpt lat="48.67273" lon="-2.32729">
        <ele>100</ele>
        <time>2012-02-26T12:59:44Z</time>
      </trkpt>
      <trkpt lat="48.6728" lon="-2.32723">
        <ele>100</ele>
        <time>2012-02-26T12:59:50Z</time>
      </trkpt>
      <trkpt lat="48.67285" lon="-2.32718">
        <ele>101</ele>
        <time>2012-02-26T12:59:55Z</time>
      </trkpt>
      <trkpt lat="48.67292" lon="-2.32713">
        <ele>101</ele>
        <time>2012-02-26T13:00:00Z</time>
      </trkpt>
      <trkpt lat="48.67298" lon="-2.32707">
        <ele>101</ele>
        <time>2012-02-26T13:00:04Z</time>
      </trkpt>
      <trkpt lat="48.67303" lon="-2.327">
        <ele>101</ele>
        <time>2012-02-26T13:00:10Z</time>
      </trkpt>
      <trkpt lat="48.67308" lon="-2.32693">
        <ele>101</ele>
        <time>2012-02-26T13:00:15Z</time>
      </trkpt>
      <trkpt lat="48.67315" lon="-2.32689">
        <ele>101</ele>
        <time>2012-02-26T13:00:19Z</time>
      </trkpt>
      <trkpt lat="48.67321" lon="-2.32685">
        <ele>101</ele>
        <time>2012-02-26T13:00:28Z</time>
      </trkpt>
      <trkpt lat="48.67333" lon="-2.32675">
        <ele>101</ele>
        <time>2012-02-26T13:00:36Z</time>
      </trkpt>
      <trkpt lat="48.67352" lon="-2.32674">
        <ele>101</ele>
        <time>2012-02-26T13:00:56Z</time>
      </trkpt>
      <trkpt lat="48.67357" lon="-2.3268">
        <ele>101</ele>
        <time>2012-02-26T13:01:08Z</time>
      </trkpt>
      <trkpt lat="48.67364" lon="-2.32686">
        <ele>101</ele>
        <time>2012-02-26T13:01:14Z</time>
      </trkpt>
      <trkpt lat="48.6737" lon="-2.32689">
        <ele>101</ele>
        <time>2012-02-26T13:01:20Z</time>
      </trkpt>
      <trkpt lat="48.67376" lon="-2.32693">
        <ele>101</ele>
        <time>2012-02-26T13:01:26Z</time>
      </trkpt>
      <trkpt lat="48.67383" lon="-2.32696">
        <ele>101</ele>
        <time>2012-02-26T13:01:32Z</time>
      </trkpt>
      <trkpt lat="48.6739" lon="-2.32698">
        <ele>101</ele>
        <time>2012-02-26T13:01:37Z</time>
      </trkpt>
      <trkpt lat="48.67396" lon="-2.327">
        <ele>101</ele>
        <time>2012-02-26T13:01:42Z</time>
      </trkpt>
      <trkpt lat="48.67408" lon="-2.32707">
        <ele>100</ele>
        <time>2012-02-26T13:01:52Z</time>
      </trkpt>
      <trkpt lat="48.67414" lon="-2.32711">
        <ele>100</ele>
        <time>2012-02-26T13:01:57Z</time>
      </trkpt>
      <trkpt lat="48.67421" lon="-2.32715">
        <ele>100</ele>
        <time>2012-02-26T13:02:02Z</time>
      </trkpt>
      <trkpt lat="48.67427" lon="-2.32719">
        <ele>100</ele>
        <time>2012-02-26T13:02:07Z</time>
      </trkpt>
      <trkpt lat="48.67433" lon="-2.32722">
        <ele>100</ele>
        <time>2012-02-26T13:02:12Z</time>
      </trkpt>
      <trkpt lat="48.67439" lon="-2.32724">
        <ele>100</ele>
        <time>2012-02-26T13:02:17Z</time>
      </trkpt>
      <trkpt lat="48.67447" lon="-2.32727">
        <ele>100</ele>
        <time>2012-02-26T13:02:23Z</time>
      </trkpt>
      <trkpt lat="48.6746" lon="-2.32729">
        <ele>100</ele>
        <time>2012-02-26T13:02:35Z</time>
      </trkpt>
      <trkpt lat="48.67473" lon="-2.32736">
        <ele>100</ele>
        <time>2012-02-26T13:03:21Z</time>
      </trkpt>
      <trkpt lat="48.67481" lon="-2.32737">
        <ele>100</ele>
        <time>2012-02-26T13:03:26Z</time>
      </trkpt>
      <trkpt lat="48.67487" lon="-2.32733">
        <ele>100</ele>
        <time>2012-02-26T13:03:31Z</time>
      </trkpt>
      <trkpt lat="48.67492" lon="-2.32728">
        <ele>100</ele>
        <time>2012-02-26T13:03:36Z</time>
      </trkpt>
      <trkpt lat="48.67498" lon="-2.32721">
        <ele>100</ele>
        <time>2012-02-26T13:03:41Z</time>
      </trkpt>
      <trkpt lat="48.67503" lon="-2.32716">
        <ele>101</ele>
        <time>2012-02-26T13:03:46Z</time>
      </trkpt>
      <trkpt lat="48.67508" lon="-2.3271">
        <ele>101</ele>
        <time>2012-02-26T13:03:51Z</time>
      </trkpt>
      <trkpt lat="48.67552" lon="-2.32679">
        <ele>100</ele>
        <time>2012-02-26T13:04:06Z</time>
      </trkpt>
      <trkpt lat="48.67556" lon="-2.32671">
        <ele>101</ele>
        <time>2012-02-26T13:04:21Z</time>
      </trkpt>
      <trkpt lat="48.67561" lon="-2.32664">
        <ele>101</ele>
        <time>2012-02-26T13:04:28Z</time>
      </trkpt>
      <trkpt lat="48.67549" lon="-2.32665">
        <ele>102</ele>
        <time>2012-02-26T13:04:44Z</time>
      </trkpt>
      <trkpt lat="48.67542" lon="-2.32671">
        <ele>102</ele>
        <time>2012-02-26T13:04:48Z</time>
      </trkpt>
      <trkpt lat="48.67535" lon="-2.32676">
        <ele>102</ele>
        <time>2012-02-26T13:04:52Z</time>
      </trkpt>
      <trkpt lat="48.67539" lon="-2.32683">
        <ele>103</ele>
        <time>2012-02-26T13:05:03Z</time>
      </trkpt>
      <trkpt lat="48.67545" lon="-2.32688">
        <ele>103</ele>
        <time>2012-02-26T13:05:08Z</time>
      </trkpt>
      <trkpt lat="48.67552" lon="-2.32685">
        <ele>103</ele>
        <time>2012-02-26T13:05:13Z</time>
      </trkpt>
      <trkpt lat="48.67558" lon="-2.32681">
        <ele>103</ele>
        <time>2012-02-26T13:05:18Z</time>
      </trkpt>
      <trkpt lat="48.67564" lon="-2.32676">
        <ele>103</ele>
        <time>2012-02-26T13:05:24Z</time>
      </trkpt>
      <trkpt lat="48.6757" lon="-2.32672">
        <ele>103</ele>
        <time>2012-02-26T13:05:29Z</time>
      </trkpt>
      <trkpt lat="48.6758" lon="-2.32669">
        <ele>102</ele>
        <time>2012-02-26T13:05:41Z</time>
      </trkpt>
      <trkpt lat="48.67587" lon="-2.32664">
        <ele>102</ele>
        <time>2012-02-26T13:05:48Z</time>
      </trkpt>
      <trkpt lat="48.67593" lon="-2.32658">
        <ele>102</ele>
        <time>2012-02-26T13:05:54Z</time>
      </trkpt>
      <trkpt lat="48.67604" lon="-2.32646">
        <ele>102</ele>
        <time>2012-02-26T13:06:04Z</time>
      </trkpt>
      <trkpt lat="48.67608" lon="-2.32635">
        <ele>103</ele>
        <time>2012-02-26T13:06:10Z</time>
      </trkpt>
      <trkpt lat="48.67611" lon="-2.32623">
        <ele>103</ele>
        <time>2012-02-26T13:06:16Z</time>
      </trkpt>
      <trkpt lat="48.67616" lon="-2.32617">
        <ele>103</ele>
        <time>2012-02-26T13:06:23Z</time>
      </trkpt>
      <trkpt lat="48.67622" lon="-2.32619">
        <ele>103</ele>
        <time>2012-02-26T13:06:30Z</time>
      </trkpt>
      <trkpt lat="48.67632" lon="-2.3262">
        <ele>103</ele>
        <time>2012-02-26T13:06:40Z</time>
      </trkpt>
      <trkpt lat="48.67634" lon="-2.3263">
        <ele>103</ele>
        <time>2012-02-26T13:06:52Z</time>
      </trkpt>
      <trkpt lat="48.67633" lon="-2.32642">
        <ele>102</ele>
        <time>2012-02-26T13:07:01Z</time>
      </trkpt>
      <trkpt lat="48.67631" lon="-2.32652">
        <ele>102</ele>
        <time>2012-02-26T13:07:08Z</time>
      </trkpt>
      <trkpt lat="48.67626" lon="-2.32661">
        <ele>102</ele>
        <time>2012-02-26T13:07:14Z</time>
      </trkpt>
      <trkpt lat="48.67621" lon="-2.32669">
        <ele>101</ele>
        <time>2012-02-26T13:07:18Z</time>
      </trkpt>
      <trkpt lat="48.67617" lon="-2.32676">
        <ele>101</ele>
        <time>2012-02-26T13:07:22Z</time>
      </trkpt>
      <trkpt lat="48.67613" lon="-2.32685">
        <ele>101</ele>
        <time>2012-02-26T13:07:27Z</time>
      </trkpt>
      <trkpt lat="48.67608" lon="-2.32694">
        <ele>101</ele>
        <time>2012-02-26T13:07:34Z</time>
      </trkpt>
      <trkpt lat="48.67605" lon="-2.32704">
        <ele>100</ele>
        <time>2012-02-26T13:07:39Z</time>
      </trkpt>
      <trkpt lat="48.67613" lon="-2.327">
        <ele>100</ele>
        <time>2012-02-26T13:08:20Z</time>
      </trkpt>
      <trkpt lat="48.67617" lon="-2.32693">
        <ele>100</ele>
        <time>2012-02-26T13:08:26Z</time>
      </trkpt>
      <trkpt lat="48.67623" lon="-2.32674">
        <ele>100</ele>
        <time>2012-02-26T13:08:38Z</time>
      </trkpt>
      <trkpt lat="48.67627" lon="-2.32665">
        <ele>99</ele>
        <time>2012-02-26T13:08:44Z</time>
      </trkpt>
      <trkpt lat="48.67634" lon="-2.32648">
        <ele>99</ele>
        <time>2012-02-26T13:08:56Z</time>
      </trkpt>
      <trkpt lat="48.67637" lon="-2.32639">
        <ele>99</ele>
        <time>2012-02-26T13:09:01Z</time>
      </trkpt>
      <trkpt lat="48.67638" lon="-2.32628">
        <ele>99</ele>
        <time>2012-02-26T13:09:07Z</time>
      </trkpt>
      <trkpt lat="48.67643" lon="-2.3262">
        <ele>100</ele>
        <time>2012-02-26T13:09:14Z</time>
      </trkpt>
      <trkpt lat="48.67649" lon="-2.32614">
        <ele>100</ele>
        <time>2012-02-26T13:09:21Z</time>
      </trkpt>
      <trkpt lat="48.67654" lon="-2.32609">
        <ele>100</ele>
        <time>2012-02-26T13:09:27Z</time>
      </trkpt>
      <trkpt lat="48.67661" lon="-2.32605">
        <ele>100</ele>
        <time>2012-02-26T13:09:33Z</time>
      </trkpt>
      <trkpt lat="48.67667" lon="-2.32601">
        <ele>100</ele>
        <time>2012-02-26T13:09:39Z</time>
      </trkpt>
      <trkpt lat="48.67673" lon="-2.32595">
        <ele>100</ele>
        <time>2012-02-26T13:09:45Z</time>
      </trkpt>
      <trkpt lat="48.67677" lon="-2.32586">
        <ele>100</ele>
        <time>2012-02-26T13:09:51Z</time>
      </trkpt>
      <trkpt lat="48.67678" lon="-2.32577">
        <ele>100</ele>
        <time>2012-02-26T13:10:25Z</time>
      </trkpt>
      <trkpt lat="48.67678" lon="-2.32566">
        <ele>101</ele>
        <time>2012-02-26T13:10:34Z</time>
      </trkpt>
      <trkpt lat="48.67686" lon="-2.32548">
        <ele>101</ele>
        <time>2012-02-26T13:10:47Z</time>
      </trkpt>
      <trkpt lat="48.67697" lon="-2.32536">
        <ele>101</ele>
        <time>2012-02-26T13:11:04Z</time>
      </trkpt>
      <trkpt lat="48.67703" lon="-2.32532">
        <ele>101</ele>
        <time>2012-02-26T13:11:11Z</time>
      </trkpt>
      <trkpt lat="48.67709" lon="-2.32531">
        <ele>101</ele>
        <time>2012-02-26T13:11:17Z</time>
      </trkpt>
      <trkpt lat="48.67716" lon="-2.32525">
        <ele>101</ele>
        <time>2012-02-26T13:11:23Z</time>
      </trkpt>
      <trkpt lat="48.67721" lon="-2.32521">
        <ele>101</ele>
        <time>2012-02-26T13:11:29Z</time>
      </trkpt>
      <trkpt lat="48.67728" lon="-2.32516">
        <ele>101</ele>
        <time>2012-02-26T13:11:35Z</time>
      </trkpt>
      <trkpt lat="48.67739" lon="-2.32506">
        <ele>102</ele>
        <time>2012-02-26T13:11:47Z</time>
      </trkpt>
      <trkpt lat="48.67756" lon="-2.32488">
        <ele>102</ele>
        <time>2012-02-26T13:12:08Z</time>
      </trkpt>
      <trkpt lat="48.67763" lon="-2.32484">
        <ele>102</ele>
        <time>2012-02-26T13:12:15Z</time>
      </trkpt>
      <trkpt lat="48.67767" lon="-2.32477">
        <ele>102</ele>
        <time>2012-02-26T13:12:28Z</time>
      </trkpt>
      <trkpt lat="48.67774" lon="-2.32475">
        <ele>102</ele>
        <time>2012-02-26T13:12:39Z</time>
      </trkpt>
      <trkpt lat="48.6778" lon="-2.32478">
        <ele>102</ele>
        <time>2012-02-26T13:12:49Z</time>
      </trkpt>
      <trkpt lat="48.67788" lon="-2.32481">
        <ele>102</ele>
        <time>2012-02-26T13:12:57Z</time>
      </trkpt>
      <trkpt lat="48.67802" lon="-2.32481">
        <ele>102</ele>
        <time>2012-02-26T13:13:06Z</time>
      </trkpt>
      <trkpt lat="48.67809" lon="-2.3248">
        <ele>102</ele>
        <time>2012-02-26T13:13:12Z</time>
      </trkpt>
      <trkpt lat="48.67816" lon="-2.3248">
        <ele>103</ele>
        <time>2012-02-26T13:13:14Z</time>
      </trkpt>
      <trkpt lat="48.67822" lon="-2.32482">
        <ele>103</ele>
        <time>2012-02-26T13:13:21Z</time>
      </trkpt>
      <trkpt lat="48.67829" lon="-2.32479">
        <ele>104</ele>
        <time>2012-02-26T13:13:27Z</time>
      </trkpt>
      <trkpt lat="48.67835" lon="-2.32475">
        <ele>104</ele>
        <time>2012-02-26T13:13:31Z</time>
      </trkpt>
      <trkpt lat="48.67841" lon="-2.3247">
        <ele>105</ele>
        <time>2012-02-26T13:13:40Z</time>
      </trkpt>
      <trkpt lat="48.67846" lon="-2.32465">
        <ele>105</ele>
        <time>2012-02-26T13:13:45Z</time>
      </trkpt>
      <trkpt lat="48.6786" lon="-2.32464">
        <ele>106</ele>
        <time>2012-02-26T13:13:56Z</time>
      </trkpt>
      <trkpt lat="48.6788" lon="-2.3247">
        <ele>106</ele>
        <time>2012-02-26T13:14:12Z</time>
      </trkpt>
      <trkpt lat="48.67899" lon="-2.32481">
        <ele>107</ele>
        <time>2012-02-26T13:14:29Z</time>
      </trkpt>
      <trkpt lat="48.67906" lon="-2.32483">
        <ele>107</ele>
        <time>2012-02-26T13:14:36Z</time>
      </trkpt>
      <trkpt lat="48.67912" lon="-2.32479">
        <ele>107</ele>
        <time>2012-02-26T13:14:44Z</time>
      </trkpt>
      <trkpt lat="48.67918" lon="-2.32475">
        <ele>107</ele>
        <time>2012-02-26T13:14:49Z</time>
      </trkpt>
      <trkpt lat="48.67924" lon="-2.3247">
        <ele>107</ele>
        <time>2012-02-26T13:14:54Z</time>
      </trkpt>
      <trkpt lat="48.67931" lon="-2.32466">
        <ele>108</ele>
        <time>2012-02-26T13:15:00Z</time>
      </trkpt>
      <trkpt lat="48.67937" lon="-2.32461">
        <ele>108</ele>
        <time>2012-02-26T13:15:06Z</time>
      </trkpt>
      <trkpt lat="48.67943" lon="-2.32456">
        <ele>108</ele>
        <time>2012-02-26T13:15:12Z</time>
      </trkpt>
      <trkpt lat="48.6795" lon="-2.32452">
        <ele>108</ele>
        <time>2012-02-26T13:15:18Z</time>
      </trkpt>
      <trkpt lat="48.67957" lon="-2.32449">
        <ele>108</ele>
        <time>2012-02-26T13:15:24Z</time>
      </trkpt>
      <trkpt lat="48.67963" lon="-2.32446">
        <ele>108</ele>
        <time>2012-02-26T13:15:29Z</time>
      </trkpt>
      <trkpt lat="48.67969" lon="-2.32443">
        <ele>108</ele>
        <time>2012-02-26T13:15:34Z</time>
      </trkpt>
      <trkpt lat="48.67975" lon="-2.3244">
        <ele>108</ele>
        <time>2012-02-26T13:15:39Z</time>
      </trkpt>
      <trkpt lat="48.67981" lon="-2.32438">
        <ele>108</ele>
        <time>2012-02-26T13:15:44Z</time>
      </trkpt>
      <trkpt lat="48.67989" lon="-2.32435">
        <ele>108</ele>
        <time>2012-02-26T13:15:50Z</time>
      </trkpt>
      <trkpt lat="48.67995" lon="-2.3243">
        <ele>108</ele>
        <time>2012-02-26T13:15:56Z</time>
      </trkpt>
      <trkpt lat="48.68001" lon="-2.32427">
        <ele>108</ele>
        <time>2012-02-26T13:16:02Z</time>
      </trkpt>
      <trkpt lat="48.68006" lon="-2.32436">
        <ele>109</ele>
        <time>2012-02-26T13:16:11Z</time>
      </trkpt>
      <trkpt lat="48.68009" lon="-2.32444">
        <ele>109</ele>
        <time>2012-02-26T13:16:22Z</time>
      </trkpt>
      <trkpt lat="48.68013" lon="-2.32454">
        <ele>109</ele>
        <time>2012-02-26T13:16:37Z</time>
      </trkpt>
      <trkpt lat="48.68016" lon="-2.32465">
        <ele>109</ele>
        <time>2012-02-26T13:16:41Z</time>
      </trkpt>
      <trkpt lat="48.68021" lon="-2.32483">
        <ele>109</ele>
        <time>2012-02-26T13:16:50Z</time>
      </trkpt>
      <trkpt lat="48.68025" lon="-2.32491">
        <ele>109</ele>
        <time>2012-02-26T13:16:55Z</time>
      </trkpt>
      <trkpt lat="48.68028" lon="-2.325">
        <ele>110</ele>
        <time>2012-02-26T13:17:00Z</time>
      </trkpt>
      <trkpt lat="48.68032" lon="-2.32508">
        <ele>110</ele>
        <time>2012-02-26T13:17:06Z</time>
      </trkpt>
      <trkpt lat="48.68036" lon="-2.32516">
        <ele>110</ele>
        <time>2012-02-26T13:17:10Z</time>
      </trkpt>
      <trkpt lat="48.68041" lon="-2.32524">
        <ele>110</ele>
        <time>2012-02-26T13:17:15Z</time>
      </trkpt>
      <trkpt lat="48.68046" lon="-2.3253">
        <ele>111</ele>
        <time>2012-02-26T13:17:20Z</time>
      </trkpt>
      <trkpt lat="48.68052" lon="-2.32535">
        <ele>111</ele>
        <time>2012-02-26T13:17:25Z</time>
      </trkpt>
      <trkpt lat="48.68058" lon="-2.3254">
        <ele>111</ele>
        <time>2012-02-26T13:17:30Z</time>
      </trkpt>
      <trkpt lat="48.68063" lon="-2.32545">
        <ele>112</ele>
        <time>2012-02-26T13:17:35Z</time>
      </trkpt>
      <trkpt lat="48.68069" lon="-2.3255">
        <ele>112</ele>
        <time>2012-02-26T13:17:40Z</time>
      </trkpt>
      <trkpt lat="48.68076" lon="-2.32552">
        <ele>112</ele>
        <time>2012-02-26T13:17:45Z</time>
      </trkpt>
      <trkpt lat="48.68082" lon="-2.32556">
        <ele>113</ele>
        <time>2012-02-26T13:17:50Z</time>
      </trkpt>
      <trkpt lat="48.68088" lon="-2.32559">
        <ele>113</ele>
        <time>2012-02-26T13:17:55Z</time>
      </trkpt>
      <trkpt lat="48.68094" lon="-2.32566">
        <ele>113</ele>
        <time>2012-02-26T13:18:01Z</time>
      </trkpt>
      <trkpt lat="48.681" lon="-2.32573">
        <ele>113</ele>
        <time>2012-02-26T13:18:07Z</time>
      </trkpt>
      <trkpt lat="48.68106" lon="-2.32575">
        <ele>113</ele>
        <time>2012-02-26T13:18:12Z</time>
      </trkpt>
      <trkpt lat="48.68112" lon="-2.32579">
        <ele>114</ele>
        <time>2012-02-26T13:18:18Z</time>
      </trkpt>
      <trkpt lat="48.68118" lon="-2.32584">
        <ele>114</ele>
        <time>2012-02-26T13:18:24Z</time>
      </trkpt>
      <trkpt lat="48.68123" lon="-2.32591">
        <ele>114</ele>
        <time>2012-02-26T13:18:31Z</time>
      </trkpt>
      <trkpt lat="48.68125" lon="-2.32601">
        <ele>114</ele>
        <time>2012-02-26T13:18:37Z</time>
      </trkpt>
      <trkpt lat="48.68128" lon="-2.32611">
        <ele>114</ele>
        <time>2012-02-26T13:18:43Z</time>
      </trkpt>
      <trkpt lat="48.68132" lon="-2.3262">
        <ele>114</ele>
        <time>2012-02-26T13:18:47Z</time>
      </trkpt>
      <trkpt lat="48.68135" lon="-2.32629">
        <ele>114</ele>
        <time>2012-02-26T13:18:52Z</time>
      </trkpt>
      <trkpt lat="48.6814" lon="-2.32636">
        <ele>114</ele>
        <time>2012-02-26T13:18:57Z</time>
      </trkpt>
      <trkpt lat="48.68145" lon="-2.32644">
        <ele>114</ele>
        <time>2012-02-26T13:19:03Z</time>
      </trkpt>
      <trkpt lat="48.6815" lon="-2.32651">
        <ele>115</ele>
        <time>2012-02-26T13:19:08Z</time>
      </trkpt>
      <trkpt lat="48.68155" lon="-2.32658">
        <ele>115</ele>
        <time>2012-02-26T13:19:14Z</time>
      </trkpt>
      <trkpt lat="48.6816" lon="-2.32664">
        <ele>115</ele>
        <time>2012-02-26T13:19:20Z</time>
      </trkpt>
      <trkpt lat="48.68166" lon="-2.32668">
        <ele>115</ele>
        <time>2012-02-26T13:19:28Z</time>
      </trkpt>
      <trkpt lat="48.68173" lon="-2.32671">
        <ele>114</ele>
        <time>2012-02-26T13:19:34Z</time>
      </trkpt>
      <trkpt lat="48.6818" lon="-2.32671">
        <ele>114</ele>
        <time>2012-02-26T13:19:39Z</time>
      </trkpt>
      <trkpt lat="48.68187" lon="-2.32675">
        <ele>114</ele>
        <time>2012-02-26T13:19:46Z</time>
      </trkpt>
      <trkpt lat="48.68191" lon="-2.32682">
        <ele>114</ele>
        <time>2012-02-26T13:19:51Z</time>
      </trkpt>
      <trkpt lat="48.68184" lon="-2.32675">
        <ele>114</ele>
        <time>2012-02-26T13:21:38Z</time>
      </trkpt>
      <trkpt lat="48.68179" lon="-2.32668">
        <ele>114</ele>
        <time>2012-02-26T13:21:46Z</time>
      </trkpt>
      <trkpt lat="48.68172" lon="-2.32668">
        <ele>114</ele>
        <time>2012-02-26T13:21:53Z</time>
      </trkpt>
      <trkpt lat="48.68166" lon="-2.32667">
        <ele>114</ele>
        <time>2012-02-26T13:22:00Z</time>
      </trkpt>
      <trkpt lat="48.6816" lon="-2.32662">
        <ele>114</ele>
        <time>2012-02-26T13:22:08Z</time>
      </trkpt>
      <trkpt lat="48.68154" lon="-2.32656">
        <ele>114</ele>
        <time>2012-02-26T13:22:14Z</time>
      </trkpt>
      <trkpt lat="48.68149" lon="-2.32649">
        <ele>114</ele>
        <time>2012-02-26T13:22:20Z</time>
      </trkpt>
      <trkpt lat="48.68145" lon="-2.32641">
        <ele>114</ele>
        <time>2012-02-26T13:22:26Z</time>
      </trkpt>
      <trkpt lat="48.6814" lon="-2.32634">
        <ele>114</ele>
        <time>2012-02-26T13:22:32Z</time>
      </trkpt>
      <trkpt lat="48.68135" lon="-2.32628">
        <ele>114</ele>
        <time>2012-02-26T13:22:38Z</time>
      </trkpt>
      <trkpt lat="48.6813" lon="-2.3262">
        <ele>115</ele>
        <time>2012-02-26T13:22:45Z</time>
      </trkpt>
      <trkpt lat="48.68122" lon="-2.32604">
        <ele>115</ele>
        <time>2012-02-26T13:22:57Z</time>
      </trkpt>
      <trkpt lat="48.6812" lon="-2.32594">
        <ele>115</ele>
        <time>2012-02-26T13:23:04Z</time>
      </trkpt>
      <trkpt lat="48.68116" lon="-2.32587">
        <ele>115</ele>
        <time>2012-02-26T13:23:11Z</time>
      </trkpt>
      <trkpt lat="48.68112" lon="-2.32579">
        <ele>115</ele>
        <time>2012-02-26T13:23:18Z</time>
      </trkpt>
      <trkpt lat="48.68107" lon="-2.32571">
        <ele>115</ele>
        <time>2012-02-26T13:23:25Z</time>
      </trkpt>
      <trkpt lat="48.68101" lon="-2.32567">
        <ele>115</ele>
        <time>2012-02-26T13:23:32Z</time>
      </trkpt>
      <trkpt lat="48.68096" lon="-2.32561">
        <ele>115</ele>
        <time>2012-02-26T13:23:39Z</time>
      </trkpt>
      <trkpt lat="48.68091" lon="-2.32554">
        <ele>115</ele>
        <time>2012-02-26T13:23:45Z</time>
      </trkpt>
      <trkpt lat="48.68085" lon="-2.3255">
        <ele>115</ele>
        <time>2012-02-26T13:23:51Z</time>
      </trkpt>
      <trkpt lat="48.68078" lon="-2.32548">
        <ele>116</ele>
        <time>2012-02-26T13:23:57Z</time>
      </trkpt>
      <trkpt lat="48.68072" lon="-2.32544">
        <ele>116</ele>
        <time>2012-02-26T13:24:03Z</time>
      </trkpt>
      <trkpt lat="48.68066" lon="-2.32537">
        <ele>116</ele>
        <time>2012-02-26T13:24:09Z</time>
      </trkpt>
      <trkpt lat="48.6806" lon="-2.32531">
        <ele>116</ele>
        <time>2012-02-26T13:24:15Z</time>
      </trkpt>
      <trkpt lat="48.68055" lon="-2.32526">
        <ele>116</ele>
        <time>2012-02-26T13:24:21Z</time>
      </trkpt>
      <trkpt lat="48.68048" lon="-2.3252">
        <ele>116</ele>
        <time>2012-02-26T13:24:27Z</time>
      </trkpt>
      <trkpt lat="48.68042" lon="-2.32516">
        <ele>116</ele>
        <time>2012-02-26T13:24:32Z</time>
      </trkpt>
      <trkpt lat="48.68037" lon="-2.3251">
        <ele>116</ele>
        <time>2012-02-26T13:24:37Z</time>
      </trkpt>
      <trkpt lat="48.68032" lon="-2.32502">
        <ele>116</ele>
        <time>2012-02-26T13:24:43Z</time>
      </trkpt>
      <trkpt lat="48.68027" lon="-2.32494">
        <ele>116</ele>
        <time>2012-02-26T13:24:49Z</time>
      </trkpt>
      <trkpt lat="48.68023" lon="-2.32485">
        <ele>116</ele>
        <time>2012-02-26T13:24:55Z</time>
      </trkpt>
      <trkpt lat="48.68019" lon="-2.32475">
        <ele>116</ele>
        <time>2012-02-26T13:25:01Z</time>
      </trkpt>
      <trkpt lat="48.68015" lon="-2.32466">
        <ele>116</ele>
        <time>2012-02-26T13:25:07Z</time>
      </trkpt>
      <trkpt lat="48.68012" lon="-2.32457">
        <ele>116</ele>
        <time>2012-02-26T13:25:12Z</time>
      </trkpt>
      <trkpt lat="48.68008" lon="-2.32448">
        <ele>116</ele>
        <time>2012-02-26T13:25:17Z</time>
      </trkpt>
      <trkpt lat="48.68006" lon="-2.32439">
        <ele>116</ele>
        <time>2012-02-26T13:25:22Z</time>
      </trkpt>
      <trkpt lat="48.68004" lon="-2.32429">
        <ele>116</ele>
        <time>2012-02-26T13:25:27Z</time>
      </trkpt>
      <trkpt lat="48.68004" lon="-2.32418">
        <ele>116</ele>
        <time>2012-02-26T13:25:33Z</time>
      </trkpt>
      <trkpt lat="48.68005" lon="-2.32407">
        <ele>116</ele>
        <time>2012-02-26T13:25:39Z</time>
      </trkpt>
      <trkpt lat="48.68011" lon="-2.32401">
        <ele>116</ele>
        <time>2012-02-26T13:25:46Z</time>
      </trkpt>
      <trkpt lat="48.68024" lon="-2.32402">
        <ele>116</ele>
        <time>2012-02-26T13:25:56Z</time>
      </trkpt>
      <trkpt lat="48.68031" lon="-2.32402">
        <ele>116</ele>
        <time>2012-02-26T13:26:02Z</time>
      </trkpt>
      <trkpt lat="48.68039" lon="-2.32401">
        <ele>115</ele>
        <time>2012-02-26T13:26:08Z</time>
      </trkpt>
      <trkpt lat="48.68045" lon="-2.32399">
        <ele>115</ele>
        <time>2012-02-26T13:26:14Z</time>
      </trkpt>
      <trkpt lat="48.68052" lon="-2.32399">
        <ele>115</ele>
        <time>2012-02-26T13:26:20Z</time>
      </trkpt>
      <trkpt lat="48.68059" lon="-2.32398">
        <ele>114</ele>
        <time>2012-02-26T13:26:26Z</time>
      </trkpt>
      <trkpt lat="48.68066" lon="-2.32398">
        <ele>114</ele>
        <time>2012-02-26T13:26:32Z</time>
      </trkpt>
      <trkpt lat="48.68073" lon="-2.32397">
        <ele>114</ele>
        <time>2012-02-26T13:26:37Z</time>
      </trkpt>
      <trkpt lat="48.6808" lon="-2.32396">
        <ele>113</ele>
        <time>2012-02-26T13:26:42Z</time>
      </trkpt>
      <trkpt lat="48.68086" lon="-2.32392">
        <ele>113</ele>
        <time>2012-02-26T13:26:47Z</time>
      </trkpt>
      <trkpt lat="48.68092" lon="-2.32387">
        <ele>113</ele>
        <time>2012-02-26T13:26:52Z</time>
      </trkpt>
      <trkpt lat="48.68097" lon="-2.32383">
        <ele>113</ele>
        <time>2012-02-26T13:26:58Z</time>
      </trkpt>
      <trkpt lat="48.68104" lon="-2.32381">
        <ele>112</ele>
        <time>2012-02-26T13:27:05Z</time>
      </trkpt>
      <trkpt lat="48.68112" lon="-2.32381">
        <ele>112</ele>
        <time>2012-02-26T13:27:11Z</time>
      </trkpt>
      <trkpt lat="48.68117" lon="-2.32374">
        <ele>112</ele>
        <time>2012-02-26T13:27:16Z</time>
      </trkpt>
      <trkpt lat="48.68121" lon="-2.32367">
        <ele>112</ele>
        <time>2012-02-26T13:27:21Z</time>
      </trkpt>
      <trkpt lat="48.68126" lon="-2.32359">
        <ele>112</ele>
        <time>2012-02-26T13:27:27Z</time>
      </trkpt>
      <trkpt lat="48.68129" lon="-2.3235">
        <ele>112</ele>
        <time>2012-02-26T13:27:33Z</time>
      </trkpt>
      <trkpt lat="48.68132" lon="-2.32341">
        <ele>112</ele>
        <time>2012-02-26T13:27:39Z</time>
      </trkpt>
      <trkpt lat="48.68135" lon="-2.32331">
        <ele>112</ele>
        <time>2012-02-26T13:27:45Z</time>
      </trkpt>
      <trkpt lat="48.68137" lon="-2.32322">
        <ele>112</ele>
        <time>2012-02-26T13:27:51Z</time>
      </trkpt>
      <trkpt lat="48.6814" lon="-2.32313">
        <ele>112</ele>
        <time>2012-02-26T13:27:57Z</time>
      </trkpt>
      <trkpt lat="48.6815" lon="-2.32299">
        <ele>112</ele>
        <time>2012-02-26T13:28:09Z</time>
      </trkpt>
      <trkpt lat="48.68155" lon="-2.3228">
        <ele>112</ele>
        <time>2012-02-26T13:28:20Z</time>
      </trkpt>
      <trkpt lat="48.68151" lon="-2.3227">
        <ele>112</ele>
        <time>2012-02-26T13:28:26Z</time>
      </trkpt>
      <trkpt lat="48.68141" lon="-2.32256">
        <ele>112</ele>
        <time>2012-02-26T13:28:37Z</time>
      </trkpt>
      <trkpt lat="48.68131" lon="-2.32241">
        <ele>112</ele>
        <time>2012-02-26T13:28:49Z</time>
      </trkpt>
      <trkpt lat="48.68129" lon="-2.32231">
        <ele>112</ele>
        <time>2012-02-26T13:28:55Z</time>
      </trkpt>
      <trkpt lat="48.68133" lon="-2.32211">
        <ele>112</ele>
        <time>2012-02-26T13:29:08Z</time>
      </trkpt>
      <trkpt lat="48.68141" lon="-2.32209">
        <ele>111</ele>
        <time>2012-02-26T13:29:16Z</time>
      </trkpt>
      <trkpt lat="48.68146" lon="-2.32205">
        <ele>111</ele>
        <time>2012-02-26T13:29:23Z</time>
      </trkpt>
      <trkpt lat="48.68152" lon="-2.32199">
        <ele>110</ele>
        <time>2012-02-26T13:29:33Z</time>
      </trkpt>
      <trkpt lat="48.68159" lon="-2.322">
        <ele>110</ele>
        <time>2012-02-26T13:29:39Z</time>
      </trkpt>
      <trkpt lat="48.68166" lon="-2.322">
        <ele>109</ele>
        <time>2012-02-26T13:29:45Z</time>
      </trkpt>
      <trkpt lat="48.68173" lon="-2.322">
        <ele>109</ele>
        <time>2012-02-26T13:29:51Z</time>
      </trkpt>
      <trkpt lat="48.6818" lon="-2.32202">
        <ele>108</ele>
        <time>2012-02-26T13:29:57Z</time>
      </trkpt>
      <trkpt lat="48.68187" lon="-2.32206">
        <ele>108</ele>
        <time>2012-02-26T13:30:03Z</time>
      </trkpt>
      <trkpt lat="48.68194" lon="-2.32203">
        <ele>108</ele>
        <time>2012-02-26T13:30:09Z</time>
      </trkpt>
      <trkpt lat="48.682" lon="-2.32201">
        <ele>108</ele>
        <time>2012-02-26T13:30:15Z</time>
      </trkpt>
      <trkpt lat="48.68206" lon="-2.32196">
        <ele>108</ele>
        <time>2012-02-26T13:30:21Z</time>
      </trkpt>
      <trkpt lat="48.68212" lon="-2.32193">
        <ele>108</ele>
        <time>2012-02-26T13:30:28Z</time>
      </trkpt>
      <trkpt lat="48.68219" lon="-2.32191">
        <ele>108</ele>
        <time>2012-02-26T13:30:35Z</time>
      </trkpt>
      <trkpt lat="48.68226" lon="-2.3219">
        <ele>107</ele>
        <time>2012-02-26T13:30:41Z</time>
      </trkpt>
      <trkpt lat="48.68233" lon="-2.3219">
        <ele>107</ele>
        <time>2012-02-26T13:30:47Z</time>
      </trkpt>
      <trkpt lat="48.68239" lon="-2.3219">
        <ele>107</ele>
        <time>2012-02-26T13:30:53Z</time>
      </trkpt>
      <trkpt lat="48.68247" lon="-2.32189">
        <ele>108</ele>
        <time>2012-02-26T13:30:59Z</time>
      </trkpt>
      <trkpt lat="48.68253" lon="-2.32186">
        <ele>108</ele>
        <time>2012-02-26T13:31:05Z</time>
      </trkpt>
      <trkpt lat="48.68247" lon="-2.32171">
        <ele>108</ele>
        <time>2012-02-26T13:31:34Z</time>
      </trkpt>
      <trkpt lat="48.68241" lon="-2.32166">
        <ele>109</ele>
        <time>2012-02-26T13:31:39Z</time>
      </trkpt>
      <trkpt lat="48.68238" lon="-2.32157">
        <ele>109</ele>
        <time>2012-02-26T13:31:45Z</time>
      </trkpt>
      <trkpt lat="48.68238" lon="-2.32147">
        <ele>109</ele>
        <time>2012-02-26T13:31:52Z</time>
      </trkpt>
      <trkpt lat="48.68237" lon="-2.32136">
        <ele>110</ele>
        <time>2012-02-26T13:31:59Z</time>
      </trkpt>
      <trkpt lat="48.68226" lon="-2.321">
        <ele>110</ele>
        <time>2012-02-26T13:32:34Z</time>
      </trkpt>
      <trkpt lat="48.68221" lon="-2.32091">
        <ele>110</ele>
        <time>2012-02-26T13:32:38Z</time>
      </trkpt>
      <trkpt lat="48.68218" lon="-2.32081">
        <ele>111</ele>
        <time>2012-02-26T13:32:42Z</time>
      </trkpt>
      <trkpt lat="48.68218" lon="-2.3207">
        <ele>111</ele>
        <time>2012-02-26T13:32:46Z</time>
      </trkpt>
      <trkpt lat="48.68222" lon="-2.32061">
        <ele>111</ele>
        <time>2012-02-26T13:32:51Z</time>
      </trkpt>
      <trkpt lat="48.68228" lon="-2.32056">
        <ele>111</ele>
        <time>2012-02-26T13:32:56Z</time>
      </trkpt>
      <trkpt lat="48.68235" lon="-2.32053">
        <ele>111</ele>
        <time>2012-02-26T13:33:01Z</time>
      </trkpt>
      <trkpt lat="48.68241" lon="-2.32049">
        <ele>112</ele>
        <time>2012-02-26T13:33:06Z</time>
      </trkpt>
      <trkpt lat="48.68246" lon="-2.32041">
        <ele>112</ele>
        <time>2012-02-26T13:33:11Z</time>
      </trkpt>
      <trkpt lat="48.6825" lon="-2.32033">
        <ele>112</ele>
        <time>2012-02-26T13:33:16Z</time>
      </trkpt>
      <trkpt lat="48.68264" lon="-2.32009">
        <ele>112</ele>
        <time>2012-02-26T13:33:31Z</time>
      </trkpt>
      <trkpt lat="48.68271" lon="-2.32002">
        <ele>112</ele>
        <time>2012-02-26T13:33:36Z</time>
      </trkpt>
      <trkpt lat="48.68278" lon="-2.31998">
        <ele>111</ele>
        <time>2012-02-26T13:33:41Z</time>
      </trkpt>
      <trkpt lat="48.68284" lon="-2.31995">
        <ele>111</ele>
        <time>2012-02-26T13:33:46Z</time>
      </trkpt>
      <trkpt lat="48.6829" lon="-2.31991">
        <ele>111</ele>
        <time>2012-02-26T13:33:52Z</time>
      </trkpt>
      <trkpt lat="48.68295" lon="-2.31984">
        <ele>111</ele>
        <time>2012-02-26T13:33:58Z</time>
      </trkpt>
      <trkpt lat="48.68301" lon="-2.31978">
        <ele>111</ele>
        <time>2012-02-26T13:34:05Z</time>
      </trkpt>
      <trkpt lat="48.68305" lon="-2.3197">
        <ele>112</ele>
        <time>2012-02-26T13:34:11Z</time>
      </trkpt>
      <trkpt lat="48.68311" lon="-2.31968">
        <ele>112</ele>
        <time>2012-02-26T13:34:17Z</time>
      </trkpt>
      <trkpt lat="48.68318" lon="-2.31969">
        <ele>112</ele>
        <time>2012-02-26T13:34:23Z</time>
      </trkpt>
      <trkpt lat="48.68324" lon="-2.31971">
        <ele>112</ele>
        <time>2012-02-26T13:34:27Z</time>
      </trkpt>
      <trkpt lat="48.6833" lon="-2.31975">
        <ele>113</ele>
        <time>2012-02-26T13:34:32Z</time>
      </trkpt>
      <trkpt lat="48.68337" lon="-2.31975">
        <ele>113</ele>
        <time>2012-02-26T13:34:40Z</time>
      </trkpt>
      <trkpt lat="48.68334" lon="-2.31944">
        <ele>114</ele>
        <time>2012-02-26T13:35:06Z</time>
      </trkpt>
      <trkpt lat="48.68334" lon="-2.31934">
        <ele>114</ele>
        <time>2012-02-26T13:35:12Z</time>
      </trkpt>
      <trkpt lat="48.68341" lon="-2.3193">
        <ele>115</ele>
        <time>2012-02-26T13:35:23Z</time>
      </trkpt>
      <trkpt lat="48.68347" lon="-2.31934">
        <ele>116</ele>
        <time>2012-02-26T13:35:29Z</time>
      </trkpt>
      <trkpt lat="48.68353" lon="-2.31937">
        <ele>116</ele>
        <time>2012-02-26T13:35:37Z</time>
      </trkpt>
      <trkpt lat="48.68372" lon="-2.31947">
        <ele>117</ele>
        <time>2012-02-26T13:35:59Z</time>
      </trkpt>
      <trkpt lat="48.68378" lon="-2.31949">
        <ele>117</ele>
        <time>2012-02-26T13:36:06Z</time>
      </trkpt>
      <trkpt lat="48.68386" lon="-2.3195">
        <ele>117</ele>
        <time>2012-02-26T13:36:12Z</time>
      </trkpt>
      <trkpt lat="48.68392" lon="-2.3195">
        <ele>117</ele>
        <time>2012-02-26T13:36:18Z</time>
      </trkpt>
      <trkpt lat="48.68399" lon="-2.31949">
        <ele>117</ele>
        <time>2012-02-26T13:36:25Z</time>
      </trkpt>
      <trkpt lat="48.68406" lon="-2.31947">
        <ele>118</ele>
        <time>2012-02-26T13:36:31Z</time>
      </trkpt>
      <trkpt lat="48.68413" lon="-2.31944">
        <ele>118</ele>
        <time>2012-02-26T13:36:37Z</time>
      </trkpt>
      <trkpt lat="48.68419" lon="-2.31939">
        <ele>118</ele>
        <time>2012-02-26T13:36:44Z</time>
      </trkpt>
      <trkpt lat="48.68425" lon="-2.31933">
        <ele>118</ele>
        <time>2012-02-26T13:36:49Z</time>
      </trkpt>
      <trkpt lat="48.68426" lon="-2.31923">
        <ele>119</ele>
        <time>2012-02-26T13:37:05Z</time>
      </trkpt>
      <trkpt lat="48.68446" lon="-2.31896">
        <ele>119</ele>
        <time>2012-02-26T13:37:36Z</time>
      </trkpt>
      <trkpt lat="48.68457" lon="-2.31883">
        <ele>119</ele>
        <time>2012-02-26T13:37:48Z</time>
      </trkpt>
      <trkpt lat="48.68461" lon="-2.31873">
        <ele>119</ele>
        <time>2012-02-26T13:37:53Z</time>
      </trkpt>
      <trkpt lat="48.68466" lon="-2.31866">
        <ele>119</ele>
        <time>2012-02-26T13:37:59Z</time>
      </trkpt>
      <trkpt lat="48.68471" lon="-2.3186">
        <ele>119</ele>
        <time>2012-02-26T13:38:03Z</time>
      </trkpt>
      <trkpt lat="48.68477" lon="-2.31855">
        <ele>119</ele>
        <time>2012-02-26T13:38:09Z</time>
      </trkpt>
      <trkpt lat="48.68484" lon="-2.31854">
        <ele>119</ele>
        <time>2012-02-26T13:38:16Z</time>
      </trkpt>
      <trkpt lat="48.6849" lon="-2.31849">
        <ele>119</ele>
        <time>2012-02-26T13:38:22Z</time>
      </trkpt>
      <trkpt lat="48.68508" lon="-2.31833">
        <ele>119</ele>
        <time>2012-02-26T13:38:39Z</time>
      </trkpt>
      <trkpt lat="48.68513" lon="-2.31828">
        <ele>119</ele>
        <time>2012-02-26T13:38:44Z</time>
      </trkpt>
      <trkpt lat="48.68518" lon="-2.31822">
        <ele>119</ele>
        <time>2012-02-26T13:38:49Z</time>
      </trkpt>
      <trkpt lat="48.68523" lon="-2.31813">
        <ele>119</ele>
        <time>2012-02-26T13:38:54Z</time>
      </trkpt>
      <trkpt lat="48.68529" lon="-2.31807">
        <ele>118</ele>
        <time>2012-02-26T13:38:59Z</time>
      </trkpt>
      <trkpt lat="48.68533" lon="-2.318">
        <ele>118</ele>
        <time>2012-02-26T13:39:05Z</time>
      </trkpt>
      <trkpt lat="48.68538" lon="-2.31792">
        <ele>118</ele>
        <time>2012-02-26T13:39:12Z</time>
      </trkpt>
      <trkpt lat="48.68544" lon="-2.31787">
        <ele>118</ele>
        <time>2012-02-26T13:39:18Z</time>
      </trkpt>
      <trkpt lat="48.68555" lon="-2.31777">
        <ele>118</ele>
        <time>2012-02-26T13:39:28Z</time>
      </trkpt>
      <trkpt lat="48.68561" lon="-2.31772">
        <ele>118</ele>
        <time>2012-02-26T13:39:33Z</time>
      </trkpt>
      <trkpt lat="48.68567" lon="-2.31766">
        <ele>118</ele>
        <time>2012-02-26T13:39:39Z</time>
      </trkpt>
      <trkpt lat="48.68572" lon="-2.31759">
        <ele>118</ele>
        <time>2012-02-26T13:39:45Z</time>
      </trkpt>
      <trkpt lat="48.68578" lon="-2.31754">
        <ele>118</ele>
        <time>2012-02-26T13:39:50Z</time>
      </trkpt>
      <trkpt lat="48.68584" lon="-2.31749">
        <ele>118</ele>
        <time>2012-02-26T13:39:56Z</time>
      </trkpt>
      <trkpt lat="48.68606" lon="-2.3174">
        <ele>119</ele>
        <time>2012-02-26T13:40:14Z</time>
      </trkpt>
      <trkpt lat="48.68612" lon="-2.31742">
        <ele>119</ele>
        <time>2012-02-26T13:40:19Z</time>
      </trkpt>
      <trkpt lat="48.68619" lon="-2.31745">
        <ele>119</ele>
        <time>2012-02-26T13:40:24Z</time>
      </trkpt>
      <trkpt lat="48.68626" lon="-2.31747">
        <ele>118</ele>
        <time>2012-02-26T13:40:30Z</time>
      </trkpt>
      <trkpt lat="48.68634" lon="-2.31748">
        <ele>118</ele>
        <time>2012-02-26T13:40:36Z</time>
      </trkpt>
      <trkpt lat="48.68641" lon="-2.31751">
        <ele>118</ele>
        <time>2012-02-26T13:40:42Z</time>
      </trkpt>
      <trkpt lat="48.68647" lon="-2.31754">
        <ele>118</ele>
        <time>2012-02-26T13:40:48Z</time>
      </trkpt>
      <trkpt lat="48.68654" lon="-2.31758">
        <ele>118</ele>
        <time>2012-02-26T13:40:54Z</time>
      </trkpt>
      <trkpt lat="48.68661" lon="-2.3176">
        <ele>117</ele>
        <time>2012-02-26T13:40:59Z</time>
      </trkpt>
      <trkpt lat="48.68668" lon="-2.31762">
        <ele>117</ele>
        <time>2012-02-26T13:41:05Z</time>
      </trkpt>
      <trkpt lat="48.68675" lon="-2.31764">
        <ele>117</ele>
        <time>2012-02-26T13:41:11Z</time>
      </trkpt>
      <trkpt lat="48.68682" lon="-2.31766">
        <ele>117</ele>
        <time>2012-02-26T13:41:17Z</time>
      </trkpt>
      <trkpt lat="48.68689" lon="-2.31769">
        <ele>116</ele>
        <time>2012-02-26T13:41:23Z</time>
      </trkpt>
      <trkpt lat="48.68696" lon="-2.31772">
        <ele>116</ele>
        <time>2012-02-26T13:41:29Z</time>
      </trkpt>
      <trkpt lat="48.68703" lon="-2.31774">
        <ele>116</ele>
        <time>2012-02-26T13:41:35Z</time>
      </trkpt>
      <trkpt lat="48.68711" lon="-2.31776">
        <ele>116</ele>
        <time>2012-02-26T13:41:41Z</time>
      </trkpt>
      <trkpt lat="48.68718" lon="-2.31777">
        <ele>115</ele>
        <time>2012-02-26T13:41:47Z</time>
      </trkpt>
      <trkpt lat="48.68724" lon="-2.31778">
        <ele>115</ele>
        <time>2012-02-26T13:41:52Z</time>
      </trkpt>
      <trkpt lat="48.68731" lon="-2.31778">
        <ele>115</ele>
        <time>2012-02-26T13:41:57Z</time>
      </trkpt>
      <trkpt lat="48.68744" lon="-2.31779">
        <ele>115</ele>
        <time>2012-02-26T13:42:07Z</time>
      </trkpt>
      <trkpt lat="48.68751" lon="-2.31779">
        <ele>114</ele>
        <time>2012-02-26T13:42:12Z</time>
      </trkpt>
      <trkpt lat="48.68758" lon="-2.31777">
        <ele>114</ele>
        <time>2012-02-26T13:42:17Z</time>
      </trkpt>
      <trkpt lat="48.68764" lon="-2.31774">
        <ele>114</ele>
        <time>2012-02-26T13:42:22Z</time>
      </trkpt>
      <trkpt lat="48.68769" lon="-2.31767">
        <ele>114</ele>
        <time>2012-02-26T13:42:27Z</time>
      </trkpt>
      <trkpt lat="48.68775" lon="-2.3176">
        <ele>114</ele>
        <time>2012-02-26T13:42:33Z</time>
      </trkpt>
      <trkpt lat="48.68782" lon="-2.31758">
        <ele>114</ele>
        <time>2012-02-26T13:42:39Z</time>
      </trkpt>
      <trkpt lat="48.68789" lon="-2.31757">
        <ele>114</ele>
        <time>2012-02-26T13:42:45Z</time>
      </trkpt>
      <trkpt lat="48.68779" lon="-2.3175">
        <ele>113</ele>
        <time>2012-02-26T13:43:34Z</time>
      </trkpt>
      <trkpt lat="48.68763" lon="-2.31742">
        <ele>111</ele>
        <time>2012-02-26T13:44:26Z</time>
      </trkpt>
      <trkpt lat="48.68759" lon="-2.31733">
        <ele>111</ele>
        <time>2012-02-26T13:44:32Z</time>
      </trkpt>
      <trkpt lat="48.68755" lon="-2.31726">
        <ele>111</ele>
        <time>2012-02-26T13:44:38Z</time>
      </trkpt>
      <trkpt lat="48.68751" lon="-2.31717">
        <ele>111</ele>
        <time>2012-02-26T13:44:43Z</time>
      </trkpt>
      <trkpt lat="48.68749" lon="-2.31706">
        <ele>111</ele>
        <time>2012-02-26T13:44:48Z</time>
      </trkpt>
      <trkpt lat="48.68748" lon="-2.31696">
        <ele>111</ele>
        <time>2012-02-26T13:44:54Z</time>
      </trkpt>
      <trkpt lat="48.68742" lon="-2.31692">
        <ele>111</ele>
        <time>2012-02-26T13:45:05Z</time>
      </trkpt>
      <trkpt lat="48.68736" lon="-2.31687">
        <ele>111</ele>
        <time>2012-02-26T13:45:11Z</time>
      </trkpt>
      <trkpt lat="48.6873" lon="-2.31682">
        <ele>111</ele>
        <time>2012-02-26T13:45:18Z</time>
      </trkpt>
      <trkpt lat="48.68724" lon="-2.3168">
        <ele>111</ele>
        <time>2012-02-26T13:45:52Z</time>
      </trkpt>
      <trkpt lat="48.68717" lon="-2.31677">
        <ele>111</ele>
        <time>2012-02-26T13:46:07Z</time>
      </trkpt>
      <trkpt lat="48.68704" lon="-2.31676">
        <ele>111</ele>
        <time>2012-02-26T13:46:19Z</time>
      </trkpt>
      <trkpt lat="48.68691" lon="-2.31674">
        <ele>112</ele>
        <time>2012-02-26T13:46:44Z</time>
      </trkpt>
      <trkpt lat="48.68684" lon="-2.31671">
        <ele>113</ele>
        <time>2012-02-26T13:46:52Z</time>
      </trkpt>
      <trkpt lat="48.68681" lon="-2.31663">
        <ele>113</ele>
        <time>2012-02-26T13:47:02Z</time>
      </trkpt>
      <trkpt lat="48.68675" lon="-2.31661">
        <ele>114</ele>
        <time>2012-02-26T13:47:09Z</time>
      </trkpt>
      <trkpt lat="48.68668" lon="-2.3166">
        <ele>114</ele>
        <time>2012-02-26T13:47:15Z</time>
      </trkpt>
      <trkpt lat="48.68661" lon="-2.31656">
        <ele>114</ele>
        <time>2012-02-26T13:47:20Z</time>
      </trkpt>
      <trkpt lat="48.68654" lon="-2.31655">
        <ele>114</ele>
        <time>2012-02-26T13:47:25Z</time>
      </trkpt>
      <trkpt lat="48.68647" lon="-2.31653">
        <ele>114</ele>
        <time>2012-02-26T13:47:31Z</time>
      </trkpt>
      <trkpt lat="48.6864" lon="-2.31651">
        <ele>114</ele>
        <time>2012-02-26T13:47:34Z</time>
      </trkpt>
      <trkpt lat="48.68633" lon="-2.31649">
        <ele>114</ele>
        <time>2012-02-26T13:47:39Z</time>
      </trkpt>
      <trkpt lat="48.68627" lon="-2.31644">
        <ele>114</ele>
        <time>2012-02-26T13:47:55Z</time>
      </trkpt>
      <trkpt lat="48.68614" lon="-2.31646">
        <ele>113</ele>
        <time>2012-02-26T13:49:31Z</time>
      </trkpt>
      <trkpt lat="48.68608" lon="-2.31648">
        <ele>113</ele>
        <time>2012-02-26T13:49:38Z</time>
      </trkpt>
      <trkpt lat="48.68603" lon="-2.3164">
        <ele>113</ele>
        <time>2012-02-26T13:49:49Z</time>
      </trkpt>
      <trkpt lat="48.68597" lon="-2.31638">
        <ele>113</ele>
        <time>2012-02-26T13:49:55Z</time>
      </trkpt>
      <trkpt lat="48.6859" lon="-2.31639">
        <ele>112</ele>
        <time>2012-02-26T13:50:01Z</time>
      </trkpt>
      <trkpt lat="48.68584" lon="-2.31643">
        <ele>112</ele>
        <time>2012-02-26T13:50:07Z</time>
      </trkpt>
      <trkpt lat="48.68578" lon="-2.31648">
        <ele>112</ele>
        <time>2012-02-26T13:50:13Z</time>
      </trkpt>
      <trkpt lat="48.68571" lon="-2.31649">
        <ele>112</ele>
        <time>2012-02-26T13:50:19Z</time>
      </trkpt>
      <trkpt lat="48.68566" lon="-2.31644">
        <ele>111</ele>
        <time>2012-02-26T13:50:26Z</time>
      </trkpt>
      <trkpt lat="48.6856" lon="-2.31637">
        <ele>111</ele>
        <time>2012-02-26T13:50:33Z</time>
      </trkpt>
      <trkpt lat="48.68554" lon="-2.31635">
        <ele>111</ele>
        <time>2012-02-26T13:50:39Z</time>
      </trkpt>
      <trkpt lat="48.68547" lon="-2.31634">
        <ele>111</ele>
        <time>2012-02-26T13:50:46Z</time>
      </trkpt>
      <trkpt lat="48.6854" lon="-2.31635">
        <ele>110</ele>
        <time>2012-02-26T13:51:06Z</time>
      </trkpt>
      <trkpt lat="48.68534" lon="-2.3163">
        <ele>110</ele>
        <time>2012-02-26T13:51:12Z</time>
      </trkpt>
      <trkpt lat="48.68516" lon="-2.31612">
        <ele>109</ele>
        <time>2012-02-26T13:51:30Z</time>
      </trkpt>
      <trkpt lat="48.68511" lon="-2.31607">
        <ele>108</ele>
        <time>2012-02-26T13:51:35Z</time>
      </trkpt>
      <trkpt lat="48.68504" lon="-2.31603">
        <ele>108</ele>
        <time>2012-02-26T13:51:41Z</time>
      </trkpt>
      <trkpt lat="48.68494" lon="-2.3159">
        <ele>108</ele>
        <time>2012-02-26T13:51:54Z</time>
      </trkpt>
      <trkpt lat="48.6849" lon="-2.31583">
        <ele>107</ele>
        <time>2012-02-26T13:52:02Z</time>
      </trkpt>
      <trkpt lat="48.68487" lon="-2.31574">
        <ele>107</ele>
        <time>2012-02-26T13:52:08Z</time>
      </trkpt>
      <trkpt lat="48.68482" lon="-2.31567">
        <ele>107</ele>
        <time>2012-02-26T13:52:15Z</time>
      </trkpt>
      <trkpt lat="48.68476" lon="-2.31563">
        <ele>107</ele>
        <time>2012-02-26T13:52:23Z</time>
      </trkpt>
      <trkpt lat="48.6847" lon="-2.31559">
        <ele>107</ele>
        <time>2012-02-26T13:52:32Z</time>
      </trkpt>
      <trkpt lat="48.68465" lon="-2.31553">
        <ele>107</ele>
        <time>2012-02-26T13:52:39Z</time>
      </trkpt>
      <trkpt lat="48.68459" lon="-2.31546">
        <ele>107</ele>
        <time>2012-02-26T13:52:46Z</time>
      </trkpt>
      <trkpt lat="48.68454" lon="-2.3154">
        <ele>107</ele>
        <time>2012-02-26T13:52:52Z</time>
      </trkpt>
      <trkpt lat="48.68448" lon="-2.31534">
        <ele>107</ele>
        <time>2012-02-26T13:52:58Z</time>
      </trkpt>
      <trkpt lat="48.68442" lon="-2.3153">
        <ele>107</ele>
        <time>2012-02-26T13:53:04Z</time>
      </trkpt>
      <trkpt lat="48.68436" lon="-2.31529">
        <ele>108</ele>
        <time>2012-02-26T13:53:10Z</time>
      </trkpt>
      <trkpt lat="48.6843" lon="-2.3153">
        <ele>108</ele>
        <time>2012-02-26T13:53:16Z</time>
      </trkpt>
      <trkpt lat="48.68422" lon="-2.3153">
        <ele>108</ele>
        <time>2012-02-26T13:53:23Z</time>
      </trkpt>
      <trkpt lat="48.68415" lon="-2.3153">
        <ele>108</ele>
        <time>2012-02-26T13:53:30Z</time>
      </trkpt>
      <trkpt lat="48.68408" lon="-2.3153">
        <ele>108</ele>
        <time>2012-02-26T13:53:37Z</time>
      </trkpt>
      <trkpt lat="48.68402" lon="-2.3153">
        <ele>109</ele>
        <time>2012-02-26T13:53:45Z</time>
      </trkpt>
      <trkpt lat="48.68395" lon="-2.31527">
        <ele>109</ele>
        <time>2012-02-26T13:53:52Z</time>
      </trkpt>
      <trkpt lat="48.68389" lon="-2.31524">
        <ele>109</ele>
        <time>2012-02-26T13:53:58Z</time>
      </trkpt>
      <trkpt lat="48.68383" lon="-2.31522">
        <ele>110</ele>
        <time>2012-02-26T13:54:04Z</time>
      </trkpt>
      <trkpt lat="48.68376" lon="-2.31521">
        <ele>110</ele>
        <time>2012-02-26T13:54:10Z</time>
      </trkpt>
      <trkpt lat="48.6837" lon="-2.31521">
        <ele>110</ele>
        <time>2012-02-26T13:54:16Z</time>
      </trkpt>
      <trkpt lat="48.68363" lon="-2.31521">
        <ele>111</ele>
        <time>2012-02-26T13:54:22Z</time>
      </trkpt>
      <trkpt lat="48.68357" lon="-2.3152">
        <ele>111</ele>
        <time>2012-02-26T13:54:27Z</time>
      </trkpt>
      <trkpt lat="48.68349" lon="-2.31522">
        <ele>112</ele>
        <time>2012-02-26T13:54:33Z</time>
      </trkpt>
      <trkpt lat="48.68342" lon="-2.31525">
        <ele>112</ele>
        <time>2012-02-26T13:54:39Z</time>
      </trkpt>
      <trkpt lat="48.68335" lon="-2.31526">
        <ele>112</ele>
        <time>2012-02-26T13:54:45Z</time>
      </trkpt>
      <trkpt lat="48.68328" lon="-2.31528">
        <ele>112</ele>
        <time>2012-02-26T13:54:51Z</time>
      </trkpt>
      <trkpt lat="48.68322" lon="-2.3153">
        <ele>112</ele>
        <time>2012-02-26T13:54:57Z</time>
      </trkpt>
      <trkpt lat="48.68315" lon="-2.3153">
        <ele>112</ele>
        <time>2012-02-26T13:55:04Z</time>
      </trkpt>
      <trkpt lat="48.68309" lon="-2.31529">
        <ele>112</ele>
        <time>2012-02-26T13:55:11Z</time>
      </trkpt>
      <trkpt lat="48.68302" lon="-2.31528">
        <ele>113</ele>
        <time>2012-02-26T13:55:17Z</time>
      </trkpt>
      <trkpt lat="48.68295" lon="-2.31527">
        <ele>113</ele>
        <time>2012-02-26T13:55:24Z</time>
      </trkpt>
      <trkpt lat="48.68289" lon="-2.31524">
        <ele>113</ele>
        <time>2012-02-26T13:55:30Z</time>
      </trkpt>
      <trkpt lat="48.68282" lon="-2.31522">
        <ele>113</ele>
        <time>2012-02-26T13:55:37Z</time>
      </trkpt>
      <trkpt lat="48.68275" lon="-2.31518">
        <ele>113</ele>
        <time>2012-02-26T13:55:44Z</time>
      </trkpt>
      <trkpt lat="48.68269" lon="-2.31513">
        <ele>114</ele>
        <time>2012-02-26T13:55:51Z</time>
      </trkpt>
      <trkpt lat="48.68262" lon="-2.31509">
        <ele>114</ele>
        <time>2012-02-26T13:55:58Z</time>
      </trkpt>
      <trkpt lat="48.68256" lon="-2.31504">
        <ele>114</ele>
        <time>2012-02-26T13:56:05Z</time>
      </trkpt>
      <trkpt lat="48.6825" lon="-2.315">
        <ele>114</ele>
        <time>2012-02-26T13:56:12Z</time>
      </trkpt>
      <trkpt lat="48.68243" lon="-2.31495">
        <ele>114</ele>
        <time>2012-02-26T13:56:19Z</time>
      </trkpt>
      <trkpt lat="48.68238" lon="-2.31489">
        <ele>115</ele>
        <time>2012-02-26T13:56:25Z</time>
      </trkpt>
      <trkpt lat="48.68232" lon="-2.31483">
        <ele>115</ele>
        <time>2012-02-26T13:56:30Z</time>
      </trkpt>
      <trkpt lat="48.68226" lon="-2.31478">
        <ele>115</ele>
        <time>2012-02-26T13:56:35Z</time>
      </trkpt>
      <trkpt lat="48.68221" lon="-2.31473">
        <ele>115</ele>
        <time>2012-02-26T13:56:40Z</time>
      </trkpt>
      <trkpt lat="48.68215" lon="-2.31469">
        <ele>115</ele>
        <time>2012-02-26T13:56:45Z</time>
      </trkpt>
      <trkpt lat="48.68208" lon="-2.31465">
        <ele>115</ele>
        <time>2012-02-26T13:56:51Z</time>
      </trkpt>
      <trkpt lat="48.68203" lon="-2.3146">
        <ele>115</ele>
        <time>2012-02-26T13:56:57Z</time>
      </trkpt>
      <trkpt lat="48.68197" lon="-2.31455">
        <ele>115</ele>
        <time>2012-02-26T13:57:06Z</time>
      </trkpt>
      <trkpt lat="48.68191" lon="-2.31451">
        <ele>115</ele>
        <time>2012-02-26T13:57:13Z</time>
      </trkpt>
      <trkpt lat="48.68179" lon="-2.31444">
        <ele>116</ele>
        <time>2012-02-26T13:57:27Z</time>
      </trkpt>
      <trkpt lat="48.68172" lon="-2.31442">
        <ele>116</ele>
        <time>2012-02-26T13:57:35Z</time>
      </trkpt>
      <trkpt lat="48.68165" lon="-2.31439">
        <ele>116</ele>
        <time>2012-02-26T13:57:42Z</time>
      </trkpt>
      <trkpt lat="48.6816" lon="-2.31434">
        <ele>117</ele>
        <time>2012-02-26T13:57:51Z</time>
      </trkpt>
      <trkpt lat="48.68154" lon="-2.3143">
        <ele>117</ele>
        <time>2012-02-26T13:57:56Z</time>
      </trkpt>
      <trkpt lat="48.68148" lon="-2.31425">
        <ele>117</ele>
        <time>2012-02-26T13:58:02Z</time>
      </trkpt>
      <trkpt lat="48.68142" lon="-2.31421">
        <ele>117</ele>
        <time>2012-02-26T13:58:08Z</time>
      </trkpt>
      <trkpt lat="48.68136" lon="-2.31419">
        <ele>117</ele>
        <time>2012-02-26T13:58:15Z</time>
      </trkpt>
      <trkpt lat="48.68129" lon="-2.31416">
        <ele>118</ele>
        <time>2012-02-26T13:58:23Z</time>
      </trkpt>
      <trkpt lat="48.68123" lon="-2.31413">
        <ele>118</ele>
        <time>2012-02-26T13:58:30Z</time>
      </trkpt>
      <trkpt lat="48.68116" lon="-2.31409">
        <ele>118</ele>
        <time>2012-02-26T13:58:36Z</time>
      </trkpt>
      <trkpt lat="48.6811" lon="-2.31406">
        <ele>119</ele>
        <time>2012-02-26T13:58:42Z</time>
      </trkpt>
      <trkpt lat="48.68103" lon="-2.31404">
        <ele>119</ele>
        <time>2012-02-26T13:58:48Z</time>
      </trkpt>
      <trkpt lat="48.68096" lon="-2.31402">
        <ele>119</ele>
        <time>2012-02-26T13:58:55Z</time>
      </trkpt>
      <trkpt lat="48.6809" lon="-2.31399">
        <ele>119</ele>
        <time>2012-02-26T13:59:02Z</time>
      </trkpt>
      <trkpt lat="48.68084" lon="-2.31396">
        <ele>120</ele>
        <time>2012-02-26T13:59:08Z</time>
      </trkpt>
      <trkpt lat="48.68077" lon="-2.31394">
        <ele>120</ele>
        <time>2012-02-26T13:59:14Z</time>
      </trkpt>
      <trkpt lat="48.68071" lon="-2.31391">
        <ele>120</ele>
        <time>2012-02-26T13:59:20Z</time>
      </trkpt>
      <trkpt lat="48.68065" lon="-2.31389">
        <ele>120</ele>
        <time>2012-02-26T13:59:26Z</time>
      </trkpt>
      <trkpt lat="48.68059" lon="-2.31386">
        <ele>121</ele>
        <time>2012-02-26T13:59:32Z</time>
      </trkpt>
      <trkpt lat="48.68052" lon="-2.31381">
        <ele>121</ele>
        <time>2012-02-26T13:59:38Z</time>
      </trkpt>
      <trkpt lat="48.68047" lon="-2.31376">
        <ele>121</ele>
        <time>2012-02-26T13:59:44Z</time>
      </trkpt>
      <trkpt lat="48.6804" lon="-2.31371">
        <ele>121</ele>
        <time>2012-02-26T13:59:51Z</time>
      </trkpt>
      <trkpt lat="48.68034" lon="-2.31367">
        <ele>121</ele>
        <time>2012-02-26T13:59:57Z</time>
      </trkpt>
      <trkpt lat="48.68028" lon="-2.31364">
        <ele>121</ele>
        <time>2012-02-26T14:00:02Z</time>
      </trkpt>
      <trkpt lat="48.68022" lon="-2.31361">
        <ele>121</ele>
        <time>2012-02-26T14:00:08Z</time>
      </trkpt>
      <trkpt lat="48.68015" lon="-2.31357">
        <ele>121</ele>
        <time>2012-02-26T14:00:15Z</time>
      </trkpt>
      <trkpt lat="48.68008" lon="-2.31354">
        <ele>121</ele>
        <time>2012-02-26T14:00:21Z</time>
      </trkpt>
      <trkpt lat="48.68002" lon="-2.31353">
        <ele>121</ele>
        <time>2012-02-26T14:00:27Z</time>
      </trkpt>
      <trkpt lat="48.67996" lon="-2.31349">
        <ele>121</ele>
        <time>2012-02-26T14:00:33Z</time>
      </trkpt>
      <trkpt lat="48.67989" lon="-2.31345">
        <ele>121</ele>
        <time>2012-02-26T14:00:39Z</time>
      </trkpt>
      <trkpt lat="48.67982" lon="-2.31342">
        <ele>120</ele>
        <time>2012-02-26T14:00:45Z</time>
      </trkpt>
      <trkpt lat="48.67976" lon="-2.31339">
        <ele>120</ele>
        <time>2012-02-26T14:00:51Z</time>
      </trkpt>
      <trkpt lat="48.67969" lon="-2.3134">
        <ele>120</ele>
        <time>2012-02-26T14:00:57Z</time>
      </trkpt>
      <trkpt lat="48.67965" lon="-2.31347">
        <ele>120</ele>
        <time>2012-02-26T14:01:03Z</time>
      </trkpt>
      <trkpt lat="48.67962" lon="-2.31357">
        <ele>120</ele>
        <time>2012-02-26T14:01:09Z</time>
      </trkpt>
      <trkpt lat="48.67958" lon="-2.31366">
        <ele>119</ele>
        <time>2012-02-26T14:01:15Z</time>
      </trkpt>
      <trkpt lat="48.67953" lon="-2.31372">
        <ele>119</ele>
        <time>2012-02-26T14:01:20Z</time>
      </trkpt>
      <trkpt lat="48.67947" lon="-2.31376">
        <ele>119</ele>
        <time>2012-02-26T14:01:25Z</time>
      </trkpt>
      <trkpt lat="48.67941" lon="-2.31379">
        <ele>118</ele>
        <time>2012-02-26T14:01:31Z</time>
      </trkpt>
      <trkpt lat="48.67934" lon="-2.31383">
        <ele>118</ele>
        <time>2012-02-26T14:01:37Z</time>
      </trkpt>
      <trkpt lat="48.67927" lon="-2.31386">
        <ele>118</ele>
        <time>2012-02-26T14:01:43Z</time>
      </trkpt>
      <trkpt lat="48.67921" lon="-2.3139">
        <ele>117</ele>
        <time>2012-02-26T14:01:49Z</time>
      </trkpt>
      <trkpt lat="48.67915" lon="-2.31395">
        <ele>117</ele>
        <time>2012-02-26T14:01:55Z</time>
      </trkpt>
      <trkpt lat="48.67909" lon="-2.31399">
        <ele>116</ele>
        <time>2012-02-26T14:02:01Z</time>
      </trkpt>
      <trkpt lat="48.67902" lon="-2.31402">
        <ele>116</ele>
        <time>2012-02-26T14:02:07Z</time>
      </trkpt>
      <trkpt lat="48.67896" lon="-2.31407">
        <ele>116</ele>
        <time>2012-02-26T14:02:12Z</time>
      </trkpt>
      <trkpt lat="48.6789" lon="-2.31411">
        <ele>115</ele>
        <time>2012-02-26T14:02:18Z</time>
      </trkpt>
      <trkpt lat="48.67883" lon="-2.31415">
        <ele>115</ele>
        <time>2012-02-26T14:02:25Z</time>
      </trkpt>
      <trkpt lat="48.67877" lon="-2.31418">
        <ele>115</ele>
        <time>2012-02-26T14:02:32Z</time>
      </trkpt>
      <trkpt lat="48.6787" lon="-2.31422">
        <ele>115</ele>
        <time>2012-02-26T14:02:39Z</time>
      </trkpt>
      <trkpt lat="48.67864" lon="-2.31425">
        <ele>115</ele>
        <time>2012-02-26T14:02:46Z</time>
      </trkpt>
      <trkpt lat="48.67858" lon="-2.31431">
        <ele>114</ele>
        <time>2012-02-26T14:02:53Z</time>
      </trkpt>
      <trkpt lat="48.67852" lon="-2.31433">
        <ele>114</ele>
        <time>2012-02-26T14:03:00Z</time>
      </trkpt>
      <trkpt lat="48.67846" lon="-2.31436">
        <ele>114</ele>
        <time>2012-02-26T14:03:06Z</time>
      </trkpt>
      <trkpt lat="48.67839" lon="-2.31437">
        <ele>114</ele>
        <time>2012-02-26T14:03:12Z</time>
      </trkpt>
      <trkpt lat="48.67832" lon="-2.31438">
        <ele>114</ele>
        <time>2012-02-26T14:03:18Z</time>
      </trkpt>
      <trkpt lat="48.67824" lon="-2.31439">
        <ele>114</ele>
        <time>2012-02-26T14:03:24Z</time>
      </trkpt>
      <trkpt lat="48.67818" lon="-2.3144">
        <ele>114</ele>
        <time>2012-02-26T14:03:29Z</time>
      </trkpt>
      <trkpt lat="48.67811" lon="-2.31444">
        <ele>114</ele>
        <time>2012-02-26T14:03:35Z</time>
      </trkpt>
      <trkpt lat="48.67804" lon="-2.31448">
        <ele>114</ele>
        <time>2012-02-26T14:03:41Z</time>
      </trkpt>
      <trkpt lat="48.67798" lon="-2.3145">
        <ele>113</ele>
        <time>2012-02-26T14:03:47Z</time>
      </trkpt>
      <trkpt lat="48.67791" lon="-2.3145">
        <ele>113</ele>
        <time>2012-02-26T14:03:53Z</time>
      </trkpt>
      <trkpt lat="48.67785" lon="-2.3145">
        <ele>113</ele>
        <time>2012-02-26T14:03:59Z</time>
      </trkpt>
      <trkpt lat="48.67779" lon="-2.31455">
        <ele>113</ele>
        <time>2012-02-26T14:04:04Z</time>
      </trkpt>
      <trkpt lat="48.67774" lon="-2.31464">
        <ele>113</ele>
        <time>2012-02-26T14:04:11Z</time>
      </trkpt>
      <trkpt lat="48.67769" lon="-2.31471">
        <ele>113</ele>
        <time>2012-02-26T14:04:17Z</time>
      </trkpt>
      <trkpt lat="48.67763" lon="-2.31478">
        <ele>113</ele>
        <time>2012-02-26T14:04:29Z</time>
      </trkpt>
      <trkpt lat="48.67757" lon="-2.31481">
        <ele>113</ele>
        <time>2012-02-26T14:04:35Z</time>
      </trkpt>
      <trkpt lat="48.6775" lon="-2.31487">
        <ele>113</ele>
        <time>2012-02-26T14:04:42Z</time>
      </trkpt>
      <trkpt lat="48.67744" lon="-2.31491">
        <ele>112</ele>
        <time>2012-02-26T14:04:48Z</time>
      </trkpt>
      <trkpt lat="48.67737" lon="-2.31493">
        <ele>112</ele>
        <time>2012-02-26T14:04:53Z</time>
      </trkpt>
      <trkpt lat="48.6773" lon="-2.31495">
        <ele>112</ele>
        <time>2012-02-26T14:04:59Z</time>
      </trkpt>
      <trkpt lat="48.67705" lon="-2.31506">
        <ele>112</ele>
        <time>2012-02-26T14:05:20Z</time>
      </trkpt>
      <trkpt lat="48.67699" lon="-2.31511">
        <ele>112</ele>
        <time>2012-02-26T14:05:25Z</time>
      </trkpt>
      <trkpt lat="48.67692" lon="-2.31514">
        <ele>112</ele>
        <time>2012-02-26T14:05:30Z</time>
      </trkpt>
      <trkpt lat="48.67686" lon="-2.31518">
        <ele>112</ele>
        <time>2012-02-26T14:05:35Z</time>
      </trkpt>
      <trkpt lat="48.67679" lon="-2.3152">
        <ele>112</ele>
        <time>2012-02-26T14:05:40Z</time>
      </trkpt>
      <trkpt lat="48.67673" lon="-2.31521">
        <ele>113</ele>
        <time>2012-02-26T14:05:46Z</time>
      </trkpt>
      <trkpt lat="48.67666" lon="-2.31522">
        <ele>113</ele>
        <time>2012-02-26T14:05:51Z</time>
      </trkpt>
      <trkpt lat="48.67659" lon="-2.31525">
        <ele>113</ele>
        <time>2012-02-26T14:05:57Z</time>
      </trkpt>
      <trkpt lat="48.67653" lon="-2.31527">
        <ele>112</ele>
        <time>2012-02-26T14:06:07Z</time>
      </trkpt>
      <trkpt lat="48.67649" lon="-2.31534">
        <ele>112</ele>
        <time>2012-02-26T14:06:11Z</time>
      </trkpt>
      <trkpt lat="48.67642" lon="-2.31538">
        <ele>112</ele>
        <time>2012-02-26T14:06:20Z</time>
      </trkpt>
      <trkpt lat="48.67636" lon="-2.31543">
        <ele>112</ele>
        <time>2012-02-26T14:06:27Z</time>
      </trkpt>
      <trkpt lat="48.67629" lon="-2.31543">
        <ele>112</ele>
        <time>2012-02-26T14:06:34Z</time>
      </trkpt>
      <trkpt lat="48.67622" lon="-2.31543">
        <ele>112</ele>
        <time>2012-02-26T14:06:40Z</time>
      </trkpt>
      <trkpt lat="48.67616" lon="-2.31544">
        <ele>112</ele>
        <time>2012-02-26T14:06:46Z</time>
      </trkpt>
      <trkpt lat="48.67596" lon="-2.3155">
        <ele>112</ele>
        <time>2012-02-26T14:07:03Z</time>
      </trkpt>
      <trkpt lat="48.6759" lon="-2.31548">
        <ele>112</ele>
        <time>2012-02-26T14:07:10Z</time>
      </trkpt>
      <trkpt lat="48.67584" lon="-2.31545">
        <ele>112</ele>
        <time>2012-02-26T14:07:15Z</time>
      </trkpt>
      <trkpt lat="48.67578" lon="-2.31542">
        <ele>112</ele>
        <time>2012-02-26T14:07:19Z</time>
      </trkpt>
      <trkpt lat="48.67571" lon="-2.31543">
        <ele>112</ele>
        <time>2012-02-26T14:07:25Z</time>
      </trkpt>
      <trkpt lat="48.67564" lon="-2.31546">
        <ele>112</ele>
        <time>2012-02-26T14:07:31Z</time>
      </trkpt>
      <trkpt lat="48.67559" lon="-2.31553">
        <ele>112</ele>
        <time>2012-02-26T14:07:38Z</time>
      </trkpt>
      <trkpt lat="48.67554" lon="-2.3156">
        <ele>111</ele>
        <time>2012-02-26T14:07:45Z</time>
      </trkpt>
      <trkpt lat="48.67549" lon="-2.31567">
        <ele>111</ele>
        <time>2012-02-26T14:07:51Z</time>
      </trkpt>
      <trkpt lat="48.67545" lon="-2.31575">
        <ele>111</ele>
        <time>2012-02-26T14:07:57Z</time>
      </trkpt>
      <trkpt lat="48.67541" lon="-2.31583">
        <ele>111</ele>
        <time>2012-02-26T14:08:03Z</time>
      </trkpt>
      <trkpt lat="48.67538" lon="-2.31593">
        <ele>110</ele>
        <time>2012-02-26T14:08:09Z</time>
      </trkpt>
      <trkpt lat="48.67535" lon="-2.31603">
        <ele>110</ele>
        <time>2012-02-26T14:08:15Z</time>
      </trkpt>
      <trkpt lat="48.67533" lon="-2.31613">
        <ele>110</ele>
        <time>2012-02-26T14:08:21Z</time>
      </trkpt>
      <trkpt lat="48.6753" lon="-2.31623">
        <ele>110</ele>
        <time>2012-02-26T14:08:27Z</time>
      </trkpt>
      <trkpt lat="48.67527" lon="-2.31634">
        <ele>109</ele>
        <time>2012-02-26T14:08:33Z</time>
      </trkpt>
      <trkpt lat="48.67524" lon="-2.31643">
        <ele>109</ele>
        <time>2012-02-26T14:08:39Z</time>
      </trkpt>
      <trkpt lat="48.6752" lon="-2.3165">
        <ele>109</ele>
        <time>2012-02-26T14:08:44Z</time>
      </trkpt>
      <trkpt lat="48.67515" lon="-2.31657">
        <ele>109</ele>
        <time>2012-02-26T14:08:49Z</time>
      </trkpt>
      <trkpt lat="48.67511" lon="-2.31665">
        <ele>109</ele>
        <time>2012-02-26T14:08:55Z</time>
      </trkpt>
      <trkpt lat="48.67506" lon="-2.31673">
        <ele>109</ele>
        <time>2012-02-26T14:09:03Z</time>
      </trkpt>
      <trkpt lat="48.67489" lon="-2.31673">
        <ele>108</ele>
        <time>2012-02-26T14:09:42Z</time>
      </trkpt>
      <trkpt lat="48.67486" lon="-2.31662">
        <ele>108</ele>
        <time>2012-02-26T14:09:46Z</time>
      </trkpt>
      <trkpt lat="48.67485" lon="-2.31628">
        <ele>108</ele>
        <time>2012-02-26T14:09:59Z</time>
      </trkpt>
      <trkpt lat="48.67487" lon="-2.31619">
        <ele>108</ele>
        <time>2012-02-26T14:10:03Z</time>
      </trkpt>
      <trkpt lat="48.6749" lon="-2.31609">
        <ele>107</ele>
        <time>2012-02-26T14:10:08Z</time>
      </trkpt>
      <trkpt lat="48.67489" lon="-2.31598">
        <ele>107</ele>
        <time>2012-02-26T14:10:16Z</time>
      </trkpt>
      <trkpt lat="48.67485" lon="-2.3159">
        <ele>107</ele>
        <time>2012-02-26T14:10:23Z</time>
      </trkpt>
      <trkpt lat="48.6748" lon="-2.31596">
        <ele>107</ele>
        <time>2012-02-26T14:10:31Z</time>
      </trkpt>
      <trkpt lat="48.67468" lon="-2.31594">
        <ele>106</ele>
        <time>2012-02-26T14:10:58Z</time>
      </trkpt>
      <trkpt lat="48.67466" lon="-2.31584">
        <ele>106</ele>
        <time>2012-02-26T14:11:14Z</time>
      </trkpt>
      <trkpt lat="48.67468" lon="-2.31575">
        <ele>106</ele>
        <time>2012-02-26T14:11:20Z</time>
      </trkpt>
      <trkpt lat="48.67463" lon="-2.31568">
        <ele>107</ele>
        <time>2012-02-26T14:11:28Z</time>
      </trkpt>
      <trkpt lat="48.67455" lon="-2.3157">
        <ele>107</ele>
        <time>2012-02-26T14:11:33Z</time>
      </trkpt>
      <trkpt lat="48.67448" lon="-2.31573">
        <ele>107</ele>
        <time>2012-02-26T14:11:38Z</time>
      </trkpt>
      <trkpt lat="48.67441" lon="-2.31572">
        <ele>108</ele>
        <time>2012-02-26T14:11:44Z</time>
      </trkpt>
      <trkpt lat="48.67435" lon="-2.31571">
        <ele>108</ele>
        <time>2012-02-26T14:11:50Z</time>
      </trkpt>
      <trkpt lat="48.67428" lon="-2.31568">
        <ele>109</ele>
        <time>2012-02-26T14:11:57Z</time>
      </trkpt>
      <trkpt lat="48.67422" lon="-2.31565">
        <ele>109</ele>
        <time>2012-02-26T14:12:02Z</time>
      </trkpt>
      <trkpt lat="48.67415" lon="-2.31563">
        <ele>110</ele>
        <time>2012-02-26T14:12:08Z</time>
      </trkpt>
      <trkpt lat="48.67408" lon="-2.31562">
        <ele>110</ele>
        <time>2012-02-26T14:12:14Z</time>
      </trkpt>
      <trkpt lat="48.674" lon="-2.31561">
        <ele>111</ele>
        <time>2012-02-26T14:12:20Z</time>
      </trkpt>
      <trkpt lat="48.67393" lon="-2.3156">
        <ele>111</ele>
        <time>2012-02-26T14:12:26Z</time>
      </trkpt>
      <trkpt lat="48.67386" lon="-2.31559">
        <ele>111</ele>
        <time>2012-02-26T14:12:31Z</time>
      </trkpt>
      <trkpt lat="48.6738" lon="-2.31556">
        <ele>112</ele>
        <time>2012-02-26T14:12:36Z</time>
      </trkpt>
      <trkpt lat="48.67373" lon="-2.31554">
        <ele>112</ele>
        <time>2012-02-26T14:12:41Z</time>
      </trkpt>
      <trkpt lat="48.67366" lon="-2.31552">
        <ele>112</ele>
        <time>2012-02-26T14:12:47Z</time>
      </trkpt>
      <trkpt lat="48.6736" lon="-2.31551">
        <ele>112</ele>
        <time>2012-02-26T14:12:52Z</time>
      </trkpt>
      <trkpt lat="48.67353" lon="-2.31552">
        <ele>112</ele>
        <time>2012-02-26T14:12:58Z</time>
      </trkpt>
      <trkpt lat="48.67346" lon="-2.3155">
        <ele>113</ele>
        <time>2012-02-26T14:13:05Z</time>
      </trkpt>
      <trkpt lat="48.67339" lon="-2.31549">
        <ele>113</ele>
        <time>2012-02-26T14:13:11Z</time>
      </trkpt>
      <trkpt lat="48.67332" lon="-2.31545">
        <ele>113</ele>
        <time>2012-02-26T14:13:17Z</time>
      </trkpt>
      <trkpt lat="48.67326" lon="-2.31542">
        <ele>113</ele>
        <time>2012-02-26T14:13:23Z</time>
      </trkpt>
      <trkpt lat="48.6732" lon="-2.31537">
        <ele>113</ele>
        <time>2012-02-26T14:13:29Z</time>
      </trkpt>
      <trkpt lat="48.67315" lon="-2.31532">
        <ele>113</ele>
        <time>2012-02-26T14:13:35Z</time>
      </trkpt>
      <trkpt lat="48.67309" lon="-2.31526">
        <ele>113</ele>
        <time>2012-02-26T14:13:41Z</time>
      </trkpt>
      <trkpt lat="48.67302" lon="-2.31522">
        <ele>113</ele>
        <time>2012-02-26T14:13:47Z</time>
      </trkpt>
      <trkpt lat="48.67295" lon="-2.31519">
        <ele>114</ele>
        <time>2012-02-26T14:13:53Z</time>
      </trkpt>
      <trkpt lat="48.67288" lon="-2.31517">
        <ele>114</ele>
        <time>2012-02-26T14:13:59Z</time>
      </trkpt>
      <trkpt lat="48.67282" lon="-2.31512">
        <ele>114</ele>
        <time>2012-02-26T14:14:04Z</time>
      </trkpt>
      <trkpt lat="48.67278" lon="-2.31504">
        <ele>114</ele>
        <time>2012-02-26T14:14:09Z</time>
      </trkpt>
      <trkpt lat="48.67276" lon="-2.31495">
        <ele>114</ele>
        <time>2012-02-26T14:14:14Z</time>
      </trkpt>
      <trkpt lat="48.67272" lon="-2.31486">
        <ele>114</ele>
        <time>2012-02-26T14:14:20Z</time>
      </trkpt>
      <trkpt lat="48.67254" lon="-2.31469">
        <ele>114</ele>
        <time>2012-02-26T14:14:37Z</time>
      </trkpt>
      <trkpt lat="48.67248" lon="-2.31463">
        <ele>114</ele>
        <time>2012-02-26T14:14:43Z</time>
      </trkpt>
      <trkpt lat="48.67244" lon="-2.31455">
        <ele>114</ele>
        <time>2012-02-26T14:14:49Z</time>
      </trkpt>
      <trkpt lat="48.67241" lon="-2.31444">
        <ele>114</ele>
        <time>2012-02-26T14:14:55Z</time>
      </trkpt>
      <trkpt lat="48.67241" lon="-2.31435">
        <ele>114</ele>
        <time>2012-02-26T14:15:00Z</time>
      </trkpt>
      <trkpt lat="48.67238" lon="-2.31426">
        <ele>114</ele>
        <time>2012-02-26T14:15:06Z</time>
      </trkpt>
      <trkpt lat="48.67235" lon="-2.31416">
        <ele>114</ele>
        <time>2012-02-26T14:15:13Z</time>
      </trkpt>
      <trkpt lat="48.67231" lon="-2.31407">
        <ele>114</ele>
        <time>2012-02-26T14:15:20Z</time>
      </trkpt>
      <trkpt lat="48.67226" lon="-2.31401">
        <ele>114</ele>
        <time>2012-02-26T14:15:26Z</time>
      </trkpt>
      <trkpt lat="48.67222" lon="-2.31393">
        <ele>114</ele>
        <time>2012-02-26T14:15:32Z</time>
      </trkpt>
      <trkpt lat="48.67213" lon="-2.3138">
        <ele>114</ele>
        <time>2012-02-26T14:15:49Z</time>
      </trkpt>
      <trkpt lat="48.67206" lon="-2.31374">
        <ele>113</ele>
        <time>2012-02-26T14:15:54Z</time>
      </trkpt>
      <trkpt lat="48.67199" lon="-2.3137">
        <ele>113</ele>
        <time>2012-02-26T14:15:59Z</time>
      </trkpt>
      <trkpt lat="48.67193" lon="-2.31365">
        <ele>114</ele>
        <time>2012-02-26T14:16:04Z</time>
      </trkpt>
      <trkpt lat="48.67188" lon="-2.31358">
        <ele>114</ele>
        <time>2012-02-26T14:16:10Z</time>
      </trkpt>
      <trkpt lat="48.67183" lon="-2.31352">
        <ele>114</ele>
        <time>2012-02-26T14:16:17Z</time>
      </trkpt>
      <trkpt lat="48.67178" lon="-2.31343">
        <ele>113</ele>
        <time>2012-02-26T14:16:24Z</time>
      </trkpt>
      <trkpt lat="48.67172" lon="-2.31338">
        <ele>113</ele>
        <time>2012-02-26T14:16:28Z</time>
      </trkpt>
      <trkpt lat="48.67158" lon="-2.31318">
        <ele>113</ele>
        <time>2012-02-26T14:16:43Z</time>
      </trkpt>
      <trkpt lat="48.67155" lon="-2.31308">
        <ele>113</ele>
        <time>2012-02-26T14:16:50Z</time>
      </trkpt>
      <trkpt lat="48.6715" lon="-2.31302">
        <ele>113</ele>
        <time>2012-02-26T14:16:55Z</time>
      </trkpt>
      <trkpt lat="48.67137" lon="-2.31295">
        <ele>112</ele>
        <time>2012-02-26T14:17:05Z</time>
      </trkpt>
      <trkpt lat="48.67122" lon="-2.31295">
        <ele>112</ele>
        <time>2012-02-26T14:17:15Z</time>
      </trkpt>
      <trkpt lat="48.67103" lon="-2.31286">
        <ele>112</ele>
        <time>2012-02-26T14:17:30Z</time>
      </trkpt>
      <trkpt lat="48.67098" lon="-2.31281">
        <ele>112</ele>
        <time>2012-02-26T14:17:35Z</time>
      </trkpt>
      <trkpt lat="48.67087" lon="-2.31269">
        <ele>111</ele>
        <time>2012-02-26T14:17:46Z</time>
      </trkpt>
      <trkpt lat="48.67072" lon="-2.31248">
        <ele>111</ele>
        <time>2012-02-26T14:18:02Z</time>
      </trkpt>
      <trkpt lat="48.67068" lon="-2.31241">
        <ele>111</ele>
        <time>2012-02-26T14:18:07Z</time>
      </trkpt>
      <trkpt lat="48.67063" lon="-2.31234">
        <ele>112</ele>
        <time>2012-02-26T14:18:12Z</time>
      </trkpt>
      <trkpt lat="48.67059" lon="-2.31227">
        <ele>112</ele>
        <time>2012-02-26T14:18:16Z</time>
      </trkpt>
      <trkpt lat="48.67055" lon="-2.31217">
        <ele>112</ele>
        <time>2012-02-26T14:18:24Z</time>
      </trkpt>
      <trkpt lat="48.67052" lon="-2.31208">
        <ele>112</ele>
        <time>2012-02-26T14:18:29Z</time>
      </trkpt>
      <trkpt lat="48.67048" lon="-2.31199">
        <ele>111</ele>
        <time>2012-02-26T14:18:34Z</time>
      </trkpt>
      <trkpt lat="48.67044" lon="-2.31191">
        <ele>111</ele>
        <time>2012-02-26T14:18:40Z</time>
      </trkpt>
      <trkpt lat="48.6704" lon="-2.31183">
        <ele>111</ele>
        <time>2012-02-26T14:18:46Z</time>
      </trkpt>
      <trkpt lat="48.67032" lon="-2.31166">
        <ele>111</ele>
        <time>2012-02-26T14:19:00Z</time>
      </trkpt>
      <trkpt lat="48.6702" lon="-2.31159">
        <ele>111</ele>
        <time>2012-02-26T14:19:14Z</time>
      </trkpt>
      <trkpt lat="48.67013" lon="-2.31161">
        <ele>111</ele>
        <time>2012-02-26T14:19:20Z</time>
      </trkpt>
      <trkpt lat="48.67006" lon="-2.31163">
        <ele>110</ele>
        <time>2012-02-26T14:19:27Z</time>
      </trkpt>
      <trkpt lat="48.67" lon="-2.31164">
        <ele>111</ele>
        <time>2012-02-26T14:19:31Z</time>
      </trkpt>
      <trkpt lat="48.66993" lon="-2.31165">
        <ele>111</ele>
        <time>2012-02-26T14:19:35Z</time>
      </trkpt>
      <trkpt lat="48.66979" lon="-2.31169">
        <ele>111</ele>
        <time>2012-02-26T14:19:47Z</time>
      </trkpt>
      <trkpt lat="48.66972" lon="-2.31168">
        <ele>111</ele>
        <time>2012-02-26T14:19:52Z</time>
      </trkpt>
      <trkpt lat="48.66965" lon="-2.31169">
        <ele>111</ele>
        <time>2012-02-26T14:20:01Z</time>
      </trkpt>
      <trkpt lat="48.66951" lon="-2.31166">
        <ele>111</ele>
        <time>2012-02-26T14:20:10Z</time>
      </trkpt>
      <trkpt lat="48.66945" lon="-2.31161">
        <ele>111</ele>
        <time>2012-02-26T14:20:16Z</time>
      </trkpt>
      <trkpt lat="48.66942" lon="-2.31153">
        <ele>111</ele>
        <time>2012-02-26T14:20:33Z</time>
      </trkpt>
      <trkpt lat="48.66949" lon="-2.31136">
        <ele>111</ele>
        <time>2012-02-26T14:21:31Z</time>
      </trkpt>
      <trkpt lat="48.66955" lon="-2.31128">
        <ele>111</ele>
        <time>2012-02-26T14:21:37Z</time>
      </trkpt>
      <trkpt lat="48.6696" lon="-2.31122">
        <ele>111</ele>
        <time>2012-02-26T14:21:42Z</time>
      </trkpt>
      <trkpt lat="48.66969" lon="-2.31096">
        <ele>110</ele>
        <time>2012-02-26T14:22:09Z</time>
      </trkpt>
      <trkpt lat="48.66965" lon="-2.31088">
        <ele>110</ele>
        <time>2012-02-26T14:22:25Z</time>
      </trkpt>
      <trkpt lat="48.66965" lon="-2.31078">
        <ele>110</ele>
        <time>2012-02-26T14:22:38Z</time>
      </trkpt>
      <trkpt lat="48.66966" lon="-2.31069">
        <ele>110</ele>
        <time>2012-02-26T14:22:43Z</time>
      </trkpt>
      <trkpt lat="48.66969" lon="-2.31059">
        <ele>109</ele>
        <time>2012-02-26T14:22:52Z</time>
      </trkpt>
      <trkpt lat="48.66966" lon="-2.31041">
        <ele>109</ele>
        <time>2012-02-26T14:23:07Z</time>
      </trkpt>
      <trkpt lat="48.66961" lon="-2.31033">
        <ele>108</ele>
        <time>2012-02-26T14:23:12Z</time>
      </trkpt>
      <trkpt lat="48.66957" lon="-2.31025">
        <ele>108</ele>
        <time>2012-02-26T14:23:18Z</time>
      </trkpt>
      <trkpt lat="48.66952" lon="-2.31017">
        <ele>108</ele>
        <time>2012-02-26T14:23:24Z</time>
      </trkpt>
      <trkpt lat="48.66947" lon="-2.31009">
        <ele>108</ele>
        <time>2012-02-26T14:23:30Z</time>
      </trkpt>
      <trkpt lat="48.66942" lon="-2.31001">
        <ele>108</ele>
        <time>2012-02-26T14:23:36Z</time>
      </trkpt>
      <trkpt lat="48.66938" lon="-2.30993">
        <ele>108</ele>
        <time>2012-02-26T14:23:42Z</time>
      </trkpt>
      <trkpt lat="48.66934" lon="-2.30985">
        <ele>108</ele>
        <time>2012-02-26T14:23:53Z</time>
      </trkpt>
      <trkpt lat="48.66931" lon="-2.30975">
        <ele>108</ele>
        <time>2012-02-26T14:24:00Z</time>
      </trkpt>
      <trkpt lat="48.6693" lon="-2.30966">
        <ele>108</ele>
        <time>2012-02-26T14:24:06Z</time>
      </trkpt>
      <trkpt lat="48.66928" lon="-2.30956">
        <ele>108</ele>
        <time>2012-02-26T14:24:12Z</time>
      </trkpt>
      <trkpt lat="48.66924" lon="-2.30947">
        <ele>108</ele>
        <time>2012-02-26T14:24:18Z</time>
      </trkpt>
      <trkpt lat="48.6692" lon="-2.30939">
        <ele>107</ele>
        <time>2012-02-26T14:24:24Z</time>
      </trkpt>
      <trkpt lat="48.6691" lon="-2.30924">
        <ele>107</ele>
        <time>2012-02-26T14:24:36Z</time>
      </trkpt>
      <trkpt lat="48.66905" lon="-2.30917">
        <ele>107</ele>
        <time>2012-02-26T14:24:42Z</time>
      </trkpt>
      <trkpt lat="48.66897" lon="-2.30901">
        <ele>108</ele>
        <time>2012-02-26T14:24:55Z</time>
      </trkpt>
      <trkpt lat="48.66895" lon="-2.30892">
        <ele>108</ele>
        <time>2012-02-26T14:25:01Z</time>
      </trkpt>
      <trkpt lat="48.66893" lon="-2.30871">
        <ele>108</ele>
        <time>2012-02-26T14:25:13Z</time>
      </trkpt>
      <trkpt lat="48.66891" lon="-2.30861">
        <ele>108</ele>
        <time>2012-02-26T14:25:18Z</time>
      </trkpt>
      <trkpt lat="48.66888" lon="-2.3085">
        <ele>108</ele>
        <time>2012-02-26T14:25:24Z</time>
      </trkpt>
      <trkpt lat="48.66885" lon="-2.30841">
        <ele>108</ele>
        <time>2012-02-26T14:25:30Z</time>
      </trkpt>
      <trkpt lat="48.66884" lon="-2.30831">
        <ele>108</ele>
        <time>2012-02-26T14:25:36Z</time>
      </trkpt>
      <trkpt lat="48.66881" lon="-2.30822">
        <ele>108</ele>
        <time>2012-02-26T14:25:42Z</time>
      </trkpt>
      <trkpt lat="48.66872" lon="-2.30795">
        <ele>109</ele>
        <time>2012-02-26T14:26:00Z</time>
      </trkpt>
      <trkpt lat="48.66862" lon="-2.30766">
        <ele>110</ele>
        <time>2012-02-26T14:26:18Z</time>
      </trkpt>
      <trkpt lat="48.66859" lon="-2.30758">
        <ele>111</ele>
        <time>2012-02-26T14:26:23Z</time>
      </trkpt>
      <trkpt lat="48.66851" lon="-2.30742">
        <ele>111</ele>
        <time>2012-02-26T14:26:32Z</time>
      </trkpt>
      <trkpt lat="48.66848" lon="-2.30732">
        <ele>112</ele>
        <time>2012-02-26T14:26:37Z</time>
      </trkpt>
      <trkpt lat="48.66845" lon="-2.30722">
        <ele>112</ele>
        <time>2012-02-26T14:26:43Z</time>
      </trkpt>
      <trkpt lat="48.66844" lon="-2.30711">
        <ele>112</ele>
        <time>2012-02-26T14:26:49Z</time>
      </trkpt>
      <trkpt lat="48.66844" lon="-2.307">
        <ele>112</ele>
        <time>2012-02-26T14:26:54Z</time>
      </trkpt>
      <trkpt lat="48.66845" lon="-2.3069">
        <ele>113</ele>
        <time>2012-02-26T14:26:59Z</time>
      </trkpt>
      <trkpt lat="48.66844" lon="-2.30679">
        <ele>113</ele>
        <time>2012-02-26T14:27:05Z</time>
      </trkpt>
      <trkpt lat="48.66843" lon="-2.30669">
        <ele>113</ele>
        <time>2012-02-26T14:27:10Z</time>
      </trkpt>
      <trkpt lat="48.66842" lon="-2.30659">
        <ele>113</ele>
        <time>2012-02-26T14:27:15Z</time>
      </trkpt>
      <trkpt lat="48.66838" lon="-2.30652">
        <ele>113</ele>
        <time>2012-02-26T14:27:20Z</time>
      </trkpt>
      <trkpt lat="48.66831" lon="-2.30635">
        <ele>114</ele>
        <time>2012-02-26T14:27:34Z</time>
      </trkpt>
      <trkpt lat="48.66829" lon="-2.30624">
        <ele>114</ele>
        <time>2012-02-26T14:27:43Z</time>
      </trkpt>
      <trkpt lat="48.66823" lon="-2.30595">
        <ele>114</ele>
        <time>2012-02-26T14:27:59Z</time>
      </trkpt>
      <trkpt lat="48.66822" lon="-2.30584">
        <ele>113</ele>
        <time>2012-02-26T14:28:05Z</time>
      </trkpt>
      <trkpt lat="48.6682" lon="-2.30574">
        <ele>113</ele>
        <time>2012-02-26T14:28:10Z</time>
      </trkpt>
      <trkpt lat="48.6681" lon="-2.30547">
        <ele>113</ele>
        <time>2012-02-26T14:28:28Z</time>
      </trkpt>
      <trkpt lat="48.66807" lon="-2.30538">
        <ele>113</ele>
        <time>2012-02-26T14:28:34Z</time>
      </trkpt>
      <trkpt lat="48.66802" lon="-2.30508">
        <ele>113</ele>
        <time>2012-02-26T14:28:55Z</time>
      </trkpt>
      <trkpt lat="48.668" lon="-2.30497">
        <ele>113</ele>
        <time>2012-02-26T14:29:01Z</time>
      </trkpt>
      <trkpt lat="48.6679" lon="-2.3047">
        <ele>113</ele>
        <time>2012-02-26T14:29:21Z</time>
      </trkpt>
      <trkpt lat="48.66786" lon="-2.30462">
        <ele>114</ele>
        <time>2012-02-26T14:29:28Z</time>
      </trkpt>
      <trkpt lat="48.66778" lon="-2.30444">
        <ele>115</ele>
        <time>2012-02-26T14:29:41Z</time>
      </trkpt>
      <trkpt lat="48.66769" lon="-2.30413">
        <ele>115</ele>
        <time>2012-02-26T14:29:57Z</time>
      </trkpt>
      <trkpt lat="48.66767" lon="-2.30402">
        <ele>115</ele>
        <time>2012-02-26T14:30:03Z</time>
      </trkpt>
      <trkpt lat="48.66756" lon="-2.30377">
        <ele>116</ele>
        <time>2012-02-26T14:30:19Z</time>
      </trkpt>
      <trkpt lat="48.66751" lon="-2.30369">
        <ele>116</ele>
        <time>2012-02-26T14:30:27Z</time>
      </trkpt>
      <trkpt lat="48.66747" lon="-2.30361">
        <ele>116</ele>
        <time>2012-02-26T14:30:32Z</time>
      </trkpt>
      <trkpt lat="48.66743" lon="-2.30352">
        <ele>116</ele>
        <time>2012-02-26T14:30:38Z</time>
      </trkpt>
      <trkpt lat="48.66738" lon="-2.30344">
        <ele>115</ele>
        <time>2012-02-26T14:30:43Z</time>
      </trkpt>
      <trkpt lat="48.66733" lon="-2.30337">
        <ele>115</ele>
        <time>2012-02-26T14:30:49Z</time>
      </trkpt>
      <trkpt lat="48.66728" lon="-2.30331">
        <ele>116</ele>
        <time>2012-02-26T14:30:58Z</time>
      </trkpt>
      <trkpt lat="48.66724" lon="-2.30324">
        <ele>116</ele>
        <time>2012-02-26T14:31:05Z</time>
      </trkpt>
      <trkpt lat="48.66719" lon="-2.30317">
        <ele>116</ele>
        <time>2012-02-26T14:31:13Z</time>
      </trkpt>
      <trkpt lat="48.66716" lon="-2.30287">
        <ele>116</ele>
        <time>2012-02-26T14:31:42Z</time>
      </trkpt>
      <trkpt lat="48.66716" lon="-2.30276">
        <ele>116</ele>
        <time>2012-02-26T14:31:46Z</time>
      </trkpt>
      <trkpt lat="48.66716" lon="-2.30265">
        <ele>116</ele>
        <time>2012-02-26T14:31:50Z</time>
      </trkpt>
      <trkpt lat="48.66717" lon="-2.30255">
        <ele>116</ele>
        <time>2012-02-26T14:31:55Z</time>
      </trkpt>
      <trkpt lat="48.6672" lon="-2.30234">
        <ele>116</ele>
        <time>2012-02-26T14:32:04Z</time>
      </trkpt>
      <trkpt lat="48.6672" lon="-2.30224">
        <ele>116</ele>
        <time>2012-02-26T14:32:10Z</time>
      </trkpt>
      <trkpt lat="48.6672" lon="-2.30213">
        <ele>116</ele>
        <time>2012-02-26T14:32:17Z</time>
      </trkpt>
      <trkpt lat="48.6672" lon="-2.30202">
        <ele>116</ele>
        <time>2012-02-26T14:32:25Z</time>
      </trkpt>
      <trkpt lat="48.66723" lon="-2.30183">
        <ele>116</ele>
        <time>2012-02-26T14:32:40Z</time>
      </trkpt>
      <trkpt lat="48.66728" lon="-2.30164">
        <ele>116</ele>
        <time>2012-02-26T14:32:55Z</time>
      </trkpt>
      <trkpt lat="48.66729" lon="-2.30143">
        <ele>116</ele>
        <time>2012-02-26T14:33:08Z</time>
      </trkpt>
      <trkpt lat="48.66726" lon="-2.30113">
        <ele>115</ele>
        <time>2012-02-26T14:33:31Z</time>
      </trkpt>
      <trkpt lat="48.66719" lon="-2.30096">
        <ele>115</ele>
        <time>2012-02-26T14:33:45Z</time>
      </trkpt>
      <trkpt lat="48.66712" lon="-2.30066">
        <ele>114</ele>
        <time>2012-02-26T14:34:20Z</time>
      </trkpt>
      <trkpt lat="48.66712" lon="-2.30057">
        <ele>114</ele>
        <time>2012-02-26T14:34:26Z</time>
      </trkpt>
      <trkpt lat="48.66712" lon="-2.30046">
        <ele>114</ele>
        <time>2012-02-26T14:34:32Z</time>
      </trkpt>
      <trkpt lat="48.66713" lon="-2.30036">
        <ele>114</ele>
        <time>2012-02-26T14:34:38Z</time>
      </trkpt>
      <trkpt lat="48.6671" lon="-2.30016">
        <ele>114</ele>
        <time>2012-02-26T14:34:50Z</time>
      </trkpt>
      <trkpt lat="48.66705" lon="-2.29985">
        <ele>114</ele>
        <time>2012-02-26T14:35:45Z</time>
      </trkpt>
      <trkpt lat="48.66706" lon="-2.29974">
        <ele>114</ele>
        <time>2012-02-26T14:35:50Z</time>
      </trkpt>
      <trkpt lat="48.66706" lon="-2.29953">
        <ele>114</ele>
        <time>2012-02-26T14:36:01Z</time>
      </trkpt>
      <trkpt lat="48.66704" lon="-2.29943">
        <ele>114</ele>
        <time>2012-02-26T14:36:22Z</time>
      </trkpt>
      <trkpt lat="48.66693" lon="-2.29917">
        <ele>114</ele>
        <time>2012-02-26T14:36:39Z</time>
      </trkpt>
      <trkpt lat="48.66692" lon="-2.29908">
        <ele>114</ele>
        <time>2012-02-26T14:36:44Z</time>
      </trkpt>
      <trkpt lat="48.6669" lon="-2.29897">
        <ele>114</ele>
        <time>2012-02-26T14:36:49Z</time>
      </trkpt>
      <trkpt lat="48.66689" lon="-2.29886">
        <ele>114</ele>
        <time>2012-02-26T14:36:55Z</time>
      </trkpt>
      <trkpt lat="48.66689" lon="-2.29875">
        <ele>114</ele>
        <time>2012-02-26T14:36:59Z</time>
      </trkpt>
      <trkpt lat="48.6669" lon="-2.29864">
        <ele>114</ele>
        <time>2012-02-26T14:37:03Z</time>
      </trkpt>
      <trkpt lat="48.66691" lon="-2.29854">
        <ele>114</ele>
        <time>2012-02-26T14:37:08Z</time>
      </trkpt>
      <trkpt lat="48.66692" lon="-2.29843">
        <ele>114</ele>
        <time>2012-02-26T14:37:11Z</time>
      </trkpt>
      <trkpt lat="48.66692" lon="-2.29832">
        <ele>114</ele>
        <time>2012-02-26T14:37:15Z</time>
      </trkpt>
      <trkpt lat="48.6669" lon="-2.29823">
        <ele>114</ele>
        <time>2012-02-26T14:37:18Z</time>
      </trkpt>
      <trkpt lat="48.66687" lon="-2.29813">
        <ele>114</ele>
        <time>2012-02-26T14:37:23Z</time>
      </trkpt>
      <trkpt lat="48.66684" lon="-2.29804">
        <ele>114</ele>
        <time>2012-02-26T14:37:28Z</time>
      </trkpt>
      <trkpt lat="48.66681" lon="-2.29795">
        <ele>114</ele>
        <time>2012-02-26T14:37:33Z</time>
      </trkpt>
      <trkpt lat="48.66679" lon="-2.29785">
        <ele>114</ele>
        <time>2012-02-26T14:37:38Z</time>
      </trkpt>
      <trkpt lat="48.66681" lon="-2.29765">
        <ele>114</ele>
        <time>2012-02-26T14:37:58Z</time>
      </trkpt>
      <trkpt lat="48.66689" lon="-2.29737">
        <ele>113</ele>
        <time>2012-02-26T14:38:11Z</time>
      </trkpt>
      <trkpt lat="48.66693" lon="-2.29727">
        <ele>113</ele>
        <time>2012-02-26T14:38:16Z</time>
      </trkpt>
      <trkpt lat="48.66699" lon="-2.29721">
        <ele>113</ele>
        <time>2012-02-26T14:38:21Z</time>
      </trkpt>
      <trkpt lat="48.66711" lon="-2.29712">
        <ele>112</ele>
        <time>2012-02-26T14:38:30Z</time>
      </trkpt>
      <trkpt lat="48.66715" lon="-2.29705">
        <ele>112</ele>
        <time>2012-02-26T14:38:35Z</time>
      </trkpt>
      <trkpt lat="48.66719" lon="-2.29697">
        <ele>111</ele>
        <time>2012-02-26T14:38:40Z</time>
      </trkpt>
      <trkpt lat="48.66721" lon="-2.29686">
        <ele>111</ele>
        <time>2012-02-26T14:38:46Z</time>
      </trkpt>
      <trkpt lat="48.66722" lon="-2.29675">
        <ele>110</ele>
        <time>2012-02-26T14:38:52Z</time>
      </trkpt>
      <trkpt lat="48.66721" lon="-2.29655">
        <ele>109</ele>
        <time>2012-02-26T14:39:04Z</time>
      </trkpt>
      <trkpt lat="48.66722" lon="-2.29644">
        <ele>109</ele>
        <time>2012-02-26T14:39:10Z</time>
      </trkpt>
      <trkpt lat="48.66723" lon="-2.29634">
        <ele>109</ele>
        <time>2012-02-26T14:39:15Z</time>
      </trkpt>
      <trkpt lat="48.66725" lon="-2.29623">
        <ele>108</ele>
        <time>2012-02-26T14:39:20Z</time>
      </trkpt>
      <trkpt lat="48.66726" lon="-2.29603">
        <ele>108</ele>
        <time>2012-02-26T14:39:30Z</time>
      </trkpt>
      <trkpt lat="48.66727" lon="-2.29592">
        <ele>108</ele>
        <time>2012-02-26T14:39:35Z</time>
      </trkpt>
      <trkpt lat="48.66728" lon="-2.29582">
        <ele>108</ele>
        <time>2012-02-26T14:39:40Z</time>
      </trkpt>
      <trkpt lat="48.66732" lon="-2.29573">
        <ele>108</ele>
        <time>2012-02-26T14:39:45Z</time>
      </trkpt>
      <trkpt lat="48.66739" lon="-2.29558">
        <ele>107</ele>
        <time>2012-02-26T14:39:58Z</time>
      </trkpt>
      <trkpt lat="48.6674" lon="-2.29548">
        <ele>107</ele>
        <time>2012-02-26T14:40:03Z</time>
      </trkpt>
      <trkpt lat="48.66741" lon="-2.29538">
        <ele>106</ele>
        <time>2012-02-26T14:40:09Z</time>
      </trkpt>
      <trkpt lat="48.66734" lon="-2.29534">
        <ele>105</ele>
        <time>2012-02-26T14:40:55Z</time>
      </trkpt>
      <trkpt lat="48.66728" lon="-2.29536">
        <ele>105</ele>
        <time>2012-02-26T14:41:02Z</time>
      </trkpt>
      <trkpt lat="48.66722" lon="-2.29537">
        <ele>105</ele>
        <time>2012-02-26T14:41:12Z</time>
      </trkpt>
      <trkpt lat="48.66713" lon="-2.29523">
        <ele>105</ele>
        <time>2012-02-26T14:42:03Z</time>
      </trkpt>
      <trkpt lat="48.66705" lon="-2.29511">
        <ele>106</ele>
        <time>2012-02-26T14:51:42Z</time>
      </trkpt>
      <trkpt lat="48.66709" lon="-2.29518">
        <ele>106</ele>
        <time>2012-02-26T14:52:02Z</time>
      </trkpt>
      <trkpt lat="48.66713" lon="-2.29525">
        <ele>106</ele>
        <time>2012-02-26T14:52:18Z</time>
      </trkpt>
      <trkpt lat="48.66719" lon="-2.2953">
        <ele>106</ele>
        <time>2012-02-26T14:53:00Z</time>
      </trkpt>
      <trkpt lat="48.66712" lon="-2.29523">
        <ele>106</ele>
        <time>2012-02-26T15:03:57Z</time>
      </trkpt>
      <trkpt lat="48.66712" lon="-2.29523">
        <ele>55.9</ele>
        <time>2012-02-26T15:04:15Z</time>
      </trkpt>
      <trkpt lat="48.66712" lon="-2.29523">
        <ele>55.9</ele>
        <time>2012-02-26T15:13:40Z</time>
      </trkpt>
      <trkpt lat="48.66717" lon="-2.2953">
        <ele>106</ele>
        <time>2012-02-26T15:13:54Z</time>
      </trkpt>
      <trkpt lat="48.66724" lon="-2.29529">
        <ele>106</ele>
        <time>2012-02-26T15:14:04Z</time>
      </trkpt>
      <trkpt lat="48.66741" lon="-2.2952">
        <ele>105</ele>
        <time>2012-02-26T15:14:23Z</time>
      </trkpt>
      <trkpt lat="48.66741" lon="-2.29509">
        <ele>105</ele>
        <time>2012-02-26T15:14:31Z</time>
      </trkpt>
      <trkpt lat="48.66746" lon="-2.29491">
        <ele>104</ele>
        <time>2012-02-26T15:14:46Z</time>
      </trkpt>
      <trkpt lat="48.66749" lon="-2.29461">
        <ele>103</ele>
        <time>2012-02-26T15:15:05Z</time>
      </trkpt>
      <trkpt lat="48.66749" lon="-2.2945">
        <ele>103</ele>
        <time>2012-02-26T15:15:11Z</time>
      </trkpt>
      <trkpt lat="48.66751" lon="-2.29439">
        <ele>103</ele>
        <time>2012-02-26T15:15:17Z</time>
      </trkpt>
      <trkpt lat="48.66752" lon="-2.29428">
        <ele>103</ele>
        <time>2012-02-26T15:15:23Z</time>
      </trkpt>
      <trkpt lat="48.66753" lon="-2.29418">
        <ele>103</ele>
        <time>2012-02-26T15:15:28Z</time>
      </trkpt>
      <trkpt lat="48.66755" lon="-2.29407">
        <ele>103</ele>
        <time>2012-02-26T15:15:33Z</time>
      </trkpt>
      <trkpt lat="48.66757" lon="-2.29397">
        <ele>103</ele>
        <time>2012-02-26T15:15:39Z</time>
      </trkpt>
      <trkpt lat="48.66757" lon="-2.29387">
        <ele>103</ele>
        <time>2012-02-26T15:15:43Z</time>
      </trkpt>
      <trkpt lat="48.66756" lon="-2.29367">
        <ele>103</ele>
        <time>2012-02-26T15:15:53Z</time>
      </trkpt>
      <trkpt lat="48.66756" lon="-2.29356">
        <ele>103</ele>
        <time>2012-02-26T15:15:59Z</time>
      </trkpt>
      <trkpt lat="48.66755" lon="-2.29346">
        <ele>103</ele>
        <time>2012-02-26T15:16:03Z</time>
      </trkpt>
      <trkpt lat="48.66754" lon="-2.29335">
        <ele>103</ele>
        <time>2012-02-26T15:16:09Z</time>
      </trkpt>
      <trkpt lat="48.66751" lon="-2.29305">
        <ele>103</ele>
        <time>2012-02-26T15:16:24Z</time>
      </trkpt>
      <trkpt lat="48.66751" lon="-2.29295">
        <ele>103</ele>
        <time>2012-02-26T15:16:30Z</time>
      </trkpt>
      <trkpt lat="48.66749" lon="-2.29286">
        <ele>102</ele>
        <time>2012-02-26T15:16:45Z</time>
      </trkpt>
      <trkpt lat="48.66744" lon="-2.29278">
        <ele>102</ele>
        <time>2012-02-26T15:16:50Z</time>
      </trkpt>
      <trkpt lat="48.66737" lon="-2.29251">
        <ele>102</ele>
        <time>2012-02-26T15:17:06Z</time>
      </trkpt>
      <trkpt lat="48.66737" lon="-2.29241">
        <ele>102</ele>
        <time>2012-02-26T15:17:10Z</time>
      </trkpt>
      <trkpt lat="48.66735" lon="-2.29229">
        <ele>102</ele>
        <time>2012-02-26T15:17:14Z</time>
      </trkpt>
      <trkpt lat="48.66732" lon="-2.29221">
        <ele>102</ele>
        <time>2012-02-26T15:17:18Z</time>
      </trkpt>
      <trkpt lat="48.66727" lon="-2.29212">
        <ele>102</ele>
        <time>2012-02-26T15:17:24Z</time>
      </trkpt>
      <trkpt lat="48.66716" lon="-2.29197">
        <ele>102</ele>
        <time>2012-02-26T15:17:34Z</time>
      </trkpt>
      <trkpt lat="48.66701" lon="-2.29173">
        <ele>101</ele>
        <time>2012-02-26T15:17:48Z</time>
      </trkpt>
      <trkpt lat="48.66697" lon="-2.29165">
        <ele>101</ele>
        <time>2012-02-26T15:17:53Z</time>
      </trkpt>
      <trkpt lat="48.66692" lon="-2.29144">
        <ele>101</ele>
        <time>2012-02-26T15:18:05Z</time>
      </trkpt>
      <trkpt lat="48.66692" lon="-2.29134">
        <ele>101</ele>
        <time>2012-02-26T15:18:11Z</time>
      </trkpt>
      <trkpt lat="48.66687" lon="-2.29115">
        <ele>101</ele>
        <time>2012-02-26T15:18:20Z</time>
      </trkpt>
      <trkpt lat="48.66685" lon="-2.29106">
        <ele>101</ele>
        <time>2012-02-26T15:18:26Z</time>
      </trkpt>
      <trkpt lat="48.66699" lon="-2.29101">
        <ele>101</ele>
        <time>2012-02-26T15:18:46Z</time>
      </trkpt>
      <trkpt lat="48.66705" lon="-2.29102">
        <ele>101</ele>
        <time>2012-02-26T15:18:51Z</time>
      </trkpt>
      <trkpt lat="48.66709" lon="-2.29094">
        <ele>101</ele>
        <time>2012-02-26T15:18:58Z</time>
      </trkpt>
      <trkpt lat="48.6671" lon="-2.29084">
        <ele>101</ele>
        <time>2012-02-26T15:19:05Z</time>
      </trkpt>
      <trkpt lat="48.66708" lon="-2.29074">
        <ele>101</ele>
        <time>2012-02-26T15:19:09Z</time>
      </trkpt>
      <trkpt lat="48.66706" lon="-2.29065">
        <ele>101</ele>
        <time>2012-02-26T15:19:15Z</time>
      </trkpt>
      <trkpt lat="48.66704" lon="-2.29056">
        <ele>101</ele>
        <time>2012-02-26T15:19:19Z</time>
      </trkpt>
      <trkpt lat="48.66703" lon="-2.29046">
        <ele>101</ele>
        <time>2012-02-26T15:19:25Z</time>
      </trkpt>
      <trkpt lat="48.66702" lon="-2.29017">
        <ele>101</ele>
        <time>2012-02-26T15:19:42Z</time>
      </trkpt>
      <trkpt lat="48.66706" lon="-2.29009">
        <ele>100</ele>
        <time>2012-02-26T15:19:48Z</time>
      </trkpt>
      <trkpt lat="48.66706" lon="-2.28998">
        <ele>100</ele>
        <time>2012-02-26T15:19:55Z</time>
      </trkpt>
      <trkpt lat="48.66696" lon="-2.2896">
        <ele>99</ele>
        <time>2012-02-26T15:21:00Z</time>
      </trkpt>
      <trkpt lat="48.66694" lon="-2.28948">
        <ele>99</ele>
        <time>2012-02-26T15:21:04Z</time>
      </trkpt>
      <trkpt lat="48.66689" lon="-2.28907">
        <ele>98</ele>
        <time>2012-02-26T15:21:21Z</time>
      </trkpt>
      <trkpt lat="48.66689" lon="-2.28895">
        <ele>98</ele>
        <time>2012-02-26T15:21:27Z</time>
      </trkpt>
      <trkpt lat="48.66689" lon="-2.28885">
        <ele>98</ele>
        <time>2012-02-26T15:21:32Z</time>
      </trkpt>
      <trkpt lat="48.6669" lon="-2.28875">
        <ele>98</ele>
        <time>2012-02-26T15:21:37Z</time>
      </trkpt>
      <trkpt lat="48.66691" lon="-2.28863">
        <ele>98</ele>
        <time>2012-02-26T15:21:39Z</time>
      </trkpt>
      <trkpt lat="48.66691" lon="-2.28852">
        <ele>98</ele>
        <time>2012-02-26T15:21:44Z</time>
      </trkpt>
      <trkpt lat="48.66692" lon="-2.28842">
        <ele>98</ele>
        <time>2012-02-26T15:21:48Z</time>
      </trkpt>
      <trkpt lat="48.66693" lon="-2.28831">
        <ele>98</ele>
        <time>2012-02-26T15:21:53Z</time>
      </trkpt>
      <trkpt lat="48.66692" lon="-2.28821">
        <ele>98</ele>
        <time>2012-02-26T15:22:02Z</time>
      </trkpt>
      <trkpt lat="48.66693" lon="-2.28811">
        <ele>98</ele>
        <time>2012-02-26T15:22:10Z</time>
      </trkpt>
      <trkpt lat="48.66692" lon="-2.28801">
        <ele>98</ele>
        <time>2012-02-26T15:22:18Z</time>
      </trkpt>
      <trkpt lat="48.66695" lon="-2.28792">
        <ele>98</ele>
        <time>2012-02-26T15:22:25Z</time>
      </trkpt>
      <trkpt lat="48.66693" lon="-2.28782">
        <ele>97</ele>
        <time>2012-02-26T15:22:31Z</time>
      </trkpt>
      <trkpt lat="48.66675" lon="-2.28768">
        <ele>97</ele>
        <time>2012-02-26T15:23:04Z</time>
      </trkpt>
      <trkpt lat="48.66671" lon="-2.28777">
        <ele>96</ele>
        <time>2012-02-26T15:23:09Z</time>
      </trkpt>
      <trkpt lat="48.66659" lon="-2.2879">
        <ele>96</ele>
        <time>2012-02-26T15:23:20Z</time>
      </trkpt>
      <trkpt lat="48.66661" lon="-2.288">
        <ele>96</ele>
        <time>2012-02-26T15:23:30Z</time>
      </trkpt>
      <trkpt lat="48.66668" lon="-2.28796">
        <ele>96</ele>
        <time>2012-02-26T15:23:36Z</time>
      </trkpt>
      <trkpt lat="48.6668" lon="-2.28782">
        <ele>96</ele>
        <time>2012-02-26T15:23:40Z</time>
      </trkpt>
      <trkpt lat="48.66685" lon="-2.28774">
        <ele>96</ele>
        <time>2012-02-26T15:23:45Z</time>
      </trkpt>
      <trkpt lat="48.66686" lon="-2.28762">
        <ele>96</ele>
        <time>2012-02-26T15:23:51Z</time>
      </trkpt>
      <trkpt lat="48.66691" lon="-2.28743">
        <ele>95</ele>
        <time>2012-02-26T15:23:57Z</time>
      </trkpt>
      <trkpt lat="48.66693" lon="-2.28722">
        <ele>95</ele>
        <time>2012-02-26T15:24:06Z</time>
      </trkpt>
      <trkpt lat="48.66691" lon="-2.28711">
        <ele>94</ele>
        <time>2012-02-26T15:24:26Z</time>
      </trkpt>
      <trkpt lat="48.66695" lon="-2.28719">
        <ele>94</ele>
        <time>2012-02-26T15:24:33Z</time>
      </trkpt>
      <trkpt lat="48.66689" lon="-2.28715">
        <ele>92</ele>
        <time>2012-02-26T15:25:55Z</time>
      </trkpt>
      <trkpt lat="48.66685" lon="-2.28708">
        <ele>92</ele>
        <time>2012-02-26T15:26:00Z</time>
      </trkpt>
      <trkpt lat="48.6668" lon="-2.28702">
        <ele>91</ele>
        <time>2012-02-26T15:26:05Z</time>
      </trkpt>
      <trkpt lat="48.66667" lon="-2.28698">
        <ele>90</ele>
        <time>2012-02-26T15:26:16Z</time>
      </trkpt>
      <trkpt lat="48.6666" lon="-2.28694">
        <ele>90</ele>
        <time>2012-02-26T15:26:23Z</time>
      </trkpt>
      <trkpt lat="48.66655" lon="-2.28689">
        <ele>90</ele>
        <time>2012-02-26T15:26:29Z</time>
      </trkpt>
      <trkpt lat="48.66649" lon="-2.28685">
        <ele>89</ele>
        <time>2012-02-26T15:26:37Z</time>
      </trkpt>
      <trkpt lat="48.66643" lon="-2.28679">
        <ele>89</ele>
        <time>2012-02-26T15:26:44Z</time>
      </trkpt>
      <trkpt lat="48.66638" lon="-2.28675">
        <ele>89</ele>
        <time>2012-02-26T15:26:52Z</time>
      </trkpt>
      <trkpt lat="48.66621" lon="-2.28682">
        <ele>88</ele>
        <time>2012-02-26T15:27:11Z</time>
      </trkpt>
      <trkpt lat="48.66616" lon="-2.28689">
        <ele>88</ele>
        <time>2012-02-26T15:27:17Z</time>
      </trkpt>
      <trkpt lat="48.66611" lon="-2.28696">
        <ele>88</ele>
        <time>2012-02-26T15:27:29Z</time>
      </trkpt>
      <trkpt lat="48.66605" lon="-2.28701">
        <ele>87</ele>
        <time>2012-02-26T15:27:40Z</time>
      </trkpt>
      <trkpt lat="48.66599" lon="-2.28704">
        <ele>87</ele>
        <time>2012-02-26T15:27:48Z</time>
      </trkpt>
      <trkpt lat="48.66591" lon="-2.28691">
        <ele>85</ele>
        <time>2012-02-26T15:28:15Z</time>
      </trkpt>
      <trkpt lat="48.66587" lon="-2.28681">
        <ele>85</ele>
        <time>2012-02-26T15:28:20Z</time>
      </trkpt>
      <trkpt lat="48.66582" lon="-2.28675">
        <ele>85</ele>
        <time>2012-02-26T15:28:26Z</time>
      </trkpt>
      <trkpt lat="48.6657" lon="-2.28662">
        <ele>84</ele>
        <time>2012-02-26T15:29:15Z</time>
      </trkpt>
      <trkpt lat="48.66551" lon="-2.28667">
        <ele>83</ele>
        <time>2012-02-26T15:29:33Z</time>
      </trkpt>
      <trkpt lat="48.66544" lon="-2.28665">
        <ele>83</ele>
        <time>2012-02-26T15:29:40Z</time>
      </trkpt>
      <trkpt lat="48.66537" lon="-2.2866">
        <ele>83</ele>
        <time>2012-02-26T15:29:44Z</time>
      </trkpt>
      <trkpt lat="48.66531" lon="-2.28655">
        <ele>83</ele>
        <time>2012-02-26T15:29:49Z</time>
      </trkpt>
      <trkpt lat="48.66526" lon="-2.2865">
        <ele>82</ele>
        <time>2012-02-26T15:29:54Z</time>
      </trkpt>
      <trkpt lat="48.66521" lon="-2.28643">
        <ele>82</ele>
        <time>2012-02-26T15:29:58Z</time>
      </trkpt>
      <trkpt lat="48.66517" lon="-2.28634">
        <ele>82</ele>
        <time>2012-02-26T15:30:03Z</time>
      </trkpt>
      <trkpt lat="48.66515" lon="-2.28626">
        <ele>82</ele>
        <time>2012-02-26T15:30:09Z</time>
      </trkpt>
      <trkpt lat="48.66513" lon="-2.28616">
        <ele>81</ele>
        <time>2012-02-26T15:30:18Z</time>
      </trkpt>
      <trkpt lat="48.66516" lon="-2.28608">
        <ele>80</ele>
        <time>2012-02-26T15:30:51Z</time>
      </trkpt>
      <trkpt lat="48.66518" lon="-2.28599">
        <ele>80</ele>
        <time>2012-02-26T15:30:59Z</time>
      </trkpt>
      <trkpt lat="48.6652" lon="-2.28588">
        <ele>80</ele>
        <time>2012-02-26T15:31:05Z</time>
      </trkpt>
      <trkpt lat="48.66517" lon="-2.28579">
        <ele>79</ele>
        <time>2012-02-26T15:31:11Z</time>
      </trkpt>
      <trkpt lat="48.6651" lon="-2.28575">
        <ele>79</ele>
        <time>2012-02-26T15:31:16Z</time>
      </trkpt>
      <trkpt lat="48.66504" lon="-2.28571">
        <ele>79</ele>
        <time>2012-02-26T15:31:22Z</time>
      </trkpt>
      <trkpt lat="48.66498" lon="-2.28568">
        <ele>78</ele>
        <time>2012-02-26T15:31:27Z</time>
      </trkpt>
      <trkpt lat="48.66491" lon="-2.28567">
        <ele>77</ele>
        <time>2012-02-26T15:31:32Z</time>
      </trkpt>
      <trkpt lat="48.66486" lon="-2.28574">
        <ele>77</ele>
        <time>2012-02-26T15:31:39Z</time>
      </trkpt>
      <trkpt lat="48.66481" lon="-2.2858">
        <ele>76</ele>
        <time>2012-02-26T15:31:46Z</time>
      </trkpt>
      <trkpt lat="48.66477" lon="-2.28589">
        <ele>75</ele>
        <time>2012-02-26T15:31:52Z</time>
      </trkpt>
      <trkpt lat="48.66474" lon="-2.28598">
        <ele>75</ele>
        <time>2012-02-26T15:31:58Z</time>
      </trkpt>
      <trkpt lat="48.6647" lon="-2.28606">
        <ele>74</ele>
        <time>2012-02-26T15:32:05Z</time>
      </trkpt>
      <trkpt lat="48.66453" lon="-2.28626">
        <ele>74</ele>
        <time>2012-02-26T15:32:24Z</time>
      </trkpt>
      <trkpt lat="48.66446" lon="-2.28629">
        <ele>73</ele>
        <time>2012-02-26T15:32:33Z</time>
      </trkpt>
      <trkpt lat="48.6644" lon="-2.28633">
        <ele>73</ele>
        <time>2012-02-26T15:32:39Z</time>
      </trkpt>
      <trkpt lat="48.66434" lon="-2.28639">
        <ele>73</ele>
        <time>2012-02-26T15:32:46Z</time>
      </trkpt>
      <trkpt lat="48.66427" lon="-2.28643">
        <ele>73</ele>
        <time>2012-02-26T15:32:52Z</time>
      </trkpt>
      <trkpt lat="48.66415" lon="-2.28653">
        <ele>73</ele>
        <time>2012-02-26T15:33:01Z</time>
      </trkpt>
      <trkpt lat="48.66408" lon="-2.28657">
        <ele>73</ele>
        <time>2012-02-26T15:33:07Z</time>
      </trkpt>
      <trkpt lat="48.66389" lon="-2.28666">
        <ele>73</ele>
        <time>2012-02-26T15:33:21Z</time>
      </trkpt>
      <trkpt lat="48.66383" lon="-2.2867">
        <ele>73</ele>
        <time>2012-02-26T15:33:29Z</time>
      </trkpt>
      <trkpt lat="48.66377" lon="-2.28672">
        <ele>73</ele>
        <time>2012-02-26T15:33:37Z</time>
      </trkpt>
      <trkpt lat="48.66371" lon="-2.28673">
        <ele>73</ele>
        <time>2012-02-26T15:33:44Z</time>
      </trkpt>
      <trkpt lat="48.66364" lon="-2.28676">
        <ele>73</ele>
        <time>2012-02-26T15:33:53Z</time>
      </trkpt>
      <trkpt lat="48.66354" lon="-2.28695">
        <ele>72</ele>
        <time>2012-02-26T15:34:29Z</time>
      </trkpt>
      <trkpt lat="48.66341" lon="-2.28702">
        <ele>72</ele>
        <time>2012-02-26T15:34:39Z</time>
      </trkpt>
      <trkpt lat="48.66335" lon="-2.28708">
        <ele>71</ele>
        <time>2012-02-26T15:34:46Z</time>
      </trkpt>
      <trkpt lat="48.66325" lon="-2.2872">
        <ele>71</ele>
        <time>2012-02-26T15:35:00Z</time>
      </trkpt>
      <trkpt lat="48.66312" lon="-2.28745">
        <ele>71</ele>
        <time>2012-02-26T15:35:21Z</time>
      </trkpt>
      <trkpt lat="48.66309" lon="-2.28754">
        <ele>71</ele>
        <time>2012-02-26T15:35:29Z</time>
      </trkpt>
      <trkpt lat="48.66309" lon="-2.28781">
        <ele>71</ele>
        <time>2012-02-26T15:36:06Z</time>
      </trkpt>
      <trkpt lat="48.66313" lon="-2.28789">
        <ele>71</ele>
        <time>2012-02-26T15:36:14Z</time>
      </trkpt>
      <trkpt lat="48.66319" lon="-2.28791">
        <ele>71</ele>
        <time>2012-02-26T15:36:22Z</time>
      </trkpt>
      <trkpt lat="48.66326" lon="-2.28795">
        <ele>71</ele>
        <time>2012-02-26T15:36:28Z</time>
      </trkpt>
      <trkpt lat="48.6633" lon="-2.28802">
        <ele>71</ele>
        <time>2012-02-26T15:36:39Z</time>
      </trkpt>
      <trkpt lat="48.66333" lon="-2.28811">
        <ele>70</ele>
        <time>2012-02-26T15:36:47Z</time>
      </trkpt>
      <trkpt lat="48.66336" lon="-2.2883">
        <ele>70</ele>
        <time>2012-02-26T15:37:01Z</time>
      </trkpt>
      <trkpt lat="48.66333" lon="-2.2884">
        <ele>71</ele>
        <time>2012-02-26T15:37:07Z</time>
      </trkpt>
      <trkpt lat="48.66328" lon="-2.28848">
        <ele>71</ele>
        <time>2012-02-26T15:37:13Z</time>
      </trkpt>
      <trkpt lat="48.66319" lon="-2.28878">
        <ele>71</ele>
        <time>2012-02-26T15:37:36Z</time>
      </trkpt>
      <trkpt lat="48.66319" lon="-2.28888">
        <ele>71</ele>
        <time>2012-02-26T15:37:44Z</time>
      </trkpt>
      <trkpt lat="48.66319" lon="-2.28899">
        <ele>71</ele>
        <time>2012-02-26T15:37:52Z</time>
      </trkpt>
      <trkpt lat="48.66318" lon="-2.28908">
        <ele>71</ele>
        <time>2012-02-26T15:38:02Z</time>
      </trkpt>
      <trkpt lat="48.66318" lon="-2.28919">
        <ele>71</ele>
        <time>2012-02-26T15:38:09Z</time>
      </trkpt>
      <trkpt lat="48.66318" lon="-2.2893">
        <ele>71</ele>
        <time>2012-02-26T15:38:16Z</time>
      </trkpt>
      <trkpt lat="48.66317" lon="-2.2896">
        <ele>71</ele>
        <time>2012-02-26T15:38:38Z</time>
      </trkpt>
      <trkpt lat="48.66316" lon="-2.2897">
        <ele>71</ele>
        <time>2012-02-26T15:38:46Z</time>
      </trkpt>
      <trkpt lat="48.66313" lon="-2.28978">
        <ele>71</ele>
        <time>2012-02-26T15:38:53Z</time>
      </trkpt>
      <trkpt lat="48.66308" lon="-2.28986">
        <ele>71</ele>
        <time>2012-02-26T15:38:59Z</time>
      </trkpt>
      <trkpt lat="48.66304" lon="-2.28993">
        <ele>71</ele>
        <time>2012-02-26T15:39:05Z</time>
      </trkpt>
      <trkpt lat="48.66298" lon="-2.29">
        <ele>71</ele>
        <time>2012-02-26T15:39:10Z</time>
      </trkpt>
      <trkpt lat="48.66283" lon="-2.2902">
        <ele>71</ele>
        <time>2012-02-26T15:39:28Z</time>
      </trkpt>
      <trkpt lat="48.66278" lon="-2.29026">
        <ele>72</ele>
        <time>2012-02-26T15:39:35Z</time>
      </trkpt>
      <trkpt lat="48.66273" lon="-2.29033">
        <ele>72</ele>
        <time>2012-02-26T15:39:40Z</time>
      </trkpt>
      <trkpt lat="48.66268" lon="-2.29039">
        <ele>72</ele>
        <time>2012-02-26T15:39:46Z</time>
      </trkpt>
      <trkpt lat="48.66262" lon="-2.29046">
        <ele>72</ele>
        <time>2012-02-26T15:39:53Z</time>
      </trkpt>
      <trkpt lat="48.66257" lon="-2.29053">
        <ele>72</ele>
        <time>2012-02-26T15:40:00Z</time>
      </trkpt>
      <trkpt lat="48.66253" lon="-2.29059">
        <ele>72</ele>
        <time>2012-02-26T15:40:07Z</time>
      </trkpt>
      <trkpt lat="48.66247" lon="-2.29066">
        <ele>72</ele>
        <time>2012-02-26T15:40:14Z</time>
      </trkpt>
      <trkpt lat="48.66242" lon="-2.29074">
        <ele>72</ele>
        <time>2012-02-26T15:40:23Z</time>
      </trkpt>
      <trkpt lat="48.66239" lon="-2.29082">
        <ele>72</ele>
        <time>2012-02-26T15:40:34Z</time>
      </trkpt>
      <trkpt lat="48.66239" lon="-2.29072">
        <ele>72</ele>
        <time>2012-02-26T15:40:50Z</time>
      </trkpt>
      <trkpt lat="48.66227" lon="-2.29082">
        <ele>73</ele>
        <time>2012-02-26T15:41:33Z</time>
      </trkpt>
      <trkpt lat="48.66225" lon="-2.29092">
        <ele>73</ele>
        <time>2012-02-26T15:41:39Z</time>
      </trkpt>
      <trkpt lat="48.66222" lon="-2.29102">
        <ele>73</ele>
        <time>2012-02-26T15:41:44Z</time>
      </trkpt>
      <trkpt lat="48.66221" lon="-2.29112">
        <ele>73</ele>
        <time>2012-02-26T15:41:50Z</time>
      </trkpt>
      <trkpt lat="48.66219" lon="-2.29122">
        <ele>73</ele>
        <time>2012-02-26T15:41:57Z</time>
      </trkpt>
      <trkpt lat="48.6621" lon="-2.29149">
        <ele>73</ele>
        <time>2012-02-26T15:42:15Z</time>
      </trkpt>
      <trkpt lat="48.66207" lon="-2.29159">
        <ele>74</ele>
        <time>2012-02-26T15:42:22Z</time>
      </trkpt>
      <trkpt lat="48.66203" lon="-2.29168">
        <ele>74</ele>
        <time>2012-02-26T15:42:29Z</time>
      </trkpt>
      <trkpt lat="48.66199" lon="-2.29177">
        <ele>74</ele>
        <time>2012-02-26T15:42:36Z</time>
      </trkpt>
      <trkpt lat="48.66195" lon="-2.29185">
        <ele>74</ele>
        <time>2012-02-26T15:42:43Z</time>
      </trkpt>
      <trkpt lat="48.6619" lon="-2.29192">
        <ele>74</ele>
        <time>2012-02-26T15:42:50Z</time>
      </trkpt>
      <trkpt lat="48.66184" lon="-2.29198">
        <ele>74</ele>
        <time>2012-02-26T15:42:57Z</time>
      </trkpt>
      <trkpt lat="48.66178" lon="-2.29203">
        <ele>74</ele>
        <time>2012-02-26T15:43:04Z</time>
      </trkpt>
      <trkpt lat="48.66172" lon="-2.29209">
        <ele>74</ele>
        <time>2012-02-26T15:43:11Z</time>
      </trkpt>
      <trkpt lat="48.66166" lon="-2.29215">
        <ele>74</ele>
        <time>2012-02-26T15:43:18Z</time>
      </trkpt>
      <trkpt lat="48.66157" lon="-2.2923">
        <ele>74</ele>
        <time>2012-02-26T15:43:30Z</time>
      </trkpt>
      <trkpt lat="48.66155" lon="-2.29241">
        <ele>74</ele>
        <time>2012-02-26T15:43:35Z</time>
      </trkpt>
      <trkpt lat="48.66155" lon="-2.29252">
        <ele>74</ele>
        <time>2012-02-26T15:43:41Z</time>
      </trkpt>
      <trkpt lat="48.66158" lon="-2.29261">
        <ele>74</ele>
        <time>2012-02-26T15:43:47Z</time>
      </trkpt>
      <trkpt lat="48.66171" lon="-2.29285">
        <ele>73</ele>
        <time>2012-02-26T15:44:11Z</time>
      </trkpt>
      <trkpt lat="48.66175" lon="-2.29293">
        <ele>73</ele>
        <time>2012-02-26T15:44:19Z</time>
      </trkpt>
      <trkpt lat="48.66179" lon="-2.29302">
        <ele>73</ele>
        <time>2012-02-26T15:44:27Z</time>
      </trkpt>
      <trkpt lat="48.66158" lon="-2.29347">
        <ele>74</ele>
        <time>2012-02-26T15:45:13Z</time>
      </trkpt>
      <trkpt lat="48.66153" lon="-2.29354">
        <ele>74</ele>
        <time>2012-02-26T15:45:24Z</time>
      </trkpt>
      <trkpt lat="48.66148" lon="-2.29361">
        <ele>74</ele>
        <time>2012-02-26T15:45:29Z</time>
      </trkpt>
      <trkpt lat="48.66142" lon="-2.29367">
        <ele>74</ele>
        <time>2012-02-26T15:45:35Z</time>
      </trkpt>
      <trkpt lat="48.66136" lon="-2.29367">
        <ele>74</ele>
        <time>2012-02-26T15:45:51Z</time>
      </trkpt>
      <trkpt lat="48.6613" lon="-2.29362">
        <ele>74</ele>
        <time>2012-02-26T15:45:58Z</time>
      </trkpt>
      <trkpt lat="48.66124" lon="-2.29359">
        <ele>74</ele>
        <time>2012-02-26T15:46:06Z</time>
      </trkpt>
      <trkpt lat="48.66111" lon="-2.29372">
        <ele>74</ele>
        <time>2012-02-26T15:46:13Z</time>
      </trkpt>
      <trkpt lat="48.66105" lon="-2.29379">
        <ele>74</ele>
        <time>2012-02-26T15:46:16Z</time>
      </trkpt>
      <trkpt lat="48.661" lon="-2.29386">
        <ele>74</ele>
        <time>2012-02-26T15:46:19Z</time>
      </trkpt>
      <trkpt lat="48.66094" lon="-2.29394">
        <ele>74</ele>
        <time>2012-02-26T15:46:24Z</time>
      </trkpt>
      <trkpt lat="48.6609" lon="-2.294">
        <ele>75</ele>
        <time>2012-02-26T15:48:11Z</time>
      </trkpt>
      <trkpt lat="48.66084" lon="-2.29408">
        <ele>76</ele>
        <time>2012-02-26T15:48:15Z</time>
      </trkpt>
      <trkpt lat="48.66069" lon="-2.29429">
        <ele>76</ele>
        <time>2012-02-26T15:48:29Z</time>
      </trkpt>
      <trkpt lat="48.66063" lon="-2.29436">
        <ele>76</ele>
        <time>2012-02-26T15:48:35Z</time>
      </trkpt>
      <trkpt lat="48.66048" lon="-2.29456">
        <ele>77</ele>
        <time>2012-02-26T15:48:53Z</time>
      </trkpt>
      <trkpt lat="48.66036" lon="-2.29482">
        <ele>77</ele>
        <time>2012-02-26T15:49:20Z</time>
      </trkpt>
      <trkpt lat="48.66031" lon="-2.29489">
        <ele>77</ele>
        <time>2012-02-26T15:49:29Z</time>
      </trkpt>
      <trkpt lat="48.66028" lon="-2.29498">
        <ele>78</ele>
        <time>2012-02-26T15:49:37Z</time>
      </trkpt>
      <trkpt lat="48.66023" lon="-2.29506">
        <ele>78</ele>
        <time>2012-02-26T15:49:46Z</time>
      </trkpt>
      <trkpt lat="48.66017" lon="-2.2951">
        <ele>78</ele>
        <time>2012-02-26T15:49:54Z</time>
      </trkpt>
      <trkpt lat="48.6601" lon="-2.29512">
        <ele>78</ele>
        <time>2012-02-26T15:49:59Z</time>
      </trkpt>
      <trkpt lat="48.66004" lon="-2.29513">
        <ele>78</ele>
        <time>2012-02-26T15:50:03Z</time>
      </trkpt>
      <trkpt lat="48.65997" lon="-2.29515">
        <ele>78</ele>
        <time>2012-02-26T15:50:08Z</time>
      </trkpt>
      <trkpt lat="48.6599" lon="-2.29518">
        <ele>78</ele>
        <time>2012-02-26T15:50:16Z</time>
      </trkpt>
      <trkpt lat="48.65983" lon="-2.29517">
        <ele>78</ele>
        <time>2012-02-26T15:50:24Z</time>
      </trkpt>
      <trkpt lat="48.65961" lon="-2.29514">
        <ele>79</ele>
        <time>2012-02-26T15:50:38Z</time>
      </trkpt>
      <trkpt lat="48.65946" lon="-2.29513">
        <ele>79</ele>
        <time>2012-02-26T15:50:50Z</time>
      </trkpt>
      <trkpt lat="48.65927" lon="-2.29507">
        <ele>79</ele>
        <time>2012-02-26T15:51:08Z</time>
      </trkpt>
      <trkpt lat="48.6592" lon="-2.29504">
        <ele>79</ele>
        <time>2012-02-26T15:51:15Z</time>
      </trkpt>
      <trkpt lat="48.65914" lon="-2.295">
        <ele>79</ele>
        <time>2012-02-26T15:51:22Z</time>
      </trkpt>
      <trkpt lat="48.65908" lon="-2.29496">
        <ele>79</ele>
        <time>2012-02-26T15:51:28Z</time>
      </trkpt>
      <trkpt lat="48.65902" lon="-2.29492">
        <ele>79</ele>
        <time>2012-02-26T15:51:35Z</time>
      </trkpt>
      <trkpt lat="48.65896" lon="-2.2949">
        <ele>79</ele>
        <time>2012-02-26T15:51:42Z</time>
      </trkpt>
      <trkpt lat="48.65868" lon="-2.29423">
        <ele>79</ele>
        <time>2012-02-26T15:52:05Z</time>
      </trkpt>
      <trkpt lat="48.65863" lon="-2.29416">
        <ele>79</ele>
        <time>2012-02-26T15:52:14Z</time>
      </trkpt>
      <trkpt lat="48.65857" lon="-2.29412">
        <ele>79</ele>
        <time>2012-02-26T15:52:20Z</time>
      </trkpt>
      <trkpt lat="48.65843" lon="-2.29409">
        <ele>80</ele>
        <time>2012-02-26T15:52:34Z</time>
      </trkpt>
      <trkpt lat="48.65838" lon="-2.29416">
        <ele>80</ele>
        <time>2012-02-26T15:52:41Z</time>
      </trkpt>
      <trkpt lat="48.65827" lon="-2.29429">
        <ele>80</ele>
        <time>2012-02-26T15:52:55Z</time>
      </trkpt>
      <trkpt lat="48.65823" lon="-2.29437">
        <ele>80</ele>
        <time>2012-02-26T15:53:02Z</time>
      </trkpt>
      <trkpt lat="48.65822" lon="-2.29447">
        <ele>80</ele>
        <time>2012-02-26T15:53:08Z</time>
      </trkpt>
      <trkpt lat="48.65822" lon="-2.29457">
        <ele>80</ele>
        <time>2012-02-26T15:53:14Z</time>
      </trkpt>
      <trkpt lat="48.65824" lon="-2.29487">
        <ele>79</ele>
        <time>2012-02-26T15:53:35Z</time>
      </trkpt>
      <trkpt lat="48.65827" lon="-2.29497">
        <ele>79</ele>
        <time>2012-02-26T15:53:43Z</time>
      </trkpt>
      <trkpt lat="48.65828" lon="-2.29507">
        <ele>79</ele>
        <time>2012-02-26T15:53:51Z</time>
      </trkpt>
      <trkpt lat="48.65826" lon="-2.29516">
        <ele>78</ele>
        <time>2012-02-26T15:53:56Z</time>
      </trkpt>
      <trkpt lat="48.65819" lon="-2.29522">
        <ele>78</ele>
        <time>2012-02-26T15:54:01Z</time>
      </trkpt>
      <trkpt lat="48.65814" lon="-2.29527">
        <ele>78</ele>
        <time>2012-02-26T15:54:06Z</time>
      </trkpt>
      <trkpt lat="48.65811" lon="-2.29537">
        <ele>78</ele>
        <time>2012-02-26T15:54:11Z</time>
      </trkpt>
      <trkpt lat="48.65808" lon="-2.29546">
        <ele>78</ele>
        <time>2012-02-26T15:54:17Z</time>
      </trkpt>
      <trkpt lat="48.658" lon="-2.29573">
        <ele>77</ele>
        <time>2012-02-26T15:54:36Z</time>
      </trkpt>
      <trkpt lat="48.65797" lon="-2.29582">
        <ele>77</ele>
        <time>2012-02-26T15:54:43Z</time>
      </trkpt>
      <trkpt lat="48.65792" lon="-2.2959">
        <ele>76</ele>
        <time>2012-02-26T15:54:51Z</time>
      </trkpt>
      <trkpt lat="48.65773" lon="-2.29606">
        <ele>76</ele>
        <time>2012-02-26T15:55:11Z</time>
      </trkpt>
      <trkpt lat="48.65766" lon="-2.29609">
        <ele>75</ele>
        <time>2012-02-26T15:55:16Z</time>
      </trkpt>
      <trkpt lat="48.6576" lon="-2.29613">
        <ele>75</ele>
        <time>2012-02-26T15:55:21Z</time>
      </trkpt>
      <trkpt lat="48.65743" lon="-2.29631">
        <ele>75</ele>
        <time>2012-02-26T15:55:40Z</time>
      </trkpt>
      <trkpt lat="48.65738" lon="-2.29638">
        <ele>75</ele>
        <time>2012-02-26T15:55:47Z</time>
      </trkpt>
      <trkpt lat="48.65733" lon="-2.29644">
        <ele>75</ele>
        <time>2012-02-26T15:55:53Z</time>
      </trkpt>
      <trkpt lat="48.65727" lon="-2.29648">
        <ele>75</ele>
        <time>2012-02-26T15:55:59Z</time>
      </trkpt>
      <trkpt lat="48.6571" lon="-2.29664">
        <ele>74</ele>
        <time>2012-02-26T15:56:16Z</time>
      </trkpt>
      <trkpt lat="48.65703" lon="-2.29668">
        <ele>74</ele>
        <time>2012-02-26T15:56:22Z</time>
      </trkpt>
      <trkpt lat="48.65683" lon="-2.29676">
        <ele>74</ele>
        <time>2012-02-26T15:56:39Z</time>
      </trkpt>
      <trkpt lat="48.65677" lon="-2.2968">
        <ele>74</ele>
        <time>2012-02-26T15:56:45Z</time>
      </trkpt>
      <trkpt lat="48.65672" lon="-2.29686">
        <ele>74</ele>
        <time>2012-02-26T15:56:51Z</time>
      </trkpt>
      <trkpt lat="48.65666" lon="-2.29693">
        <ele>74</ele>
        <time>2012-02-26T15:56:58Z</time>
      </trkpt>
      <trkpt lat="48.65661" lon="-2.29701">
        <ele>74</ele>
        <time>2012-02-26T15:57:05Z</time>
      </trkpt>
      <trkpt lat="48.65656" lon="-2.29706">
        <ele>74</ele>
        <time>2012-02-26T15:57:11Z</time>
      </trkpt>
      <trkpt lat="48.65652" lon="-2.29715">
        <ele>74</ele>
        <time>2012-02-26T15:57:17Z</time>
      </trkpt>
      <trkpt lat="48.65649" lon="-2.29725">
        <ele>74</ele>
        <time>2012-02-26T15:57:23Z</time>
      </trkpt>
      <trkpt lat="48.65647" lon="-2.29735">
        <ele>74</ele>
        <time>2012-02-26T15:57:29Z</time>
      </trkpt>
      <trkpt lat="48.65644" lon="-2.29745">
        <ele>74</ele>
        <time>2012-02-26T15:57:35Z</time>
      </trkpt>
      <trkpt lat="48.65641" lon="-2.29754">
        <ele>73</ele>
        <time>2012-02-26T15:57:41Z</time>
      </trkpt>
      <trkpt lat="48.65638" lon="-2.29763">
        <ele>73</ele>
        <time>2012-02-26T15:57:47Z</time>
      </trkpt>
      <trkpt lat="48.65634" lon="-2.2977">
        <ele>73</ele>
        <time>2012-02-26T15:57:53Z</time>
      </trkpt>
      <trkpt lat="48.6563" lon="-2.29779">
        <ele>73</ele>
        <time>2012-02-26T15:58:00Z</time>
      </trkpt>
      <trkpt lat="48.65627" lon="-2.29789">
        <ele>73</ele>
        <time>2012-02-26T15:58:07Z</time>
      </trkpt>
      <trkpt lat="48.6562" lon="-2.29791">
        <ele>73</ele>
        <time>2012-02-26T15:58:16Z</time>
      </trkpt>
      <trkpt lat="48.65614" lon="-2.29786">
        <ele>73</ele>
        <time>2012-02-26T15:58:23Z</time>
      </trkpt>
      <trkpt lat="48.65608" lon="-2.2978">
        <ele>73</ele>
        <time>2012-02-26T15:58:30Z</time>
      </trkpt>
      <trkpt lat="48.65602" lon="-2.29777">
        <ele>73</ele>
        <time>2012-02-26T15:58:36Z</time>
      </trkpt>
      <trkpt lat="48.65595" lon="-2.29777">
        <ele>73</ele>
        <time>2012-02-26T15:58:43Z</time>
      </trkpt>
      <trkpt lat="48.65567" lon="-2.29888">
        <ele>74</ele>
        <time>2012-02-26T15:59:56Z</time>
      </trkpt>
      <trkpt lat="48.65565" lon="-2.29898">
        <ele>74</ele>
        <time>2012-02-26T16:00:00Z</time>
      </trkpt>
      <trkpt lat="48.65568" lon="-2.29907">
        <ele>74</ele>
        <time>2012-02-26T16:00:06Z</time>
      </trkpt>
      <trkpt lat="48.65571" lon="-2.29916">
        <ele>74</ele>
        <time>2012-02-26T16:00:13Z</time>
      </trkpt>
      <trkpt lat="48.65573" lon="-2.29925">
        <ele>74</ele>
        <time>2012-02-26T16:00:20Z</time>
      </trkpt>
      <trkpt lat="48.65576" lon="-2.29934">
        <ele>74</ele>
        <time>2012-02-26T16:00:29Z</time>
      </trkpt>
      <trkpt lat="48.65577" lon="-2.29944">
        <ele>74</ele>
        <time>2012-02-26T16:00:38Z</time>
      </trkpt>
      <trkpt lat="48.65574" lon="-2.29954">
        <ele>74</ele>
        <time>2012-02-26T16:00:45Z</time>
      </trkpt>
      <trkpt lat="48.65568" lon="-2.29962">
        <ele>74</ele>
        <time>2012-02-26T16:00:50Z</time>
      </trkpt>
      <trkpt lat="48.65522" lon="-2.29949">
        <ele>74</ele>
        <time>2012-02-26T16:01:57Z</time>
      </trkpt>
      <trkpt lat="48.65513" lon="-2.29962">
        <ele>75</ele>
        <time>2012-02-26T16:02:19Z</time>
      </trkpt>
      <trkpt lat="48.65507" lon="-2.29964">
        <ele>75</ele>
        <time>2012-02-26T16:02:28Z</time>
      </trkpt>
      <trkpt lat="48.65501" lon="-2.2996">
        <ele>75</ele>
        <time>2012-02-26T16:02:36Z</time>
      </trkpt>
      <trkpt lat="48.65495" lon="-2.29953">
        <ele>75</ele>
        <time>2012-02-26T16:02:41Z</time>
      </trkpt>
      <trkpt lat="48.65486" lon="-2.29931">
        <ele>76</ele>
        <time>2012-02-26T16:02:48Z</time>
      </trkpt>
      <trkpt lat="48.65479" lon="-2.29915">
        <ele>76</ele>
        <time>2012-02-26T16:02:55Z</time>
      </trkpt>
      <trkpt lat="48.65475" lon="-2.29907">
        <ele>77</ele>
        <time>2012-02-26T16:03:01Z</time>
      </trkpt>
      <trkpt lat="48.65469" lon="-2.29899">
        <ele>77</ele>
        <time>2012-02-26T16:03:07Z</time>
      </trkpt>
      <trkpt lat="48.65464" lon="-2.29892">
        <ele>78</ele>
        <time>2012-02-26T16:03:13Z</time>
      </trkpt>
      <trkpt lat="48.65459" lon="-2.29885">
        <ele>78</ele>
        <time>2012-02-26T16:03:18Z</time>
      </trkpt>
      <trkpt lat="48.65446" lon="-2.29863">
        <ele>79</ele>
        <time>2012-02-26T16:03:36Z</time>
      </trkpt>
      <trkpt lat="48.6544" lon="-2.29857">
        <ele>80</ele>
        <time>2012-02-26T16:03:43Z</time>
      </trkpt>
      <trkpt lat="48.65434" lon="-2.29853">
        <ele>80</ele>
        <time>2012-02-26T16:03:53Z</time>
      </trkpt>
      <trkpt lat="48.65427" lon="-2.29851">
        <ele>80</ele>
        <time>2012-02-26T16:04:05Z</time>
      </trkpt>
      <trkpt lat="48.65421" lon="-2.2985">
        <ele>80</ele>
        <time>2012-02-26T16:04:14Z</time>
      </trkpt>
      <trkpt lat="48.65427" lon="-2.29846">
        <ele>80</ele>
        <time>2012-02-26T16:04:42Z</time>
      </trkpt>
      <trkpt lat="48.65435" lon="-2.29846">
        <ele>80</ele>
        <time>2012-02-26T16:04:48Z</time>
      </trkpt>
      <trkpt lat="48.65442" lon="-2.29847">
        <ele>80</ele>
        <time>2012-02-26T16:04:53Z</time>
      </trkpt>
      <trkpt lat="48.65449" lon="-2.29848">
        <ele>80</ele>
        <time>2012-02-26T16:04:58Z</time>
      </trkpt>
      <trkpt lat="48.65463" lon="-2.29855">
        <ele>80</ele>
        <time>2012-02-26T16:05:05Z</time>
      </trkpt>
      <trkpt lat="48.6547" lon="-2.2986">
        <ele>80</ele>
        <time>2012-02-26T16:05:08Z</time>
      </trkpt>
      <trkpt lat="48.65475" lon="-2.29865">
        <ele>80</ele>
        <time>2012-02-26T16:05:11Z</time>
      </trkpt>
      <trkpt lat="48.65481" lon="-2.29871">
        <ele>80</ele>
        <time>2012-02-26T16:05:15Z</time>
      </trkpt>
      <trkpt lat="48.65486" lon="-2.29878">
        <ele>80</ele>
        <time>2012-02-26T16:05:19Z</time>
      </trkpt>
      <trkpt lat="48.65492" lon="-2.29885">
        <ele>80</ele>
        <time>2012-02-26T16:05:24Z</time>
      </trkpt>
      <trkpt lat="48.65496" lon="-2.29893">
        <ele>80</ele>
        <time>2012-02-26T16:05:29Z</time>
      </trkpt>
      <trkpt lat="48.655" lon="-2.29901">
        <ele>80</ele>
        <time>2012-02-26T16:05:34Z</time>
      </trkpt>
      <trkpt lat="48.65505" lon="-2.29909">
        <ele>80</ele>
        <time>2012-02-26T16:05:40Z</time>
      </trkpt>
      <trkpt lat="48.6551" lon="-2.29917">
        <ele>80</ele>
        <time>2012-02-26T16:05:46Z</time>
      </trkpt>
      <trkpt lat="48.65514" lon="-2.29925">
        <ele>80</ele>
        <time>2012-02-26T16:05:53Z</time>
      </trkpt>
      <trkpt lat="48.65522" lon="-2.2994">
        <ele>80</ele>
        <time>2012-02-26T16:06:08Z</time>
      </trkpt>
      <trkpt lat="48.65521" lon="-2.2995">
        <ele>80</ele>
        <time>2012-02-26T16:06:15Z</time>
      </trkpt>
      <trkpt lat="48.65507" lon="-2.29963">
        <ele>80</ele>
        <time>2012-02-26T16:06:21Z</time>
      </trkpt>
      <trkpt lat="48.65501" lon="-2.29964">
        <ele>80</ele>
        <time>2012-02-26T16:06:24Z</time>
      </trkpt>
      <trkpt lat="48.65494" lon="-2.29964">
        <ele>80</ele>
        <time>2012-02-26T16:06:28Z</time>
      </trkpt>
      <trkpt lat="48.65488" lon="-2.2997">
        <ele>81</ele>
        <time>2012-02-26T16:06:40Z</time>
      </trkpt>
      <trkpt lat="48.65485" lon="-2.2998">
        <ele>81</ele>
        <time>2012-02-26T16:06:46Z</time>
      </trkpt>
      <trkpt lat="48.65475" lon="-2.30005">
        <ele>82</ele>
        <time>2012-02-26T16:06:59Z</time>
      </trkpt>
      <trkpt lat="48.65471" lon="-2.30013">
        <ele>82</ele>
        <time>2012-02-26T16:07:06Z</time>
      </trkpt>
      <trkpt lat="48.65467" lon="-2.30021">
        <ele>83</ele>
        <time>2012-02-26T16:07:14Z</time>
      </trkpt>
      <trkpt lat="48.65464" lon="-2.3003">
        <ele>83</ele>
        <time>2012-02-26T16:07:20Z</time>
      </trkpt>
      <trkpt lat="48.6546" lon="-2.30038">
        <ele>83</ele>
        <time>2012-02-26T16:07:25Z</time>
      </trkpt>
      <trkpt lat="48.65456" lon="-2.30046">
        <ele>83</ele>
        <time>2012-02-26T16:07:29Z</time>
      </trkpt>
      <trkpt lat="48.65451" lon="-2.30054">
        <ele>83</ele>
        <time>2012-02-26T16:07:34Z</time>
      </trkpt>
      <trkpt lat="48.65447" lon="-2.30063">
        <ele>84</ele>
        <time>2012-02-26T16:07:39Z</time>
      </trkpt>
      <trkpt lat="48.65442" lon="-2.30072">
        <ele>84</ele>
        <time>2012-02-26T16:07:44Z</time>
      </trkpt>
      <trkpt lat="48.65435" lon="-2.3009">
        <ele>84</ele>
        <time>2012-02-26T16:07:55Z</time>
      </trkpt>
      <trkpt lat="48.65398" lon="-2.30149">
        <ele>84</ele>
        <time>2012-02-26T16:08:32Z</time>
      </trkpt>
      <trkpt lat="48.65396" lon="-2.30161">
        <ele>84</ele>
        <time>2012-02-26T16:08:37Z</time>
      </trkpt>
      <trkpt lat="48.65394" lon="-2.30171">
        <ele>85</ele>
        <time>2012-02-26T16:08:42Z</time>
      </trkpt>
      <trkpt lat="48.65392" lon="-2.30182">
        <ele>85</ele>
        <time>2012-02-26T16:08:48Z</time>
      </trkpt>
      <trkpt lat="48.65388" lon="-2.3019">
        <ele>85</ele>
        <time>2012-02-26T16:08:53Z</time>
      </trkpt>
      <trkpt lat="48.65384" lon="-2.30198">
        <ele>85</ele>
        <time>2012-02-26T16:08:58Z</time>
      </trkpt>
      <trkpt lat="48.65381" lon="-2.30207">
        <ele>85</ele>
        <time>2012-02-26T16:09:05Z</time>
      </trkpt>
      <trkpt lat="48.65378" lon="-2.30215">
        <ele>86</ele>
        <time>2012-02-26T16:09:11Z</time>
      </trkpt>
      <trkpt lat="48.65375" lon="-2.30223">
        <ele>86</ele>
        <time>2012-02-26T16:09:21Z</time>
      </trkpt>
      <trkpt lat="48.65371" lon="-2.30232">
        <ele>86</ele>
        <time>2012-02-26T16:09:29Z</time>
      </trkpt>
      <trkpt lat="48.65359" lon="-2.30256">
        <ele>87</ele>
        <time>2012-02-26T16:09:47Z</time>
      </trkpt>
      <trkpt lat="48.65357" lon="-2.30267">
        <ele>87</ele>
        <time>2012-02-26T16:09:53Z</time>
      </trkpt>
      <trkpt lat="48.65355" lon="-2.30277">
        <ele>87</ele>
        <time>2012-02-26T16:09:59Z</time>
      </trkpt>
      <trkpt lat="48.65352" lon="-2.30287">
        <ele>87</ele>
        <time>2012-02-26T16:10:05Z</time>
      </trkpt>
      <trkpt lat="48.65349" lon="-2.30307">
        <ele>88</ele>
        <time>2012-02-26T16:10:16Z</time>
      </trkpt>
      <trkpt lat="48.6535" lon="-2.30316">
        <ele>88</ele>
        <time>2012-02-26T16:10:20Z</time>
      </trkpt>
      <trkpt lat="48.65352" lon="-2.30325">
        <ele>88</ele>
        <time>2012-02-26T16:10:24Z</time>
      </trkpt>
      <trkpt lat="48.65354" lon="-2.30335">
        <ele>88</ele>
        <time>2012-02-26T16:10:28Z</time>
      </trkpt>
      <trkpt lat="48.65359" lon="-2.30354">
        <ele>88</ele>
        <time>2012-02-26T16:10:38Z</time>
      </trkpt>
      <trkpt lat="48.65368" lon="-2.30372">
        <ele>88</ele>
        <time>2012-02-26T16:10:48Z</time>
      </trkpt>
      <trkpt lat="48.65381" lon="-2.30381">
        <ele>89</ele>
        <time>2012-02-26T16:10:56Z</time>
      </trkpt>
      <trkpt lat="48.65395" lon="-2.3037">
        <ele>89</ele>
        <time>2012-02-26T16:11:03Z</time>
      </trkpt>
      <trkpt lat="48.65403" lon="-2.30364">
        <ele>90</ele>
        <time>2012-02-26T16:11:08Z</time>
      </trkpt>
      <trkpt lat="48.65409" lon="-2.3036">
        <ele>91</ele>
        <time>2012-02-26T16:11:11Z</time>
      </trkpt>
      <trkpt lat="48.65415" lon="-2.30358">
        <ele>92</ele>
        <time>2012-02-26T16:11:15Z</time>
      </trkpt>
      <trkpt lat="48.65422" lon="-2.30358">
        <ele>93</ele>
        <time>2012-02-26T16:11:20Z</time>
      </trkpt>
      <trkpt lat="48.65429" lon="-2.30361">
        <ele>93</ele>
        <time>2012-02-26T16:11:25Z</time>
      </trkpt>
      <trkpt lat="48.65435" lon="-2.30365">
        <ele>94</ele>
        <time>2012-02-26T16:11:30Z</time>
      </trkpt>
      <trkpt lat="48.6544" lon="-2.3037">
        <ele>95</ele>
        <time>2012-02-26T16:11:35Z</time>
      </trkpt>
      <trkpt lat="48.65445" lon="-2.30377">
        <ele>95</ele>
        <time>2012-02-26T16:11:41Z</time>
      </trkpt>
      <trkpt lat="48.6545" lon="-2.30386">
        <ele>96</ele>
        <time>2012-02-26T16:11:46Z</time>
      </trkpt>
      <trkpt lat="48.65454" lon="-2.30395">
        <ele>97</ele>
        <time>2012-02-26T16:11:52Z</time>
      </trkpt>
      <trkpt lat="48.65458" lon="-2.30404">
        <ele>98</ele>
        <time>2012-02-26T16:11:56Z</time>
      </trkpt>
      <trkpt lat="48.65461" lon="-2.30413">
        <ele>99</ele>
        <time>2012-02-26T16:12:01Z</time>
      </trkpt>
      <trkpt lat="48.65463" lon="-2.30443">
        <ele>102</ele>
        <time>2012-02-26T16:12:27Z</time>
      </trkpt>
      <trkpt lat="48.65465" lon="-2.30454">
        <ele>103</ele>
        <time>2012-02-26T16:12:31Z</time>
      </trkpt>
      <trkpt lat="48.65466" lon="-2.30466">
        <ele>104</ele>
        <time>2012-02-26T16:12:36Z</time>
      </trkpt>
      <trkpt lat="48.65467" lon="-2.30477">
        <ele>105</ele>
        <time>2012-02-26T16:12:41Z</time>
      </trkpt>
      <trkpt lat="48.65467" lon="-2.30489">
        <ele>105</ele>
        <time>2012-02-26T16:12:45Z</time>
      </trkpt>
      <trkpt lat="48.65466" lon="-2.30499">
        <ele>106</ele>
        <time>2012-02-26T16:12:49Z</time>
      </trkpt>
      <trkpt lat="48.65464" lon="-2.30509">
        <ele>106</ele>
        <time>2012-02-26T16:12:54Z</time>
      </trkpt>
      <trkpt lat="48.6546" lon="-2.30518">
        <ele>106</ele>
        <time>2012-02-26T16:12:59Z</time>
      </trkpt>
      <trkpt lat="48.65458" lon="-2.30528">
        <ele>106</ele>
        <time>2012-02-26T16:13:04Z</time>
      </trkpt>
      <trkpt lat="48.6546" lon="-2.30538">
        <ele>107</ele>
        <time>2012-02-26T16:13:12Z</time>
      </trkpt>
      <trkpt lat="48.65463" lon="-2.30546">
        <ele>107</ele>
        <time>2012-02-26T16:13:18Z</time>
      </trkpt>
      <trkpt lat="48.65467" lon="-2.30554">
        <ele>108</ele>
        <time>2012-02-26T16:13:24Z</time>
      </trkpt>
      <trkpt lat="48.6547" lon="-2.30563">
        <ele>108</ele>
        <time>2012-02-26T16:13:29Z</time>
      </trkpt>
      <trkpt lat="48.65473" lon="-2.30573">
        <ele>108</ele>
        <time>2012-02-26T16:13:33Z</time>
      </trkpt>
      <trkpt lat="48.65499" lon="-2.30657">
        <ele>105</ele>
        <time>2012-02-26T16:14:12Z</time>
      </trkpt>
      <trkpt lat="48.65502" lon="-2.30648">
        <ele>104</ele>
        <time>2012-02-26T16:14:15Z</time>
      </trkpt>
      <trkpt lat="48.65501" lon="-2.30663">
        <ele>104</ele>
        <time>2012-02-26T16:14:27Z</time>
      </trkpt>
      <trkpt lat="48.65501" lon="-2.30673">
        <ele>104</ele>
        <time>2012-02-26T16:14:33Z</time>
      </trkpt>
      <trkpt lat="48.655" lon="-2.30684">
        <ele>105</ele>
        <time>2012-02-26T16:14:40Z</time>
      </trkpt>
      <trkpt lat="48.655" lon="-2.30694">
        <ele>106</ele>
        <time>2012-02-26T16:14:46Z</time>
      </trkpt>
      <trkpt lat="48.655" lon="-2.30704">
        <ele>107</ele>
        <time>2012-02-26T16:14:52Z</time>
      </trkpt>
      <trkpt lat="48.655" lon="-2.30715">
        <ele>108</ele>
        <time>2012-02-26T16:14:58Z</time>
      </trkpt>
      <trkpt lat="48.65498" lon="-2.30736">
        <ele>109</ele>
        <time>2012-02-26T16:15:08Z</time>
      </trkpt>
      <trkpt lat="48.65495" lon="-2.30746">
        <ele>110</ele>
        <time>2012-02-26T16:15:16Z</time>
      </trkpt>
      <trkpt lat="48.65478" lon="-2.30769">
        <ele>110</ele>
        <time>2012-02-26T16:15:41Z</time>
      </trkpt>
      <trkpt lat="48.65473" lon="-2.30776">
        <ele>110</ele>
        <time>2012-02-26T16:15:45Z</time>
      </trkpt>
      <trkpt lat="48.65459" lon="-2.30786">
        <ele>111</ele>
        <time>2012-02-26T16:16:04Z</time>
      </trkpt>
      <trkpt lat="48.65448" lon="-2.30799">
        <ele>111</ele>
        <time>2012-02-26T16:16:14Z</time>
      </trkpt>
      <trkpt lat="48.65432" lon="-2.30831">
        <ele>111</ele>
        <time>2012-02-26T16:16:21Z</time>
      </trkpt>
      <trkpt lat="48.65426" lon="-2.30862">
        <ele>111</ele>
        <time>2012-02-26T16:16:33Z</time>
      </trkpt>
      <trkpt lat="48.65427" lon="-2.3089">
        <ele>111</ele>
        <time>2012-02-26T16:16:46Z</time>
      </trkpt>
      <trkpt lat="48.65426" lon="-2.30914">
        <ele>111</ele>
        <time>2012-02-26T16:17:02Z</time>
      </trkpt>
      <trkpt lat="48.6543" lon="-2.30922">
        <ele>112</ele>
        <time>2012-02-26T16:17:17Z</time>
      </trkpt>
      <trkpt lat="48.6543" lon="-2.30944">
        <ele>113</ele>
        <time>2012-02-26T16:17:34Z</time>
      </trkpt>
      <trkpt lat="48.65431" lon="-2.30955">
        <ele>113</ele>
        <time>2012-02-26T16:17:40Z</time>
      </trkpt>
      <trkpt lat="48.65433" lon="-2.30965">
        <ele>113</ele>
        <time>2012-02-26T16:17:45Z</time>
      </trkpt>
      <trkpt lat="48.65433" lon="-2.30976">
        <ele>113</ele>
        <time>2012-02-26T16:17:50Z</time>
      </trkpt>
      <trkpt lat="48.65433" lon="-2.30985">
        <ele>113</ele>
        <time>2012-02-26T16:17:55Z</time>
      </trkpt>
      <trkpt lat="48.65433" lon="-2.30996">
        <ele>114</ele>
        <time>2012-02-26T16:18:00Z</time>
      </trkpt>
      <trkpt lat="48.65433" lon="-2.31006">
        <ele>114</ele>
        <time>2012-02-26T16:18:05Z</time>
      </trkpt>
      <trkpt lat="48.65432" lon="-2.31016">
        <ele>114</ele>
        <time>2012-02-26T16:18:11Z</time>
      </trkpt>
      <trkpt lat="48.65431" lon="-2.31027">
        <ele>114</ele>
        <time>2012-02-26T16:18:17Z</time>
      </trkpt>
      <trkpt lat="48.6543" lon="-2.31038">
        <ele>114</ele>
        <time>2012-02-26T16:18:23Z</time>
      </trkpt>
      <trkpt lat="48.65426" lon="-2.31046">
        <ele>114</ele>
        <time>2012-02-26T16:18:28Z</time>
      </trkpt>
      <trkpt lat="48.65422" lon="-2.31054">
        <ele>115</ele>
        <time>2012-02-26T16:18:33Z</time>
      </trkpt>
      <trkpt lat="48.65419" lon="-2.31062">
        <ele>115</ele>
        <time>2012-02-26T16:18:38Z</time>
      </trkpt>
      <trkpt lat="48.65416" lon="-2.31071">
        <ele>115</ele>
        <time>2012-02-26T16:18:43Z</time>
      </trkpt>
      <trkpt lat="48.65412" lon="-2.3109">
        <ele>115</ele>
        <time>2012-02-26T16:18:53Z</time>
      </trkpt>
      <trkpt lat="48.65412" lon="-2.31101">
        <ele>115</ele>
        <time>2012-02-26T16:18:58Z</time>
      </trkpt>
      <trkpt lat="48.65414" lon="-2.3111">
        <ele>115</ele>
        <time>2012-02-26T16:19:03Z</time>
      </trkpt>
      <trkpt lat="48.65416" lon="-2.31121">
        <ele>115</ele>
        <time>2012-02-26T16:19:09Z</time>
      </trkpt>
      <trkpt lat="48.65418" lon="-2.3113">
        <ele>115</ele>
        <time>2012-02-26T16:19:14Z</time>
      </trkpt>
      <trkpt lat="48.65421" lon="-2.3114">
        <ele>115</ele>
        <time>2012-02-26T16:19:20Z</time>
      </trkpt>
      <trkpt lat="48.65422" lon="-2.31151">
        <ele>115</ele>
        <time>2012-02-26T16:19:26Z</time>
      </trkpt>
      <trkpt lat="48.65423" lon="-2.31162">
        <ele>116</ele>
        <time>2012-02-26T16:19:32Z</time>
      </trkpt>
      <trkpt lat="48.65423" lon="-2.31172">
        <ele>116</ele>
        <time>2012-02-26T16:19:38Z</time>
      </trkpt>
      <trkpt lat="48.65422" lon="-2.31183">
        <ele>116</ele>
        <time>2012-02-26T16:19:44Z</time>
      </trkpt>
      <trkpt lat="48.65422" lon="-2.31194">
        <ele>116</ele>
        <time>2012-02-26T16:19:50Z</time>
      </trkpt>
      <trkpt lat="48.65421" lon="-2.31204">
        <ele>116</ele>
        <time>2012-02-26T16:19:56Z</time>
      </trkpt>
      <trkpt lat="48.65419" lon="-2.31215">
        <ele>116</ele>
        <time>2012-02-26T16:20:02Z</time>
      </trkpt>
      <trkpt lat="48.65414" lon="-2.31246">
        <ele>116</ele>
        <time>2012-02-26T16:20:19Z</time>
      </trkpt>
      <trkpt lat="48.65411" lon="-2.31276">
        <ele>116</ele>
        <time>2012-02-26T16:20:35Z</time>
      </trkpt>
      <trkpt lat="48.6541" lon="-2.31286">
        <ele>116</ele>
        <time>2012-02-26T16:20:40Z</time>
      </trkpt>
      <trkpt lat="48.65409" lon="-2.31295">
        <ele>116</ele>
        <time>2012-02-26T16:20:45Z</time>
      </trkpt>
      <trkpt lat="48.65408" lon="-2.31306">
        <ele>116</ele>
        <time>2012-02-26T16:20:51Z</time>
      </trkpt>
      <trkpt lat="48.65407" lon="-2.31317">
        <ele>116</ele>
        <time>2012-02-26T16:20:57Z</time>
      </trkpt>
      <trkpt lat="48.65405" lon="-2.31339">
        <ele>116</ele>
        <time>2012-02-26T16:21:09Z</time>
      </trkpt>
      <trkpt lat="48.65389" lon="-2.31424">
        <ele>115</ele>
        <time>2012-02-26T16:21:50Z</time>
      </trkpt>
      <trkpt lat="48.65387" lon="-2.31435">
        <ele>116</ele>
        <time>2012-02-26T16:21:55Z</time>
      </trkpt>
      <trkpt lat="48.65387" lon="-2.31445">
        <ele>115</ele>
        <time>2012-02-26T16:22:00Z</time>
      </trkpt>
      <trkpt lat="48.65388" lon="-2.31456">
        <ele>115</ele>
        <time>2012-02-26T16:22:06Z</time>
      </trkpt>
      <trkpt lat="48.6539" lon="-2.31466">
        <ele>115</ele>
        <time>2012-02-26T16:22:13Z</time>
      </trkpt>
      <trkpt lat="48.65391" lon="-2.31476">
        <ele>115</ele>
        <time>2012-02-26T16:22:19Z</time>
      </trkpt>
      <trkpt lat="48.65392" lon="-2.31486">
        <ele>115</ele>
        <time>2012-02-26T16:22:25Z</time>
      </trkpt>
      <trkpt lat="48.65392" lon="-2.31497">
        <ele>115</ele>
        <time>2012-02-26T16:22:31Z</time>
      </trkpt>
      <trkpt lat="48.65393" lon="-2.31507">
        <ele>115</ele>
        <time>2012-02-26T16:22:37Z</time>
      </trkpt>
      <trkpt lat="48.65395" lon="-2.31517">
        <ele>114</ele>
        <time>2012-02-26T16:22:42Z</time>
      </trkpt>
      <trkpt lat="48.65397" lon="-2.31526">
        <ele>114</ele>
        <time>2012-02-26T16:22:47Z</time>
      </trkpt>
      <trkpt lat="48.65399" lon="-2.31536">
        <ele>114</ele>
        <time>2012-02-26T16:22:53Z</time>
      </trkpt>
      <trkpt lat="48.65401" lon="-2.31547">
        <ele>114</ele>
        <time>2012-02-26T16:22:59Z</time>
      </trkpt>
      <trkpt lat="48.65403" lon="-2.31557">
        <ele>113</ele>
        <time>2012-02-26T16:23:05Z</time>
      </trkpt>
      <trkpt lat="48.65408" lon="-2.31588">
        <ele>113</ele>
        <time>2012-02-26T16:23:23Z</time>
      </trkpt>
      <trkpt lat="48.6541" lon="-2.31598">
        <ele>113</ele>
        <time>2012-02-26T16:23:29Z</time>
      </trkpt>
      <trkpt lat="48.65414" lon="-2.31619">
        <ele>112</ele>
        <time>2012-02-26T16:23:41Z</time>
      </trkpt>
      <trkpt lat="48.65415" lon="-2.31628">
        <ele>112</ele>
        <time>2012-02-26T16:23:56Z</time>
      </trkpt>
      <trkpt lat="48.65415" lon="-2.31639">
        <ele>112</ele>
        <time>2012-02-26T16:24:05Z</time>
      </trkpt>
      <trkpt lat="48.65416" lon="-2.31649">
        <ele>111</ele>
        <time>2012-02-26T16:24:10Z</time>
      </trkpt>
      <trkpt lat="48.65417" lon="-2.3166">
        <ele>111</ele>
        <time>2012-02-26T16:24:16Z</time>
      </trkpt>
      <trkpt lat="48.65416" lon="-2.3167">
        <ele>111</ele>
        <time>2012-02-26T16:24:21Z</time>
      </trkpt>
      <trkpt lat="48.65415" lon="-2.3168">
        <ele>111</ele>
        <time>2012-02-26T16:24:26Z</time>
      </trkpt>
      <trkpt lat="48.65414" lon="-2.31691">
        <ele>111</ele>
        <time>2012-02-26T16:24:32Z</time>
      </trkpt>
      <trkpt lat="48.65412" lon="-2.317">
        <ele>111</ele>
        <time>2012-02-26T16:24:38Z</time>
      </trkpt>
      <trkpt lat="48.65408" lon="-2.3171">
        <ele>111</ele>
        <time>2012-02-26T16:24:44Z</time>
      </trkpt>
      <trkpt lat="48.65403" lon="-2.31717">
        <ele>111</ele>
        <time>2012-02-26T16:24:50Z</time>
      </trkpt>
      <trkpt lat="48.65397" lon="-2.31724">
        <ele>111</ele>
        <time>2012-02-26T16:24:56Z</time>
      </trkpt>
      <trkpt lat="48.65391" lon="-2.3173">
        <ele>111</ele>
        <time>2012-02-26T16:25:02Z</time>
      </trkpt>
      <trkpt lat="48.65386" lon="-2.31737">
        <ele>111</ele>
        <time>2012-02-26T16:25:06Z</time>
      </trkpt>
      <trkpt lat="48.6538" lon="-2.31744">
        <ele>111</ele>
        <time>2012-02-26T16:25:13Z</time>
      </trkpt>
      <trkpt lat="48.65363" lon="-2.31763">
        <ele>111</ele>
        <time>2012-02-26T16:25:28Z</time>
      </trkpt>
      <trkpt lat="48.6535" lon="-2.31785">
        <ele>111</ele>
        <time>2012-02-26T16:25:44Z</time>
      </trkpt>
      <trkpt lat="48.65352" lon="-2.31797">
        <ele>111</ele>
        <time>2012-02-26T16:25:48Z</time>
      </trkpt>
      <trkpt lat="48.65355" lon="-2.31807">
        <ele>111</ele>
        <time>2012-02-26T16:25:51Z</time>
      </trkpt>
      <trkpt lat="48.65359" lon="-2.31817">
        <ele>111</ele>
        <time>2012-02-26T16:25:55Z</time>
      </trkpt>
      <trkpt lat="48.65361" lon="-2.31826">
        <ele>111</ele>
        <time>2012-02-26T16:26:00Z</time>
      </trkpt>
      <trkpt lat="48.65398" lon="-2.31853">
        <ele>111</ele>
        <time>2012-02-26T16:26:23Z</time>
      </trkpt>
      <trkpt lat="48.65397" lon="-2.31864">
        <ele>111</ele>
        <time>2012-02-26T16:26:30Z</time>
      </trkpt>
      <trkpt lat="48.65398" lon="-2.31874">
        <ele>111</ele>
        <time>2012-02-26T16:26:36Z</time>
      </trkpt>
      <trkpt lat="48.65398" lon="-2.31884">
        <ele>111</ele>
        <time>2012-02-26T16:26:42Z</time>
      </trkpt>
      <trkpt lat="48.65397" lon="-2.31895">
        <ele>111</ele>
        <time>2012-02-26T16:26:48Z</time>
      </trkpt>
      <trkpt lat="48.65396" lon="-2.31906">
        <ele>111</ele>
        <time>2012-02-26T16:26:54Z</time>
      </trkpt>
      <trkpt lat="48.65395" lon="-2.31916">
        <ele>111</ele>
        <time>2012-02-26T16:26:59Z</time>
      </trkpt>
      <trkpt lat="48.65394" lon="-2.31927">
        <ele>111</ele>
        <time>2012-02-26T16:27:05Z</time>
      </trkpt>
      <trkpt lat="48.65392" lon="-2.31938">
        <ele>111</ele>
        <time>2012-02-26T16:27:11Z</time>
      </trkpt>
      <trkpt lat="48.65391" lon="-2.31948">
        <ele>111</ele>
        <time>2012-02-26T16:27:16Z</time>
      </trkpt>
      <trkpt lat="48.65389" lon="-2.31958">
        <ele>111</ele>
        <time>2012-02-26T16:27:21Z</time>
      </trkpt>
      <trkpt lat="48.65387" lon="-2.31968">
        <ele>111</ele>
        <time>2012-02-26T16:27:26Z</time>
      </trkpt>
      <trkpt lat="48.65384" lon="-2.31989">
        <ele>111</ele>
        <time>2012-02-26T16:27:36Z</time>
      </trkpt>
      <trkpt lat="48.65383" lon="-2.31999">
        <ele>111</ele>
        <time>2012-02-26T16:27:41Z</time>
      </trkpt>
      <trkpt lat="48.65381" lon="-2.32009">
        <ele>111</ele>
        <time>2012-02-26T16:27:46Z</time>
      </trkpt>
      <trkpt lat="48.65378" lon="-2.32019">
        <ele>111</ele>
        <time>2012-02-26T16:27:51Z</time>
      </trkpt>
      <trkpt lat="48.65375" lon="-2.32028">
        <ele>111</ele>
        <time>2012-02-26T16:27:56Z</time>
      </trkpt>
      <trkpt lat="48.65372" lon="-2.32037">
        <ele>111</ele>
        <time>2012-02-26T16:28:01Z</time>
      </trkpt>
      <trkpt lat="48.65367" lon="-2.32044">
        <ele>111</ele>
        <time>2012-02-26T16:28:06Z</time>
      </trkpt>
      <trkpt lat="48.65361" lon="-2.3205">
        <ele>111</ele>
        <time>2012-02-26T16:28:11Z</time>
      </trkpt>
      <trkpt lat="48.65343" lon="-2.32065">
        <ele>110</ele>
        <time>2012-02-26T16:28:26Z</time>
      </trkpt>
      <trkpt lat="48.65324" lon="-2.3208">
        <ele>110</ele>
        <time>2012-02-26T16:28:44Z</time>
      </trkpt>
      <trkpt lat="48.65318" lon="-2.32085">
        <ele>110</ele>
        <time>2012-02-26T16:28:49Z</time>
      </trkpt>
      <trkpt lat="48.65312" lon="-2.32093">
        <ele>110</ele>
        <time>2012-02-26T16:28:53Z</time>
      </trkpt>
      <trkpt lat="48.65309" lon="-2.32103">
        <ele>110</ele>
        <time>2012-02-26T16:28:58Z</time>
      </trkpt>
      <trkpt lat="48.65308" lon="-2.32113">
        <ele>110</ele>
        <time>2012-02-26T16:29:03Z</time>
      </trkpt>
      <trkpt lat="48.65309" lon="-2.32125">
        <ele>110</ele>
        <time>2012-02-26T16:29:10Z</time>
      </trkpt>
      <trkpt lat="48.65311" lon="-2.32134">
        <ele>110</ele>
        <time>2012-02-26T16:29:14Z</time>
      </trkpt>
      <trkpt lat="48.65315" lon="-2.32143">
        <ele>110</ele>
        <time>2012-02-26T16:29:19Z</time>
      </trkpt>
      <trkpt lat="48.65318" lon="-2.32152">
        <ele>109</ele>
        <time>2012-02-26T16:29:24Z</time>
      </trkpt>
      <trkpt lat="48.65322" lon="-2.32162">
        <ele>109</ele>
        <time>2012-02-26T16:29:30Z</time>
      </trkpt>
      <trkpt lat="48.65325" lon="-2.3217">
        <ele>109</ele>
        <time>2012-02-26T16:29:35Z</time>
      </trkpt>
      <trkpt lat="48.6533" lon="-2.32179">
        <ele>109</ele>
        <time>2012-02-26T16:29:41Z</time>
      </trkpt>
      <trkpt lat="48.65333" lon="-2.32187">
        <ele>109</ele>
        <time>2012-02-26T16:29:46Z</time>
      </trkpt>
      <trkpt lat="48.65337" lon="-2.32195">
        <ele>108</ele>
        <time>2012-02-26T16:29:51Z</time>
      </trkpt>
      <trkpt lat="48.6534" lon="-2.32203">
        <ele>108</ele>
        <time>2012-02-26T16:29:56Z</time>
      </trkpt>
      <trkpt lat="48.65344" lon="-2.32211">
        <ele>108</ele>
        <time>2012-02-26T16:30:01Z</time>
      </trkpt>
      <trkpt lat="48.65348" lon="-2.32219">
        <ele>108</ele>
        <time>2012-02-26T16:30:06Z</time>
      </trkpt>
      <trkpt lat="48.65351" lon="-2.32227">
        <ele>108</ele>
        <time>2012-02-26T16:30:11Z</time>
      </trkpt>
      <trkpt lat="48.65354" lon="-2.32236">
        <ele>108</ele>
        <time>2012-02-26T16:30:16Z</time>
      </trkpt>
      <trkpt lat="48.65357" lon="-2.32244">
        <ele>108</ele>
        <time>2012-02-26T16:30:21Z</time>
      </trkpt>
      <trkpt lat="48.6536" lon="-2.32253">
        <ele>107</ele>
        <time>2012-02-26T16:30:26Z</time>
      </trkpt>
      <trkpt lat="48.65364" lon="-2.32262">
        <ele>107</ele>
        <time>2012-02-26T16:30:31Z</time>
      </trkpt>
      <trkpt lat="48.65367" lon="-2.32271">
        <ele>107</ele>
        <time>2012-02-26T16:30:36Z</time>
      </trkpt>
      <trkpt lat="48.65371" lon="-2.3228">
        <ele>107</ele>
        <time>2012-02-26T16:30:41Z</time>
      </trkpt>
      <trkpt lat="48.65385" lon="-2.32313">
        <ele>108</ele>
        <time>2012-02-26T16:31:01Z</time>
      </trkpt>
      <trkpt lat="48.65387" lon="-2.32322">
        <ele>108</ele>
        <time>2012-02-26T16:31:06Z</time>
      </trkpt>
      <trkpt lat="48.65388" lon="-2.32332">
        <ele>108</ele>
        <time>2012-02-26T16:31:11Z</time>
      </trkpt>
      <trkpt lat="48.65387" lon="-2.32343">
        <ele>108</ele>
        <time>2012-02-26T16:31:17Z</time>
      </trkpt>
      <trkpt lat="48.65383" lon="-2.32352">
        <ele>108</ele>
        <time>2012-02-26T16:31:22Z</time>
      </trkpt>
      <trkpt lat="48.65379" lon="-2.3236">
        <ele>108</ele>
        <time>2012-02-26T16:31:27Z</time>
      </trkpt>
      <trkpt lat="48.65375" lon="-2.32367">
        <ele>108</ele>
        <time>2012-02-26T16:31:32Z</time>
      </trkpt>
      <trkpt lat="48.65369" lon="-2.32373">
        <ele>108</ele>
        <time>2012-02-26T16:31:37Z</time>
      </trkpt>
      <trkpt lat="48.65364" lon="-2.32381">
        <ele>108</ele>
        <time>2012-02-26T16:31:43Z</time>
      </trkpt>
      <trkpt lat="48.65358" lon="-2.32388">
        <ele>108</ele>
        <time>2012-02-26T16:31:49Z</time>
      </trkpt>
      <trkpt lat="48.65353" lon="-2.32395">
        <ele>108</ele>
        <time>2012-02-26T16:31:55Z</time>
      </trkpt>
      <trkpt lat="48.65348" lon="-2.32402">
        <ele>108</ele>
        <time>2012-02-26T16:32:00Z</time>
      </trkpt>
      <trkpt lat="48.65344" lon="-2.32409">
        <ele>108</ele>
        <time>2012-02-26T16:32:05Z</time>
      </trkpt>
      <trkpt lat="48.6534" lon="-2.3242">
        <ele>108</ele>
        <time>2012-02-26T16:32:10Z</time>
      </trkpt>
      <trkpt lat="48.65338" lon="-2.32429">
        <ele>108</ele>
        <time>2012-02-26T16:32:14Z</time>
      </trkpt>
      <trkpt lat="48.65336" lon="-2.3244">
        <ele>108</ele>
        <time>2012-02-26T16:32:19Z</time>
      </trkpt>
      <trkpt lat="48.65335" lon="-2.3245">
        <ele>108</ele>
        <time>2012-02-26T16:32:24Z</time>
      </trkpt>
      <trkpt lat="48.65335" lon="-2.32461">
        <ele>108</ele>
        <time>2012-02-26T16:32:29Z</time>
      </trkpt>
      <trkpt lat="48.65336" lon="-2.32504">
        <ele>108</ele>
        <time>2012-02-26T16:32:49Z</time>
      </trkpt>
      <trkpt lat="48.65335" lon="-2.32514">
        <ele>108</ele>
        <time>2012-02-26T16:32:54Z</time>
      </trkpt>
      <trkpt lat="48.65338" lon="-2.32524">
        <ele>108</ele>
        <time>2012-02-26T16:32:59Z</time>
      </trkpt>
      <trkpt lat="48.65339" lon="-2.32533">
        <ele>107</ele>
        <time>2012-02-26T16:33:05Z</time>
      </trkpt>
      <trkpt lat="48.6534" lon="-2.32543">
        <ele>107</ele>
        <time>2012-02-26T16:33:09Z</time>
      </trkpt>
      <trkpt lat="48.6534" lon="-2.32554">
        <ele>108</ele>
        <time>2012-02-26T16:33:14Z</time>
      </trkpt>
      <trkpt lat="48.6534" lon="-2.32564">
        <ele>108</ele>
        <time>2012-02-26T16:33:19Z</time>
      </trkpt>
      <trkpt lat="48.6534" lon="-2.32574">
        <ele>108</ele>
        <time>2012-02-26T16:33:24Z</time>
      </trkpt>
      <trkpt lat="48.6534" lon="-2.32585">
        <ele>108</ele>
        <time>2012-02-26T16:33:29Z</time>
      </trkpt>
      <trkpt lat="48.65339" lon="-2.32595">
        <ele>108</ele>
        <time>2012-02-26T16:33:34Z</time>
      </trkpt>
      <trkpt lat="48.65339" lon="-2.32606">
        <ele>108</ele>
        <time>2012-02-26T16:33:39Z</time>
      </trkpt>
      <trkpt lat="48.65338" lon="-2.32616">
        <ele>108</ele>
        <time>2012-02-26T16:33:44Z</time>
      </trkpt>
      <trkpt lat="48.65337" lon="-2.32626">
        <ele>108</ele>
        <time>2012-02-26T16:33:49Z</time>
      </trkpt>
      <trkpt lat="48.65336" lon="-2.32636">
        <ele>108</ele>
        <time>2012-02-26T16:33:54Z</time>
      </trkpt>
      <trkpt lat="48.65336" lon="-2.32646">
        <ele>108</ele>
        <time>2012-02-26T16:33:59Z</time>
      </trkpt>
      <trkpt lat="48.65336" lon="-2.32655">
        <ele>108</ele>
        <time>2012-02-26T16:34:04Z</time>
      </trkpt>
      <trkpt lat="48.65337" lon="-2.32667">
        <ele>108</ele>
        <time>2012-02-26T16:34:10Z</time>
      </trkpt>
      <trkpt lat="48.6534" lon="-2.32675">
        <ele>108</ele>
        <time>2012-02-26T16:34:15Z</time>
      </trkpt>
      <trkpt lat="48.65342" lon="-2.32685">
        <ele>108</ele>
        <time>2012-02-26T16:34:20Z</time>
      </trkpt>
      <trkpt lat="48.65345" lon="-2.32694">
        <ele>108</ele>
        <time>2012-02-26T16:34:25Z</time>
      </trkpt>
      <trkpt lat="48.65348" lon="-2.32704">
        <ele>108</ele>
        <time>2012-02-26T16:34:30Z</time>
      </trkpt>
      <trkpt lat="48.65353" lon="-2.32723">
        <ele>108</ele>
        <time>2012-02-26T16:34:40Z</time>
      </trkpt>
      <trkpt lat="48.65359" lon="-2.32741">
        <ele>108</ele>
        <time>2012-02-26T16:34:50Z</time>
      </trkpt>
      <trkpt lat="48.65362" lon="-2.32749">
        <ele>108</ele>
        <time>2012-02-26T16:34:55Z</time>
      </trkpt>
      <trkpt lat="48.65366" lon="-2.32758">
        <ele>108</ele>
        <time>2012-02-26T16:35:00Z</time>
      </trkpt>
      <trkpt lat="48.65377" lon="-2.3277">
        <ele>107</ele>
        <time>2012-02-26T16:35:10Z</time>
      </trkpt>
      <trkpt lat="48.65383" lon="-2.32766">
        <ele>107</ele>
        <time>2012-02-26T16:35:15Z</time>
      </trkpt>
      <trkpt lat="48.65389" lon="-2.32762">
        <ele>107</ele>
        <time>2012-02-26T16:35:18Z</time>
      </trkpt>
      <trkpt lat="48.65396" lon="-2.32759">
        <ele>107</ele>
        <time>2012-02-26T16:35:24Z</time>
      </trkpt>
      <trkpt lat="48.65402" lon="-2.32761">
        <ele>107</ele>
        <time>2012-02-26T16:35:29Z</time>
      </trkpt>
      <trkpt lat="48.65409" lon="-2.32762">
        <ele>106</ele>
        <time>2012-02-26T16:35:36Z</time>
      </trkpt>
      <trkpt lat="48.65403" lon="-2.32757">
        <ele>106</ele>
        <time>2012-02-26T16:35:44Z</time>
      </trkpt>
      <trkpt lat="48.65396" lon="-2.32755">
        <ele>106</ele>
        <time>2012-02-26T16:35:47Z</time>
      </trkpt>
      <trkpt lat="48.65382" lon="-2.32757">
        <ele>105</ele>
        <time>2012-02-26T16:35:54Z</time>
      </trkpt>
      <trkpt lat="48.65357" lon="-2.32774">
        <ele>105</ele>
        <time>2012-02-26T16:36:12Z</time>
      </trkpt>
      <trkpt lat="48.65355" lon="-2.32784">
        <ele>105</ele>
        <time>2012-02-26T16:36:15Z</time>
      </trkpt>
      <trkpt lat="48.6535" lon="-2.32813">
        <ele>105</ele>
        <time>2012-02-26T16:36:27Z</time>
      </trkpt>
      <trkpt lat="48.65347" lon="-2.32822">
        <ele>105</ele>
        <time>2012-02-26T16:36:32Z</time>
      </trkpt>
      <trkpt lat="48.65344" lon="-2.32832">
        <ele>105</ele>
        <time>2012-02-26T16:36:37Z</time>
      </trkpt>
      <trkpt lat="48.65336" lon="-2.32861">
        <ele>104</ele>
        <time>2012-02-26T16:36:52Z</time>
      </trkpt>
      <trkpt lat="48.65341" lon="-2.32869">
        <ele>104</ele>
        <time>2012-02-26T16:36:56Z</time>
      </trkpt>
      <trkpt lat="48.65346" lon="-2.32875">
        <ele>104</ele>
        <time>2012-02-26T16:36:59Z</time>
      </trkpt>
      <trkpt lat="48.65351" lon="-2.32881">
        <ele>104</ele>
        <time>2012-02-26T16:37:03Z</time>
      </trkpt>
      <trkpt lat="48.65357" lon="-2.32888">
        <ele>104</ele>
        <time>2012-02-26T16:37:06Z</time>
      </trkpt>
      <trkpt lat="48.65362" lon="-2.32894">
        <ele>104</ele>
        <time>2012-02-26T16:37:10Z</time>
      </trkpt>
      <trkpt lat="48.65366" lon="-2.32901">
        <ele>104</ele>
        <time>2012-02-26T16:37:14Z</time>
      </trkpt>
      <trkpt lat="48.65371" lon="-2.3291">
        <ele>103</ele>
        <time>2012-02-26T16:37:19Z</time>
      </trkpt>
      <trkpt lat="48.65375" lon="-2.3292">
        <ele>103</ele>
        <time>2012-02-26T16:37:24Z</time>
      </trkpt>
      <trkpt lat="48.65378" lon="-2.32928">
        <ele>103</ele>
        <time>2012-02-26T16:37:29Z</time>
      </trkpt>
      <trkpt lat="48.65381" lon="-2.32938">
        <ele>103</ele>
        <time>2012-02-26T16:37:34Z</time>
      </trkpt>
      <trkpt lat="48.65383" lon="-2.32947">
        <ele>103</ele>
        <time>2012-02-26T16:37:39Z</time>
      </trkpt>
      <trkpt lat="48.65383" lon="-2.32957">
        <ele>103</ele>
        <time>2012-02-26T16:37:44Z</time>
      </trkpt>
      <trkpt lat="48.65384" lon="-2.32967">
        <ele>102</ele>
        <time>2012-02-26T16:37:49Z</time>
      </trkpt>
      <trkpt lat="48.65385" lon="-2.32977">
        <ele>102</ele>
        <time>2012-02-26T16:37:54Z</time>
      </trkpt>
      <trkpt lat="48.65385" lon="-2.32988">
        <ele>102</ele>
        <time>2012-02-26T16:37:59Z</time>
      </trkpt>
      <trkpt lat="48.6538" lon="-2.3302">
        <ele>102</ele>
        <time>2012-02-26T16:38:14Z</time>
      </trkpt>
      <trkpt lat="48.65378" lon="-2.3303">
        <ele>103</ele>
        <time>2012-02-26T16:38:19Z</time>
      </trkpt>
      <trkpt lat="48.65376" lon="-2.33041">
        <ele>103</ele>
        <time>2012-02-26T16:38:24Z</time>
      </trkpt>
      <trkpt lat="48.65374" lon="-2.33052">
        <ele>103</ele>
        <time>2012-02-26T16:38:29Z</time>
      </trkpt>
      <trkpt lat="48.65374" lon="-2.33063">
        <ele>103</ele>
        <time>2012-02-26T16:38:34Z</time>
      </trkpt>
      <trkpt lat="48.6538" lon="-2.33093">
        <ele>103</ele>
        <time>2012-02-26T16:38:49Z</time>
      </trkpt>
      <trkpt lat="48.65386" lon="-2.33111">
        <ele>102</ele>
        <time>2012-02-26T16:39:00Z</time>
      </trkpt>
      <trkpt lat="48.65391" lon="-2.3312">
        <ele>102</ele>
        <time>2012-02-26T16:39:06Z</time>
      </trkpt>
      <trkpt lat="48.65396" lon="-2.33128">
        <ele>102</ele>
        <time>2012-02-26T16:39:11Z</time>
      </trkpt>
      <trkpt lat="48.65402" lon="-2.33135">
        <ele>102</ele>
        <time>2012-02-26T16:39:17Z</time>
      </trkpt>
      <trkpt lat="48.65407" lon="-2.33143">
        <ele>102</ele>
        <time>2012-02-26T16:39:21Z</time>
      </trkpt>
      <trkpt lat="48.65416" lon="-2.33158">
        <ele>102</ele>
        <time>2012-02-26T16:39:31Z</time>
      </trkpt>
      <trkpt lat="48.65427" lon="-2.33184">
        <ele>102</ele>
        <time>2012-02-26T16:39:47Z</time>
      </trkpt>
      <trkpt lat="48.6543" lon="-2.33193">
        <ele>102</ele>
        <time>2012-02-26T16:39:53Z</time>
      </trkpt>
      <trkpt lat="48.65438" lon="-2.3321">
        <ele>101</ele>
        <time>2012-02-26T16:40:05Z</time>
      </trkpt>
      <trkpt lat="48.65438" lon="-2.3321">
        <ele>47.7</ele>
        <time>2012-02-26T16:40:11Z</time>
      </trkpt>
    </trkseg>
  </trk>
</gpx>